GFSMA_500_rhum_000.txt.gz
RH
59 55 46 50 49 47 42 39 46 46 44 43 44 48 39 27 19 15 16 16 22 30 34 36 34 31 29 27 23 23 21 19 18 18 18 17 17 16 15 15 14 14 13
60 54 50 51 47 43 36 41 43 52 55 54 52 40 31 27 24 18 20 29 40 46 47 46 42 37 33 26 23 22 21 20 20 19 19 19 19 18 17 16 15 14 14
56 56 51 49 48 43 49 50 52 54 51 45 40 37 32 26 25 24 32 40 47 49 45 40 37 35 32 29 27 23 22 22 22 22 22 24 24 24 23 23 23 22 21
54 47 49 48 47 53 52 48 48 44 42 42 36 25 13 12 16 30 42 45 41 36 33 31 28 26 24 23 22 24 26 27 27 26 27 29 30 29 29 28 27 27 26
48 48 48 45 38 47 52 46 43 38 26 13 10 10 14 28 44 46 41 36 33 29 27 27 28 30 32 34 34 34 33 33 32 31 30 30 29 29 29 28 28 28 27
50 48 48 26 39 43 40 34 22 12 12 18 20 28 51 52 44 39 33 30 31 34 39 40 39 38 38 37 36 34 33 32 32 31 34 33 33 32 32 32 31 29 29
50 51 34 27 40 44 38 28 13 18 26 25 43 55 53 53 44 35 39 41 43 42 42 41 41 40 38 35 33 31 31 31 30 29 29 27 26 25 24 23 23 24 24
52 49 50 49 50 44 30 15 16 28 29 39 57 57 46 38 44 45 45 45 46 45 45 45 43 40 34 32 30 29 27 25 23 21 20 19 20 19 18 15 14 12 11
52 48 52 55 52 39 21 15 24 27 30 41 56 48 49 51 51 48 50 52 50 51 51 46 37 33 31 30 27 23 21 20 19 19 20 19 16 14 13 13 12 11 10
51 46 49 54 50 31 13 19 26 28 44 60 54 53 55 50 48 46 51 54 56 53 45 37 33 33 31 29 27 25 24 23 22 19 17 16 16 17 17 15 13 12 11
47 41 47 50 38 15 15 25 35 55 62 58 57 54 51 55 58 55 51 54 52 47 40 36 34 30 25 23 24 25 23 18 16 17 18 17 15 12 10 10 9 8 7
40 38 46 40 20 14 24 44 62 66 58 60 57 51 53 58 60 58 50 44 39 40 40 34 28 28 32 30 23 19 17 17 17 16 14 12 11 11 10 10 9 9 8
33 39 39 22 14 25 49 69 70 66 63 58 45 48 59 63 58 54 50 48 43 40 37 33 35 35 30 25 20 18 16 13 12 11 11 11 11 11 11 10 10 9 8
35 33 20 16 24 47 71 69 67 66 59 44 48 62 52 47 59 62 60 54 44 39 37 35 31 26 21 18 16 16 14 12 12 12 11 10 8 7 6 4 4 3 3
26 22 18 22 53 72 78 66 66 63 48 62 73 58 57 63 69 68 58 46 45 39 30 24 20 18 18 17 16 15 13 11 9 8 5 4 3 4 6 5 5 5 6
23 19 24 57 76 80 67 66 68 59 72 79 66 61 71 74 72 59 48 50 36 22 23 20 21 20 17 14 12 10 8 6 3 3 3 4 6 8 9 13 14 14 16
21 30 58 73 78 68 65 76 71 76 85 67 63 76 80 73 58 53 47 22 18 18 19 15 13 9 7 8 8 4 3 4 5 6 8 10 11 10 12 16 18 18 17
35 60 67 73 71 73 78 80 89 85 59 69 73 79 71 57 56 30 22 21 20 16 12 8 7 7 6 4 4 5 6 7 7 6 8 10 11 13 16 15 14 15 15
58 68 73 81 80 81 89 83 51 60 68 71 77 67 59 44 24 22 21 12 12 12 11 10 7 4 4 6 6 8 6 6 6 7 6 8 10 12 13 13 12 11 13
73 80 87 90 92 87 49 48 61 65 77 77 62 60 30 24 24 22 15 13 12 11 10 6 5 6 6 10 12 28 42 39 34 24 22 20 15 18 22 28 45 59 60
91 94 94 84 70 44 47 62 70 81 74 64 48 27 27 26 21 17 13 11 10 9 5 6 7 8 13 24 55 59 64 70 94 73 70 85 87 92 94 84 75 70 63
97 82 75 63 39 57 66 76 82 71 64 37 28 29 29 25 20 15 10 10 7 6 7 8 9 20 54 56 64 72 76 86 94 87 82 100 85 96 91 94 89 86 66
68 66 47 45 68 71 84 81 70 56 33 31 31 28 21 19 16 12 10 6 6 8 10 10 35 60 54 62 76 82 89 94 89 82 89 100 93 100 98 100 92 96 64
63 43 65 70 76 87 78 65 47 34 32 33 27 24 20 17 14 9 5 6 8 10 12 55 66 63 63 71 72 77 79 97 100 90 76 98 97 100 100 98 83 90 61
62 70 70 82 83 73 56 42 36 34 34 30 26 22 16 14 8 4 7 8 10 11 53 72 64 67 76 80 78 74 79 85 97 100 88 95 98 97 99 72 72 79 68
67 78 84 77 64 48 43 38 37 35 30 24 20 16 14 7 5 9 8 10 11 57 74 78 78 83 84 87 84 79 78 80 80 96 92 95 98 81 100 75 96 96 93

GFSMA_500_rhum_006.txt.gz
RH
54 61 60 57 58 58 61 55 52 42 47 46 38 44 47 48 46 41 37 32 24 21 17 12 12 14 16 20 28 39 43 45 43 42 42 39 35 31 26 23 21 20 19
47 56 64 65 61 56 56 52 48 47 47 47 48 52 53 46 40 34 20 24 27 18 16 17 24 26 26 28 32 37 38 36 34 33 32 31 30 29 28 26 23 21 20
64 72 72 72 66 59 53 48 47 47 46 41 51 54 45 36 23 15 30 27 22 24 32 38 40 41 40 39 37 36 34 32 32 31 30 30 28 27 26 26 26 26 25
70 75 73 69 63 59 50 45 47 48 46 28 51 42 33 22 15 28 32 28 30 40 46 46 47 44 40 38 38 39 41 42 43 42 41 40 39 38 37 36 35 34 33
70 73 70 62 55 47 44 47 48 42 25 39 41 42 36 19 19 28 31 29 38 47 46 48 45 44 45 46 46 45 44 43 40 38 38 38 38 38 38 37 36 34 33
66 75 68 51 46 43 49 49 47 46 37 45 49 45 30 18 16 29 32 33 45 48 45 44 44 41 38 38 38 39 39 41 43 42 42 41 40 39 37 34 32 30 30
68 76 68 48 49 53 53 50 47 47 51 54 53 50 32 14 17 32 37 40 44 45 44 42 40 42 43 48 51 50 50 48 48 48 44 41 39 37 34 32 30 29 28
61 74 71 59 58 59 59 57 53 48 45 45 46 48 37 21 21 34 42 45 46 45 49 50 48 45 51 54 51 48 47 44 41 38 36 35 35 37 36 34 32 31 30
59 73 79 74 71 70 71 69 59 50 48 47 43 42 27 19 27 42 49 52 55 55 52 50 49 53 59 58 49 46 43 40 38 38 39 40 40 40 39 37 35 33 31
62 71 83 85 77 74 77 81 54 47 48 45 44 38 19 17 26 37 53 55 60 60 54 50 60 68 65 56 52 47 44 43 48 52 52 49 46 43 40 38 36 34 32
50 62 70 67 62 61 58 50 44 44 54 45 39 21 17 25 27 33 44 52 52 62 60 68 75 71 62 58 52 50 55 56 52 50 49 47 43 39 35 33 32 30 29
38 41 41 41 43 42 37 34 38 42 38 32 22 17 24 26 36 36 37 55 67 72 78 72 62 62 60 59 60 56 51 46 37 29 26 24 22 22 20 19 19 18 18
45 40 34 31 27 26 27 36 35 32 28 23 16 22 24 33 36 49 62 62 63 61 54 53 52 59 59 55 48 40 32 28 25 18 14 12 11 11 10 9 8 9 10
26 20 14 13 15 23 30 31 30 27 21 18 18 23 31 43 64 69 72 59 50 51 46 40 52 48 42 37 34 32 29 23 17 12 11 11 10 10 9 8 6 5 6
30 19 15 14 19 25 29 33 30 19 20 19 25 38 54 66 70 61 43 45 45 35 42 47 42 39 36 33 24 12 8 7 7 7 7 6 7 6 4 3 3 3 3
25 17 15 18 26 34 35 30 23 21 21 36 56 64 68 65 45 41 44 45 54 48 37 40 39 33 23 15 12 12 10 7 6 5 4 3 3 3 5 18 27 29 30
45 46 38 33 40 37 32 26 22 38 61 69 67 67 49 45 47 48 59 53 47 45 42 36 24 19 15 15 15 12 8 4 2 2 4 4 10 29 39 41 34 30 28
60 50 42 44 41 37 29 30 62 78 71 64 65 56 52 52 68 59 50 49 47 41 26 19 16 11 10 9 8 5 2 2 5 6 22 44 40 53 45 48 52 52 53
62 44 52 53 39 30 52 81 84 71 68 66 54 54 68 67 56 52 50 47 31 24 19 13 10 9 8 6 3 2 5 6 13 49 48 49 59 52 53 57 51 53 58
43 59 76 45 41 79 88 82 73 65 54 54 65 71 61 54 53 52 38 28 22 16 14 12 11 8 4 2 4 5 5 54 57 51 60 60 59 57 58 41 49 58 69
68 84 44 70 92 91 83 68 56 50 63 74 68 58 55 55 46 31 25 19 16 16 13 10 6 3 4 5 5 30 56 56 74 57 61 72 63 60 55 54 58 67 71
75 53 91 98 97 77 63 50 56 72 74 63 58 60 54 38 30 24 19 18 16 12 8 4 3 6 5 10 59 59 57 57 69 73 60 82 60 76 63 67 70 54 53
87 96 100 90 66 55 52 68 76 70 60 62 61 47 35 32 24 20 17 13 10 4 3 7 8 7 23 54 56 63 67 63 69 71 67 89 70 76 69 65 37 30 33
100 97 75 62 49 64 78 78 66 63 66 53 39 38 32 23 20 16 12 8 3 5 9 9 12 44 56 57 59 66 67 68 77 74 70 80 69 73 58 31 40 42 40
84 71 49 61 78 83 74 64 65 62 44 39 37 31 24 20 15 11 6 3 6 10 12 32 63 59 66 63 60 63 64 60 68 70 71 79 68 79 40 47 50 67 74
50 51 76 83 84 70 64 67 51 40 38 33 28 25 20 13 10 4 4 7 10 20 62 78 71 69 72 71 66 56 49 34 28 29 56 83 77 76 45 47 69 70 66

GFSMA_500_rhum_009.txt.gz
RH
29 37 39 46 47 49 50 53 55 54 56 46 40 46 47 45 41 44 45 38 34 28 24 27 24 20 16 15 17 16 13 15 20 31 38 39 40 40 40 40 38 34 27
33 34 43 41 46 51 57 57 54 54 54 48 42 46 45 45 46 48 43 35 22 26 31 25 18 17 18 23 24 26 29 34 37 38 38 36 35 34 33 32 31 30 29
41 40 38 49 63 70 71 72 65 58 51 46 46 47 46 36 51 44 34 26 22 31 32 23 19 22 25 31 33 31 32 34 36 36 36 36 37 38 37 36 34 31 28
43 45 45 56 74 74 74 69 65 61 50 46 48 46 33 39 42 41 37 24 22 28 32 28 24 30 34 37 39 41 40 41 44 45 46 46 46 46 45 43 42 41 39
49 44 40 57 72 73 70 64 53 47 45 48 47 37 31 41 50 48 42 35 19 21 29 30 27 34 37 41 43 43 42 39 37 36 33 34 34 34 35 36 36 37 38
44 41 46 51 59 75 70 54 44 45 50 48 48 49 50 50 50 51 54 52 31 18 25 30 30 35 41 42 40 36 34 33 34 37 40 40 41 41 40 39 40 40 40
36 33 40 43 56 74 73 50 50 54 55 56 53 50 49 46 48 49 49 48 31 17 25 29 29 30 32 36 40 39 40 43 48 48 45 42 41 42 41 38 36 35 34
40 42 29 43 57 74 76 60 60 62 64 67 66 58 50 52 53 51 51 45 22 21 26 27 28 31 36 42 44 46 50 53 50 49 48 45 42 40 39 37 35 34 34
52 51 33 46 59 74 77 77 73 76 77 77 76 66 44 45 52 51 40 21 19 24 26 34 41 41 42 44 53 56 54 55 52 49 46 42 37 30 27 26 28 32 37
61 67 55 52 58 68 75 81 86 84 76 69 57 42 41 47 48 38 23 20 21 31 46 53 54 53 56 58 59 61 60 55 53 47 40 40 44 45 42 38 36 34 33
54 59 50 44 44 59 68 73 65 50 47 42 36 36 41 41 33 24 18 24 23 30 35 38 51 62 64 65 59 53 52 47 40 44 46 45 40 37 35 33 31 29 28
48 42 53 59 45 39 42 44 42 36 28 22 28 29 27 26 21 20 18 21 26 41 45 53 63 65 52 48 50 47 46 49 46 40 37 37 35 34 33 30 29 29 28
56 52 46 47 49 45 37 25 20 21 21 20 18 22 27 21 20 18 18 26 35 53 59 60 48 46 47 44 49 48 42 39 40 39 37 32 21 12 11 9 8 8 9
64 57 48 41 36 30 21 18 23 28 26 23 30 26 22 18 18 30 42 42 47 54 50 48 47 49 51 46 40 40 40 35 24 15 12 10 9 9 7 6 6 7 9
63 58 52 45 39 31 23 21 30 34 37 34 27 24 22 37 54 56 56 58 57 47 36 52 53 46 39 38 40 31 18 12 10 8 7 6 5 5 4 3 3 2 2
64 57 51 44 37 45 51 46 42 45 37 29 27 41 59 60 62 61 58 43 42 53 50 46 42 43 41 28 18 13 9 7 6 6 6 5 3 2 2 3 4 10 27
60 54 53 57 65 63 58 48 49 41 33 37 68 76 69 65 58 40 47 62 58 49 42 44 43 29 20 15 10 8 8 7 5 4 3 3 3 4 4 20 39 51 42
61 60 66 78 81 70 52 60 55 36 68 85 81 72 62 42 51 67 62 53 46 47 45 30 21 15 12 12 10 9 6 3 3 4 5 4 5 35 39 50 56 48 38
72 76 82 92 70 51 81 84 49 89 90 83 67 50 47 68 66 58 49 48 47 32 24 18 14 12 10 8 6 3 3 4 6 6 13 33 44 50 55 54 50 51 58
81 92 100 69 60 87 90 69 97 94 77 57 47 68 73 64 55 52 49 34 25 21 17 13 8 7 6 4 3 4 6 6 23 50 49 44 47 49 61 52 58 60 52
100 92 77 72 87 77 90 99 89 65 50 60 78 72 60 53 51 37 27 23 20 17 11 8 8 5 3 3 6 7 9 38 63 55 51 67 51 60 59 60 61 62 63
79 70 67 70 90 100 100 80 60 50 76 81 70 58 55 42 30 25 23 20 16 9 10 7 3 3 5 7 8 37 51 51 64 86 50 78 54 70 64 65 71 70 58
64 66 64 100 100 98 75 52 67 82 80 64 58 49 35 29 26 23 18 9 10 12 5 3 4 7 10 35 52 54 70 60 70 74 59 74 67 71 73 75 75 62 26
51 86 99 100 93 63 56 77 87 76 61 57 44 33 28 27 22 11 8 13 9 4 4 6 12 34 56 54 49 56 64 66 70 63 51 51 50 60 75 76 73 44 35
98 99 99 80 54 71 87 88 68 62 55 41 32 29 26 18 10 12 10 6 4 5 16 37 54 53 45 36 27 23 26 26 27 26 24 25 21 28 56 75 74 42 42
100 90 56 65 80 94 79 64 62 51 38 30 26 25 15 9 12 9 5 3 6 29 49 54 43 36 34 36 35 33 30 29 27 27 22 19 18 20 58 76 80 46 51

GFSMA_500_rhum_012.txt.gz
RH
32 32 30 28 31 32 34 34 34 40 45 52 55 54 53 49 38 44 46 44 41 42 38 34 26 31 30 18 16 16 17 20 23 26 30 33 31 27 27 32 38 40 40
32 31 34 34 32 33 34 34 39 45 49 57 56 56 53 48 43 44 44 43 45 44 34 27 26 31 33 29 18 16 19 19 20 20 19 21 28 34 35 36 36 36 36
32 29 30 39 40 40 40 42 57 67 71 70 67 62 57 48 48 47 39 43 45 41 36 28 23 27 31 31 27 18 20 26 29 30 30 30 29 34 37 42 45 46 45
36 33 34 43 44 44 38 45 53 72 72 69 61 54 46 48 47 38 33 43 49 50 52 55 51 29 23 27 28 23 25 30 35 40 40 40 37 31 29 31 33 33 35
36 34 38 42 45 41 38 44 48 68 71 66 46 45 49 48 48 49 48 47 48 51 54 53 53 38 21 25 28 26 27 35 39 40 39 36 32 29 29 29 32 36 35
41 51 46 39 34 33 33 39 44 64 75 59 47 51 54 56 55 53 52 52 52 52 52 52 51 32 23 27 25 24 26 28 30 31 30 29 30 32 36 38 38 38 39
56 56 53 53 43 36 34 30 47 62 78 65 55 61 64 65 69 69 58 48 48 52 55 53 41 26 27 26 20 20 24 26 31 33 31 36 44 47 46 44 42 41 41
62 54 56 59 51 44 36 30 51 62 76 78 75 73 74 75 69 68 66 46 46 50 50 40 29 30 27 19 20 25 28 31 32 32 41 50 52 51 50 47 43 40 36
64 66 63 56 59 61 55 45 52 60 74 80 81 79 80 76 65 54 45 42 45 44 35 26 28 24 20 22 27 29 30 39 46 50 55 54 49 47 45 39 30 24 22
66 66 64 64 63 60 63 47 45 49 63 72 74 77 60 47 42 33 37 34 26 24 26 26 22 22 24 29 35 39 43 54 60 55 48 47 47 41 35 33 33 31 30
64 62 67 72 70 49 52 57 55 42 36 40 45 45 40 30 19 23 18 20 22 27 25 21 25 34 41 46 51 54 54 50 48 47 46 42 44 46 42 38 35 33 33
59 66 67 66 61 56 49 45 46 47 44 37 27 16 13 13 12 10 21 27 29 27 27 38 44 47 50 55 54 52 47 43 41 45 47 42 37 35 36 35 35 34 30
47 65 67 68 64 61 58 50 44 40 36 29 20 16 16 22 31 30 31 30 25 43 52 60 57 54 49 41 39 44 48 44 40 38 37 36 34 30 27 23 16 12 10
42 52 64 66 64 64 60 54 48 41 31 29 40 40 39 37 33 29 26 26 36 49 57 53 45 46 52 51 44 41 38 38 34 27 20 16 14 12 10 10 10 10 9
44 48 65 70 71 62 54 51 47 51 60 58 53 49 44 36 32 43 56 58 54 47 37 54 55 49 43 40 37 33 26 19 16 13 10 8 7 6 5 4 4 4 3
48 51 65 73 69 58 55 56 64 73 71 61 51 57 41 44 71 70 66 55 41 45 46 48 41 38 35 27 20 16 13 10 8 6 5 5 4 4 3 2 2 3 3
57 57 67 71 66 64 66 79 92 86 62 52 63 43 74 82 79 60 44 56 67 55 45 40 33 22 16 13 10 8 7 6 5 5 4 3 2 2 3 4 4 10 33
54 60 74 72 69 83 97 94 93 60 66 77 52 85 88 70 51 48 71 62 50 44 33 21 17 12 10 8 7 6 6 5 4 3 3 4 5 6 10 28 36 39 50
60 73 79 77 95 100 96 94 81 65 65 65 94 89 63 47 68 72 56 48 38 26 21 15 11 8 7 6 6 5 4 3 3 5 6 7 12 40 40 41 40 46 61
74 82 79 91 92 98 98 94 72 67 91 98 85 57 58 80 66 54 46 32 25 20 16 10 8 7 7 5 4 3 4 5 9 18 32 44 44 46 52 49 51 57 65
86 82 74 91 100 91 81 67 81 98 100 84 54 76 80 60 53 40 27 23 19 14 9 7 7 7 5 3 4 10 14 26 57 54 42 72 51 57 60 59 56 59 66
82 78 100 98 97 69 63 94 100 100 74 57 86 75 62 52 34 28 24 18 12 8 7 8 7 5 3 6 19 28 40 40 42 66 51 75 53 70 61 62 59 61 70
93 100 99 79 58 84 100 100 99 60 72 87 68 61 46 33 30 20 10 8 7 6 6 4 4 4 13 38 33 32 32 28 27 26 23 38 52 55 50 46 44 48 64
99 86 66 71 100 99 100 79 61 83 87 64 58 40 33 28 15 9 8 5 5 5 4 4 6 24 37 27 22 23 25 26 31 30 27 22 27 25 22 19 21 28 44
78 72 83 100 100 87 60 77 92 74 62 54 40 34 30 22 12 9 6 5 5 4 4 17 35 27 22 29 28 25 23 23 24 26 25 19 22 20 20 22 16 16 27
82 98 100 85 56 70 84 92 67 62 47 39 36 32 25 16 11 8 5 4 4 7 26 26 20 27 27 25 26 28 28 27 24 23 27 17 19 19 23 26 21 14 25

GFSMA_500_rhum_015.txt.gz
RH
38 37 34 34 32 30 30 30 31 31 32 32 36 42 45 50 55 57 55 50 45 47 45 46 45 44 24 22 29 35 34 31 21 15 18 21 21 20 21 25 29 30 28
38 35 33 33 30 30 30 31 34 34 35 37 48 59 62 65 64 60 56 49 49 46 39 51 50 37 28 23 25 33 34 34 30 23 17 18 19 19 19 19 19 24 30
42 33 32 34 32 32 33 37 38 38 33 38 45 62 68 68 63 59 51 48 44 35 37 45 50 49 54 56 54 40 31 29 32 28 20 18 19 19 22 24 23 23 25
41 40 38 41 32 33 35 36 38 37 35 39 40 58 70 62 48 47 47 48 50 50 50 49 51 53 55 54 53 50 32 30 32 29 21 18 20 23 27 30 28 26 24
46 49 52 44 36 50 43 37 32 28 31 35 40 54 71 57 49 52 54 54 54 52 51 53 53 53 53 54 54 49 32 29 31 28 21 20 22 25 30 33 32 27 26
51 54 53 57 52 53 51 50 47 37 34 30 38 51 71 66 55 60 65 70 72 74 71 58 49 49 51 54 53 39 29 31 30 23 19 21 23 27 30 31 28 27 32
58 63 62 61 61 54 57 52 53 49 41 31 39 55 66 77 72 71 76 77 78 72 66 58 51 46 52 51 41 30 34 31 23 20 20 24 27 30 30 32 34 38 41
41 44 54 63 65 64 66 57 56 56 59 46 47 55 64 72 78 81 77 77 71 57 50 41 43 44 41 33 30 34 30 22 20 22 25 28 32 36 40 44 48 49 48
22 40 44 58 66 70 67 64 65 61 64 61 47 45 48 57 62 63 58 51 45 40 27 32 29 23 22 30 33 28 21 22 30 34 36 40 45 46 47 46 44 41 37
27 28 28 44 58 62 65 71 73 59 49 54 58 57 51 46 45 44 40 23 14 15 17 16 19 27 32 32 26 24 31 36 39 46 51 50 45 37 30 26 26 28 28
33 29 21 27 46 60 63 70 67 67 62 55 48 43 38 35 32 28 18 14 13 15 26 31 32 32 31 30 36 43 47 49 47 40 35 34 35 40 41 40 38 37 36
30 32 27 43 40 58 65 67 64 67 66 57 51 47 42 36 31 27 30 36 38 38 33 33 34 36 40 45 48 46 41 36 38 45 47 42 37 34 32 29 29 27 27
42 42 47 41 46 49 62 59 67 68 60 52 50 47 41 47 51 48 45 42 39 35 45 66 61 55 51 44 40 37 38 39 38 34 31 27 23 19 16 14 13 12 12
47 53 49 50 53 44 53 63 68 62 56 54 54 60 64 63 60 50 45 40 36 40 64 70 58 50 46 48 46 42 37 31 25 18 13 11 10 9 9 9 8 7 7
46 64 61 58 49 58 63 61 66 62 62 66 77 75 77 66 52 47 43 37 39 45 57 52 50 57 52 46 38 29 20 14 12 11 10 10 9 8 8 7 6 4 4
56 69 66 69 69 64 59 65 70 68 72 82 85 86 68 52 56 47 54 73 68 56 42 49 53 46 38 27 19 16 14 12 11 10 9 9 8 6 4 4 3 3 3
63 73 66 75 56 59 62 75 77 75 78 84 84 74 62 60 54 80 82 67 51 56 61 50 40 29 20 17 15 13 11 10 10 10 8 6 4 3 3 3 4 4 5
72 73 72 68 60 60 75 78 76 79 91 83 76 79 58 71 90 88 62 56 75 60 46 33 23 20 17 13 13 12 12 11 10 6 4 3 4 6 6 8 14 24 40
73 76 62 65 66 79 83 78 88 100 100 89 79 63 94 97 89 57 71 74 54 42 28 23 17 13 12 10 11 11 10 6 4 3 6 11 14 22 32 33 35 40 44
73 78 83 75 76 82 86 90 96 100 97 68 74 98 100 84 59 80 68 52 38 29 24 18 15 11 8 9 11 8 4 3 6 22 28 29 32 32 29 36 42 44 46
84 69 97 79 91 97 86 100 100 98 73 96 100 100 73 71 81 61 49 34 30 27 21 14 11 10 9 6 4 3 5 16 32 32 23 24 28 26 23 25 38 41 46
80 80 90 100 89 99 100 100 94 95 98 100 99 68 84 80 57 47 35 34 30 22 13 10 9 6 5 4 4 12 19 16 14 26 20 28 30 30 31 28 26 39 44
76 92 98 81 100 100 96 97 100 100 100 80 77 88 71 56 45 38 36 29 18 12 9 7 7 7 4 9 13 11 11 12 17 18 16 16 23 23 26 26 26 26 31
95 99 100 100 95 94 100 100 100 91 71 86 86 62 55 43 39 38 29 16 11 8 8 7 4 5 12 12 12 15 19 22 26 27 25 21 21 20 20 21 22 21 20
98 98 96 88 96 100 100 84 66 79 87 78 59 54 44 38 39 29 16 11 10 9 7 4 8 13 13 17 22 25 33 38 38 38 40 28 39 40 37 38 25 19 18
90 87 85 87 80 63 59 72 82 91 68 62 54 44 39 35 29 19 15 14 14 8 4 11 13 16 25 29 34 36 40 46 48 42 43 34 51 49 37 71 56 28 17

GFSMA_500_rhum_021.txt.gz
RH
31 29 34 34 36 39 38 36 34 32 30 29 29 30 32 35 36 35 34 38 43 59 63 63 61 60 60 51 50 43 47 54 50 26 23 25 35 39 41 39 33 25 19
36 34 33 34 39 40 39 37 34 33 32 30 28 30 34 38 38 36 38 38 41 61 66 60 56 53 50 47 42 36 47 49 36 21 19 30 39 37 36 36 38 32 26
40 40 41 41 38 38 42 43 40 42 38 33 39 38 38 40 37 31 32 37 40 61 65 51 48 48 48 50 50 52 53 52 50 51 57 56 56 52 47 37 37 36 31
46 48 47 44 40 41 41 44 46 49 47 42 46 45 45 43 44 44 36 33 40 56 68 53 54 56 59 64 67 64 67 62 54 51 60 64 65 61 54 50 37 36 34
46 55 51 47 49 48 48 46 45 46 49 51 53 53 53 54 45 44 51 34 38 53 70 68 59 64 72 73 76 76 76 72 68 68 66 54 52 54 57 50 36 37 35
36 44 54 54 54 53 49 47 49 49 56 60 63 63 61 56 46 50 58 62 54 55 61 69 75 74 73 77 78 74 73 61 58 59 58 54 50 50 54 46 35 35 34
22 32 41 50 54 46 36 36 36 35 37 55 63 66 65 52 60 60 55 61 59 51 46 44 48 53 54 52 49 46 44 43 43 41 37 45 46 45 37 27 32 34 32
20 31 39 40 34 24 23 22 29 31 31 40 54 58 58 59 65 62 57 53 48 46 46 46 44 41 38 35 33 30 23 16 16 18 20 21 20 21 26 33 34 33 29
39 34 38 43 40 31 26 25 30 22 20 26 36 49 54 59 60 60 59 56 52 49 46 42 39 36 33 32 32 32 30 30 30 29 31 34 35 36 35 34 33 30 30
69 57 55 58 58 52 42 36 34 30 24 22 31 38 44 48 48 51 56 52 48 45 42 40 39 39 39 41 41 40 39 38 37 36 36 36 35 35 35 35 34 33 32
68 74 71 66 57 59 60 54 50 45 32 32 36 37 41 42 43 45 47 50 50 45 42 40 38 38 38 40 41 41 40 41 40 39 40 40 41 39 37 34 31 27 24
62 67 63 60 71 68 64 65 62 55 44 48 48 47 46 41 43 33 43 46 47 48 44 43 43 43 44 47 46 44 43 47 52 52 48 43 38 34 31 29 28 26 26
61 61 63 61 69 68 60 68 65 58 53 57 56 64 52 53 48 42 45 45 50 58 66 73 66 59 56 50 50 53 59 58 49 41 36 38 39 38 34 30 26 22 19
43 46 73 65 75 80 68 78 73 66 63 62 64 59 58 66 56 48 46 51 52 55 72 78 78 64 60 71 71 64 53 42 40 44 43 39 32 25 21 19 18 17 15
42 36 60 77 78 79 93 83 76 72 72 70 67 61 72 99 60 53 54 64 66 60 64 82 70 74 77 75 64 50 55 56 50 42 32 25 22 20 19 16 15 15 15
41 45 42 78 78 78 85 83 76 79 70 67 77 74 84 77 56 66 76 84 78 60 59 72 73 70 75 64 55 62 58 48 36 27 24 23 21 19 17 18 17 12 8
33 42 50 74 71 73 73 65 66 72 60 70 84 84 96 64 79 83 89 86 70 76 77 79 63 71 61 59 65 57 44 32 27 27 25 22 19 21 20 13 8 6 4
38 44 61 70 62 66 70 55 55 56 74 98 84 70 70 79 98 95 86 76 82 88 82 74 78 61 68 72 56 43 32 31 29 26 22 22 22 14 9 6 4 4 4
49 59 59 45 51 65 64 44 76 59 93 79 69 80 81 92 95 84 79 93 93 93 91 83 64 80 73 58 44 36 32 32 29 25 25 20 13 8 6 5 7 9 9
63 74 62 51 50 60 41 49 56 98 80 96 96 86 94 87 74 91 97 94 90 96 88 76 88 73 60 47 40 37 37 31 28 27 21 13 8 6 10 12 13 12 13
86 100 60 48 53 42 48 50 98 70 100 96 98 96 82 76 90 94 92 91 100 79 90 94 73 63 52 45 42 41 40 33 30 21 12 9 9 16 17 16 18 21 22
89 96 54 59 43 48 55 96 97 100 100 99 100 99 88 86 84 87 90 72 79 93 89 72 64 54 50 47 47 44 36 30 15 10 9 15 18 18 22 24 35 41 40
99 70 58 43 49 58 61 66 99 98 98 93 85 98 92 79 75 70 75 88 93 80 76 67 57 54 52 53 46 36 19 11 8 9 15 18 19 26 36 46 58 55 59
83 69 60 57 82 75 98 98 96 96 90 97 97 94 64 65 73 86 86 80 74 78 66 62 60 59 57 48 25 14 8 6 12 18 24 19 26 31 30 31 64 82 92
72 68 79 83 99 100 95 97 98 99 95 73 56 54 65 74 74 64 66 65 66 65 63 64 66 66 42 23 14 7 8 13 17 23 38 26 22 15 21 37 62 83 71
98 99 100 99 99 98 99 99 99 73 52 50 53 57 55 53 56 61 59 52 52 60 70 79 72 42 27 12 6 11 15 20 21 24 32 11 15 20 22 47 69 84 79

GFSMA_500_rhum_024.txt.gz
RH
26 27 31 31 29 30 32 33 36 37 34 29 29 29 30 29 29 28 30 30 30 31 34 34 34 56 64 62 60 58 52 46 40 40 54 55 43 20 31 29 31 36 40
22 27 32 35 32 30 31 35 36 37 36 31 34 35 30 34 35 34 34 35 35 32 29 32 35 57 63 53 48 49 50 50 50 52 54 45 31 19 23 26 29 30 27
18 28 33 37 37 37 37 37 37 37 40 42 41 43 40 38 42 43 41 40 38 37 36 32 35 52 62 54 52 50 58 68 67 66 67 60 49 48 68 81 68 59 55
35 31 29 38 42 44 44 41 38 40 42 44 44 45 48 50 52 51 51 52 47 39 43 37 37 49 65 60 58 62 68 74 74 72 74 74 74 73 67 58 56 63 62
38 29 27 23 39 51 51 48 46 45 46 44 45 43 47 54 59 61 59 57 47 45 52 56 49 50 54 66 68 65 65 67 66 66 64 61 64 62 59 63 66 62 52
38 22 29 30 40 50 53 53 52 48 45 33 28 31 39 47 49 54 52 49 54 56 49 53 56 52 47 46 49 54 57 56 54 52 51 49 48 49 52 50 50 50 48
49 37 30 31 39 38 43 47 43 30 21 20 26 27 26 32 40 44 45 50 58 55 50 47 45 43 42 41 40 38 36 35 34 32 32 26 16 16 21 25 30 40 42
74 76 44 29 39 28 34 37 33 24 22 21 28 20 18 24 27 34 40 44 47 46 45 45 48 46 43 40 38 36 35 34 32 32 32 33 33 33 28 24 22 22 24
77 74 63 61 41 36 34 40 43 30 27 24 26 26 23 21 24 30 35 32 34 34 37 42 44 43 41 40 38 36 36 35 35 35 35 37 37 37 37 37 37 37 37
50 62 67 68 76 57 45 53 55 58 51 41 39 40 35 29 29 33 35 38 36 35 28 32 34 33 36 41 40 38 40 42 42 43 42 40 40 39 39 39 39 39 39
37 62 82 93 95 95 85 68 62 66 66 63 53 54 48 39 40 44 45 43 42 44 38 38 38 38 39 43 43 42 43 43 45 44 43 42 42 43 44 43 41 40 38
47 45 57 74 88 91 95 95 87 79 81 76 64 59 52 48 50 54 54 52 51 49 44 43 45 45 46 47 46 48 51 51 52 53 54 53 50 45 38 34 30 28 29
51 63 66 70 75 77 88 90 87 74 72 81 82 75 62 56 63 62 62 57 66 73 50 54 54 51 51 57 59 56 57 54 53 55 55 47 40 38 39 40 39 36 33
32 52 63 73 78 76 71 72 83 74 82 88 86 85 73 64 64 67 60 56 72 95 68 73 71 66 63 62 59 64 66 61 60 59 46 44 46 47 46 41 33 26 24
37 47 52 70 82 78 72 57 69 75 81 83 93 86 76 74 72 70 73 67 98 69 69 86 86 81 64 66 73 77 78 70 65 53 54 58 56 48 38 30 26 26 26
51 74 76 62 77 83 76 68 58 74 73 80 77 93 89 75 65 78 77 92 97 70 66 77 88 80 68 78 84 80 77 68 61 66 67 58 48 40 32 30 32 32 29
42 93 90 92 93 83 72 64 58 66 67 83 74 65 67 99 93 98 89 90 98 73 68 80 75 70 82 85 82 80 76 61 73 72 60 51 41 38 37 35 30 25 19
22 29 71 73 65 55 56 53 51 55 64 67 63 99 62 68 98 98 98 93 84 71 79 65 69 92 89 85 80 76 69 83 74 62 52 47 44 41 33 28 21 15 10
23 20 24 42 64 59 59 42 44 61 65 62 65 49 92 90 98 99 89 96 93 88 78 72 81 84 81 86 72 80 83 74 65 56 52 48 40 35 29 18 12 10 8
32 30 26 23 58 55 46 50 49 52 56 58 57 41 97 99 98 100 100 94 97 96 97 78 75 68 70 80 87 80 67 66 60 57 53 46 42 25 16 13 8 7 9
70 53 44 23 72 59 97 62 68 60 55 62 52 78 99 99 97 100 92 98 99 100 83 74 68 81 92 81 70 65 61 60 58 57 54 42 24 17 10 8 12 17 19
23 24 34 39 81 63 98 81 76 55 68 61 72 100 98 98 100 100 99 100 99 91 82 82 82 70 67 63 58 56 57 55 61 62 48 28 15 8 10 20 25 29 28
30 39 38 46 72 88 74 88 82 85 60 63 99 99 99 100 99 99 99 85 72 77 59 52 46 50 41 44 45 51 59 66 64 46 31 15 8 13 23 28 31 21 14
42 71 57 55 53 55 100 100 87 67 94 96 100 91 99 99 98 95 64 52 45 38 26 24 32 32 40 47 52 55 60 50 34 19 8 8 19 21 25 23 16 16 15
100 71 48 50 74 100 75 89 92 98 99 100 96 98 98 84 54 38 21 12 9 8 11 20 22 20 17 18 24 26 26 20 10 12 34 17 23 23 13 17 18 18 19
88 96 100 100 81 95 100 100 100 100 99 94 87 55 39 21 10 9 7 6 5 5 6 7 8 8 7 6 7 8 9 9 22 24 34 16 23 11 16 31 43 50 57

GFSMA_500_rhum_027.txt.gz
RH
23 20 26 17 16 21 26 28 29 29 31 32 32 29 26 25 27 27 28 30 33 34 33 30 31 31 28 28 33 52 60 58 54 48 43 40 40 49 54 42 23 32 34
15 15 16 14 19 18 20 29 30 29 32 34 34 33 32 33 35 35 36 37 40 41 40 39 40 37 35 32 36 52 59 52 50 49 52 56 57 56 54 44 28 20 22
30 16 15 14 22 22 21 26 31 32 36 37 35 35 38 41 42 42 42 44 50 50 53 52 49 42 39 37 39 54 60 57 55 58 62 66 63 62 64 70 65 62 76
34 15 13 22 32 21 22 28 31 35 40 40 39 42 43 43 42 39 34 42 52 55 46 44 38 48 51 51 44 49 62 63 61 61 63 64 64 64 62 61 64 68 67
71 48 25 30 32 24 24 22 30 37 45 44 43 42 40 31 24 25 27 31 29 30 36 44 50 49 44 48 51 50 47 49 57 65 67 66 64 62 62 60 59 57 55
71 70 52 44 33 23 27 24 22 31 39 40 40 37 19 20 22 19 20 22 24 26 32 40 41 44 46 45 43 42 41 40 39 39 38 37 36 36 37 41 39 34 39
51 63 62 72 62 30 29 26 24 27 28 31 24 18 17 26 22 16 15 20 25 27 25 25 30 29 30 34 37 38 38 38 37 36 34 34 33 32 32 32 32 31 28
45 71 82 81 75 68 42 40 46 26 29 31 26 20 22 22 27 24 22 22 24 27 30 32 31 31 28 30 31 28 24 26 30 32 32 30 29 30 32 32 33 33 34
40 55 76 87 91 87 78 71 39 31 36 36 42 37 33 32 33 33 34 32 30 32 33 37 36 39 37 36 36 36 34 32 32 32 32 31 29 26 25 26 28 30 34
22 30 37 57 74 96 84 82 74 57 45 45 50 60 54 51 51 50 48 46 41 40 43 44 43 44 42 40 39 42 40 40 40 39 33 32 32 32 31 31 32 34 35
32 37 42 38 44 64 87 90 94 98 94 70 64 73 78 79 72 62 55 51 46 46 51 52 50 51 52 43 41 43 45 46 46 45 42 41 39 37 36 39 39 39 38
20 25 39 52 52 58 77 95 94 97 97 96 97 96 91 79 78 72 68 63 54 56 57 59 56 57 72 62 46 48 50 51 50 47 39 39 36 43 46 44 41 38 38
25 28 42 53 64 64 66 84 79 82 97 91 94 96 93 82 77 77 78 80 66 61 65 65 64 62 69 71 50 48 54 52 39 40 41 37 38 43 45 44 40 42 40
24 48 42 48 60 66 66 75 85 86 90 95 92 79 84 74 98 80 84 91 81 70 67 73 66 67 83 69 56 55 53 40 41 45 51 51 44 39 44 42 45 42 40
17 18 46 51 54 71 82 84 97 100 99 93 89 72 74 82 80 89 92 98 88 96 78 81 71 84 92 79 65 59 53 50 54 57 55 52 51 46 45 44 47 48 50
24 23 24 49 61 66 71 85 92 95 97 90 86 75 69 75 78 80 88 82 80 95 99 100 95 87 94 84 71 59 62 62 62 64 56 52 53 50 51 54 55 48 44
40 34 31 31 83 85 79 72 76 96 92 88 84 79 65 65 68 86 77 97 96 100 96 99 98 98 96 97 93 80 82 69 62 61 58 54 61 64 61 52 48 47 46
77 57 44 35 35 44 78 93 97 94 98 86 74 65 61 70 96 97 80 87 70 80 100 100 99 98 98 99 94 97 95 75 64 62 72 69 59 55 53 52 49 47 42
99 78 61 50 39 37 42 75 98 88 94 70 60 54 96 58 82 93 84 72 100 98 98 98 94 100 99 100 97 95 80 76 78 74 61 52 55 61 55 48 47 47 42
100 100 68 52 45 42 52 48 53 72 77 72 66 64 56 76 81 100 95 90 94 98 99 99 99 100 100 100 85 60 62 62 58 71 63 55 62 62 61 54 57 51 40
100 100 89 53 40 34 30 27 28 31 46 87 98 97 63 98 100 100 76 93 93 100 99 99 99 100 100 96 52 32 26 21 36 55 51 62 61 64 65 51 32 23 18
95 95 96 88 75 50 40 36 40 32 82 99 98 93 73 76 96 92 94 99 100 100 99 96 98 78 22 17 9 9 8 11 21 45 38 49 48 31 22 20 17 10 12
66 40 34 40 53 62 62 70 59 44 81 95 98 92 92 97 96 95 99 100 100 100 96 66 14 7 8 6 6 5 6 7 8 10 9 9 9 9 10 11 18 24 20
52 36 34 47 63 40 78 52 49 49 66 89 89 100 100 100 99 100 99 97 64 23 13 13 11 9 6 5 4 5 6 8 9 7 5 4 6 10 17 37 40 29 18
33 29 95 89 100 75 98 80 72 97 92 81 100 100 100 94 81 43 16 9 8 6 4 4 4 4 4 5 6 6 5 4 3 4 7 7 26 32 34 51 30 17 28
99 100 100 100 98 100 100 86 81 97 99 98 97 76 33 14 11 11 8 4 3 3 3 4 6 6 5 4 3 3 4 6 9 26 25 25 40 37 38 94 84 71 54

GFSMA_500_rhum_030.txt.gz
RH
18 20 24 14 13 17 12 12 15 21 26 27 28 28 28 28 28 26 30 32 32 33 35 38 42 40 40 42 42 38 34 34 46 55 55 52 50 46 46 46 48 51 43
40 33 22 20 12 10 9 13 16 19 24 25 26 28 30 32 33 34 36 38 37 36 37 40 41 42 42 39 38 37 37 35 42 56 56 53 50 54 59 60 57 59 57
28 41 37 29 22 13 13 16 21 18 21 21 24 29 33 35 36 38 42 41 33 27 27 29 27 27 32 36 41 42 48 44 40 47 56 58 60 63 63 64 65 66 64
46 38 39 39 31 14 12 23 28 18 19 21 26 32 34 39 42 42 38 22 18 18 19 20 23 29 34 42 45 41 42 48 50 47 48 53 56 59 62 63 62 59 56
44 59 51 58 69 39 20 27 30 23 21 18 26 32 36 39 38 33 19 19 17 18 19 20 20 20 22 26 30 34 37 38 39 39 40 40 41 42 41 41 40 41 45
40 52 65 61 65 68 50 37 33 23 26 23 24 27 33 34 30 17 21 18 15 15 19 22 23 23 23 24 24 24 26 28 28 31 35 37 36 35 35 34 33 32 32
38 55 49 66 74 79 64 61 64 28 28 25 23 28 27 28 20 16 22 25 22 20 21 20 21 23 27 29 29 30 29 30 31 28 25 23 25 27 29 29 26 27 29
27 41 43 48 61 68 73 70 78 70 41 37 44 29 28 30 25 21 22 23 25 27 30 31 29 28 30 33 34 35 33 28 30 33 33 33 31 30 28 26 23 21 20
17 24 42 48 40 63 80 93 91 90 74 61 41 32 32 35 40 40 40 43 43 43 43 43 42 38 37 38 39 40 38 34 31 33 36 38 38 36 33 30 26 24 23
14 17 49 41 37 43 64 83 98 100 96 85 76 65 45 40 44 55 56 56 62 61 57 53 47 46 46 47 48 47 46 44 42 39 39 41 41 42 41 39 33 31 29
17 17 34 63 48 50 54 54 76 96 99 92 85 86 88 89 86 65 76 93 86 76 70 65 64 60 54 53 54 59 54 51 59 53 44 46 47 43 33 27 26 30 28
20 20 22 52 56 44 49 61 56 58 62 68 90 99 96 97 98 96 96 96 94 93 84 83 84 78 64 58 64 60 59 56 63 66 51 52 51 37 30 32 31 26 26
14 19 27 26 35 52 56 57 64 69 75 80 93 100 96 96 97 96 97 93 80 96 89 94 93 96 80 63 64 69 58 61 64 64 52 50 36 36 41 38 32 30 31
18 17 18 24 32 34 52 60 64 74 88 87 100 100 90 98 99 98 96 93 72 77 89 72 88 98 81 83 84 85 75 60 63 64 66 48 36 46 48 47 44 39 36
28 39 28 20 22 34 56 60 64 82 95 93 92 93 92 91 98 100 97 94 79 64 72 68 83 90 79 75 79 92 94 75 64 64 74 56 50 52 57 63 54 47 41
22 27 50 57 31 29 33 59 74 77 84 98 94 91 98 98 99 99 95 87 74 70 83 82 90 86 96 94 80 98 97 85 74 78 84 77 74 73 72 69 62 53 43
33 33 40 51 76 50 36 36 41 70 79 84 86 76 96 97 97 94 87 82 80 78 92 95 91 91 99 73 93 88 98 96 91 96 100 96 92 84 70 54 41 38 40
43 34 53 61 86 98 72 56 47 44 71 77 77 74 96 98 96 89 94 84 98 98 86 100 96 98 83 87 84 96 98 98 98 98 97 94 91 82 53 38 27 22 26
100 98 88 86 95 94 100 78 70 64 58 73 78 78 92 95 99 97 83 74 75 97 71 99 100 99 96 71 90 98 99 99 98 99 98 92 73 27 16 13 13 19 24
100 77 82 69 93 100 96 99 76 60 56 52 55 61 91 100 82 73 63 76 83 94 94 98 97 99 85 76 93 99 100 100 99 94 69 58 33 11 9 7 10 14 18
72 43 57 98 100 100 99 98 85 62 53 51 47 48 58 63 58 50 95 99 94 96 94 99 97 81 88 94 96 98 92 73 26 11 7 6 6 6 6 6 8 9 9
87 99 97 89 98 100 62 54 64 56 53 41 35 36 32 29 82 100 100 88 99 100 99 95 100 100 99 78 38 15 6 4 4 4 4 4 6 7 7 7 6 4 4
86 96 98 100 100 96 90 78 63 50 43 60 100 43 45 34 46 58 98 99 86 95 88 46 26 17 8 4 3 3 3 4 4 5 5 6 5 4 4 4 6 9 12
58 79 53 48 48 49 37 51 55 55 65 87 72 57 54 52 77 98 100 95 52 39 31 9 6 3 3 3 3 4 6 6 6 5 4 3 4 6 13 33 40 36 25
37 41 47 38 81 90 97 97 97 71 92 99 99 91 94 97 100 76 50 21 12 8 4 4 4 4 5 6 7 6 5 5 4 4 5 13 22 22 31 41 47 58 42
94 98 99 100 100 98 100 100 100 100 100 100 100 99 65 37 21 19 12 8 6 4 3 4 6 8 9 9 8 6 6 9 13 18 16 23 25 25 44 66 79 70 64

GFSMA_500_rhum_033.txt.gz
RH
16 12 22 24 18 18 15 11 12 11 10 12 13 17 22 25 27 24 28 28 29 30 34 35 34 28 23 23 24 22 25 30 35 36 34 37 50 54 51 50 51 51 50
40 39 23 27 38 37 23 22 13 12 10 16 16 15 20 25 27 27 31 32 33 34 36 30 20 16 19 23 27 26 29 33 36 40 40 38 44 55 57 56 60 62 62
36 42 40 35 27 37 35 28 22 13 13 20 21 17 18 21 26 28 32 35 37 33 26 13 14 18 20 20 20 21 25 31 34 36 42 47 46 45 52 59 62 64 63
29 41 50 53 52 44 41 44 38 15 12 22 28 17 18 24 29 33 33 38 36 25 15 15 15 16 16 16 17 18 18 19 21 23 26 31 34 37 41 44 44 47 51
27 32 44 45 50 56 55 52 58 62 36 24 27 21 21 19 27 35 38 34 28 16 16 16 17 19 20 20 21 22 22 21 20 19 22 23 22 24 30 34 35 35 34
16 15 21 34 49 47 53 68 66 67 68 48 39 26 25 21 25 34 34 33 22 17 19 15 14 16 19 19 21 25 27 27 26 22 21 23 26 26 24 22 21 22 25
14 16 13 13 17 23 47 60 68 75 83 76 63 50 27 23 23 30 32 31 19 16 21 23 23 24 26 27 27 27 31 33 33 31 28 24 24 25 30 32 30 29 28
13 14 16 14 18 18 30 46 51 53 62 79 77 75 64 40 37 41 30 31 27 21 20 22 26 31 36 37 39 39 35 37 38 36 34 34 31 29 28 31 34 34 33
10 10 10 12 12 14 16 38 48 60 61 64 86 89 85 73 51 42 32 32 34 38 37 44 45 49 54 53 50 46 47 44 45 48 44 41 39 39 37 33 34 37 35
14 14 13 16 28 36 47 66 68 87 90 78 84 97 96 91 86 76 65 45 68 62 54 56 60 71 69 67 63 65 64 56 52 50 52 50 45 48 50 42 41 39 39
12 15 16 15 17 19 39 58 75 86 89 76 88 99 97 97 96 93 86 85 91 96 93 92 96 91 88 77 75 75 75 70 55 55 58 48 46 48 58 52 40 40 39
9 12 16 19 22 26 28 31 55 79 97 94 84 90 98 100 90 72 86 100 97 96 97 96 97 93 93 80 62 69 91 86 67 75 66 74 76 64 56 64 47 41 34
21 21 19 16 14 15 21 31 36 42 62 95 94 94 87 88 88 97 96 88 96 94 100 98 96 93 82 84 62 66 67 81 84 78 83 92 83 72 59 59 54 49 34
14 16 21 29 36 33 22 19 21 33 45 51 76 98 98 97 96 95 98 97 87 87 93 100 99 96 89 89 92 97 89 100 81 84 71 73 94 93 81 69 63 63 54
16 20 19 16 20 24 42 53 38 30 40 46 55 70 89 96 98 95 99 97 78 89 97 100 96 94 80 96 78 89 79 93 78 87 80 67 81 86 89 82 69 72 68
20 24 32 36 34 26 33 53 63 62 63 51 55 74 80 93 99 96 95 89 98 96 97 93 86 99 87 81 99 82 97 92 77 82 62 63 80 83 80 95 84 79 71
20 26 35 40 56 54 54 50 49 63 81 74 72 80 88 100 100 95 94 82 96 98 93 97 98 96 85 91 98 97 90 75 91 76 77 71 72 71 74 96 95 94 90
22 39 52 82 100 100 77 51 54 70 71 84 83 84 76 67 84 90 77 96 77 97 96 98 99 73 50 66 77 60 64 87 98 95 84 69 59 54 75 83 85 89 100
23 43 92 98 100 100 100 100 98 85 83 99 95 96 88 76 73 71 68 76 99 95 99 99 97 70 71 85 88 98 89 99 90 78 76 75 80 88 99 99 96 84 69
16 42 79 100 100 100 99 97 98 98 98 100 100 100 97 88 94 93 99 84 99 96 80 70 47 49 98 95 97 93 98 94 82 80 70 60 51 25 17 14 8 4 3
20 27 54 71 74 69 78 82 90 82 90 100 100 100 94 82 71 54 58 51 50 48 48 88 100 100 98 100 90 75 60 33 11 5 5 4 4 3 3 3 4 4 4
24 34 57 75 89 91 91 100 99 100 100 100 100 99 88 67 54 49 46 44 33 29 34 62 73 85 75 55 53 56 31 14 6 4 3 3 4 4 4 5 5 5 5
33 42 50 68 82 80 93 99 100 100 99 97 99 94 83 63 53 45 42 49 48 50 54 60 81 76 56 28 8 4 4 4 4 6 5 7 6 6 5 4 4 5 6
38 44 51 40 70 87 89 91 89 86 74 57 47 45 85 100 100 88 69 78 86 89 78 43 30 19 8 5 4 4 5 8 10 10 10 7 6 8 14 16 16 17 18
53 52 66 82 94 96 98 96 76 71 85 65 66 92 100 100 95 74 46 29 18 13 15 9 8 7 6 5 6 10 12 15 16 16 14 10 11 12 18 21 20 24 36
58 67 66 84 96 80 90 100 100 100 100 98 100 100 97 67 44 31 18 18 15 12 10 8 6 4 6 9 13 16 18 21 22 21 19 19 17 16 21 27 24 32 44

GFSMA_500_rhum_036.txt.gz
RH
6 8 18 37 21 22 31 33 24 19 17 10 9 9 12 14 11 21 22 24 23 27 27 29 28 25 20 12 15 16 16 16 17 21 24 32 34 34 34 42 54 55 53
8 9 13 33 41 41 30 26 34 35 27 24 13 11 15 20 15 12 19 18 24 29 33 30 26 18 12 14 15 12 12 12 16 20 27 30 34 37 40 40 41 50 57
7 10 14 20 31 41 46 48 47 39 39 38 30 12 11 22 20 13 17 17 18 27 32 32 24 13 13 14 14 13 13 12 12 12 15 18 22 26 29 37 42 43 44
9 9 11 16 21 28 38 46 51 56 52 51 54 56 26 22 28 20 17 23 24 30 33 29 20 15 14 14 16 17 18 18 17 16 15 14 16 18 19 19 24 30 32
18 12 11 11 14 15 17 32 42 48 46 56 61 62 72 52 33 29 21 18 27 34 31 26 17 17 16 17 17 17 17 19 21 22 22 20 18 18 17 20 23 22 20
9 16 22 20 13 19 17 16 11 19 25 38 56 69 75 77 66 50 28 24 20 28 34 25 16 19 16 15 18 22 24 24 25 25 26 26 25 24 24 22 21 23 26
20 20 33 41 25 27 29 27 16 14 19 26 45 54 54 63 74 73 64 34 26 22 29 34 19 17 21 22 23 24 28 32 34 36 33 34 33 32 33 31 28 26 25
18 24 23 28 35 30 25 29 27 26 19 28 39 45 48 53 64 81 80 74 45 40 32 33 32 28 21 23 30 38 47 47 48 46 44 43 41 42 44 43 39 36 35
12 23 23 30 34 42 29 33 43 55 58 73 75 65 60 72 82 84 93 91 84 57 44 34 36 39 46 46 51 51 59 62 59 57 59 57 53 51 50 53 51 48 50
10 10 15 24 32 31 22 22 34 44 56 61 73 85 84 83 92 90 94 98 96 93 87 92 79 81 86 94 77 77 89 81 73 71 76 76 71 58 54 54 51 53 55
12 11 11 10 12 21 26 26 27 28 53 64 69 72 79 93 97 96 93 100 97 97 96 98 91 95 98 96 98 100 97 95 93 88 82 77 81 74 66 56 56 70 71
8 8 13 17 15 14 18 18 19 25 36 42 54 78 78 80 91 95 98 99 97 99 96 75 84 98 97 95 94 97 98 97 97 83 77 63 52 68 73 60 59 58 60
11 13 13 16 19 21 21 25 30 32 34 38 38 39 52 75 77 94 98 97 97 96 96 92 88 90 97 94 96 98 96 95 96 98 88 78 71 84 68 61 59 58 52
10 9 9 10 12 16 17 18 18 20 33 33 46 56 44 63 72 83 86 99 97 96 91 94 94 96 95 98 97 98 100 98 96 97 94 83 70 81 90 64 66 66 61
10 15 20 18 18 21 24 29 28 26 24 29 40 69 66 56 71 77 86 90 90 74 97 81 87 83 96 96 98 98 98 100 94 99 100 93 75 65 66 73 65 67 54
15 23 24 20 19 17 24 38 55 81 82 80 71 64 96 91 76 76 83 88 78 74 92 84 79 96 97 100 98 99 99 97 96 82 84 86 90 78 55 52 70 67 70
21 23 20 16 10 12 14 24 64 80 99 100 100 95 88 92 100 94 81 89 91 64 98 96 96 97 98 96 98 99 98 95 82 63 69 79 75 74 85 80 77 66 60
24 19 15 12 10 12 20 75 100 88 100 100 94 100 100 100 100 100 90 90 78 99 99 93 99 98 99 96 98 99 97 77 49 87 82 76 74 67 71 71 70 63 59
22 18 20 14 14 24 37 59 99 100 92 100 100 100 99 100 100 100 95 88 82 68 95 97 98 99 97 97 86 62 56 76 99 95 86 91 84 68 67 43 26 16 8
22 26 19 20 22 24 35 59 72 97 94 93 100 100 100 98 100 95 100 98 95 80 81 75 98 97 71 55 45 44 82 68 62 64 61 54 29 25 24 18 17 14 7
27 27 23 26 31 38 32 44 60 61 70 100 100 99 98 100 96 87 79 100 93 82 90 87 64 49 41 35 44 56 52 47 38 28 17 5 4 4 4 4 4 4 4
31 27 32 26 29 41 51 48 59 72 78 90 100 100 100 98 90 88 90 96 93 89 60 49 38 42 57 68 77 40 37 25 9 7 6 4 4 5 5 5 6 7 7
36 34 35 40 38 39 48 56 58 62 73 91 98 100 96 100 100 98 95 86 66 65 70 70 70 64 50 48 15 11 9 7 5 5 5 7 7 11 11 12 12 10 9
35 40 39 47 49 50 54 58 66 67 69 85 96 99 100 98 99 99 100 99 95 85 75 61 46 24 13 10 8 6 5 5 6 8 8 15 14 15 16 18 17 13 11
32 44 46 49 53 53 62 66 70 77 76 84 100 74 69 82 48 33 28 44 45 27 20 18 17 12 8 8 7 6 6 8 14 16 16 15 16 17 22 27 25 22 21
29 31 33 35 42 53 76 89 92 86 89 82 86 81 76 33 14 15 16 18 22 22 21 16 12 10 8 7 7 6 11 16 18 19 17 20 22 19 24 36 34 32 31

GFSMA_500_rhum_039.txt.gz
RH
5 5 5 6 8 13 31 36 29 24 24 38 37 27 22 11 11 13 18 16 12 14 14 16 23 28 26 27 17 12 13 10 9 9 9 13 16 21 27 30 32 35 42
5 5 5 6 8 11 22 36 40 43 43 37 34 36 36 31 18 10 20 23 16 15 15 16 19 26 25 22 12 14 13 10 10 9 7 10 13 17 24 28 34 38 40
6 7 8 7 8 10 13 16 25 32 43 49 51 50 44 44 50 46 22 26 24 18 18 18 20 25 24 17 13 14 13 13 14 12 12 12 12 13 14 17 19 22 26
10 9 11 13 16 13 11 12 13 14 20 31 47 43 46 50 49 55 70 52 32 25 22 20 21 27 25 19 15 14 14 16 17 17 18 18 18 16 16 16 18 22 20
12 11 19 14 9 11 19 21 16 12 15 13 11 12 30 36 42 53 70 76 69 45 28 24 20 24 27 22 16 16 18 18 17 18 19 21 22 24 23 22 22 20 20
24 26 18 20 29 29 26 28 28 27 27 26 21 17 14 22 25 48 59 72 84 78 58 34 24 22 29 27 19 17 15 15 21 25 27 28 29 29 29 30 28 27 26
25 20 44 42 38 42 39 39 36 48 43 44 32 27 24 22 24 38 50 56 65 87 86 68 40 30 28 32 24 20 24 26 25 28 32 34 39 38 35 35 36 37 37
13 18 21 30 35 43 46 48 55 65 76 73 67 62 42 39 60 77 61 61 64 68 93 94 78 50 41 35 37 36 29 24 29 38 44 48 50 46 44 42 40 42 43
6 7 10 19 28 33 34 52 59 65 66 65 58 66 73 68 70 78 78 83 87 91 87 92 98 92 70 46 37 43 59 85 51 76 59 61 64 60 60 64 58 52 47
15 15 14 13 14 21 32 31 28 36 46 54 64 68 77 80 78 72 87 88 92 90 96 95 91 98 96 80 55 94 93 96 97 94 85 85 87 75 77 78 81 75 58
15 14 13 12 10 8 9 15 24 28 37 44 44 48 55 66 73 75 83 100 98 93 98 97 92 87 98 98 97 96 99 96 100 100 100 100 96 96 86 79 74 68 69
14 11 9 9 16 15 13 14 17 19 25 33 40 52 58 70 69 74 67 80 96 99 97 95 96 98 88 99 100 92 96 96 97 97 96 97 99 98 94 77 63 63 66
8 9 11 12 11 10 9 13 17 18 22 24 28 34 48 62 100 80 67 59 65 82 91 78 97 96 95 97 100 100 98 97 96 97 99 98 98 97 95 86 80 71 65
8 7 10 9 11 13 15 25 26 20 17 19 24 32 44 75 97 85 93 84 79 70 74 87 94 84 96 90 88 90 96 98 96 96 97 97 98 98 95 79 79 62 60
7 10 8 10 17 23 20 15 14 11 9 8 11 22 46 69 77 94 100 100 94 79 64 65 76 92 99 94 98 99 94 95 97 98 99 98 99 97 96 97 65 72 65
8 8 15 19 22 16 14 16 14 10 10 16 18 24 54 83 100 100 100 100 99 90 77 70 69 89 98 98 99 99 98 96 97 99 99 98 97 97 96 91 56 63 65
11 14 16 16 16 16 19 15 12 10 18 22 34 78 91 71 87 97 100 100 99 92 80 70 71 84 88 98 100 98 95 97 98 98 98 97 93 90 88 72 61 74 61
13 15 15 18 21 21 19 15 14 15 23 27 40 76 81 70 100 100 100 93 100 100 100 100 92 98 100 100 97 97 97 99 99 97 96 94 92 81 72 63 55 57 54
16 19 18 22 25 24 20 18 16 16 23 31 37 61 70 74 85 100 100 100 100 100 99 90 92 100 99 98 93 97 98 97 90 91 68 46 42 48 52 51 50 43 39
18 21 22 26 28 27 24 21 17 19 21 39 41 54 74 86 83 100 96 99 100 100 100 100 100 100 99 99 98 98 97 87 60 55 59 60 45 29 24 24 16 8 7
18 23 26 29 32 33 32 26 24 24 26 35 51 64 62 69 80 90 90 93 96 94 97 100 98 97 96 97 98 92 77 59 38 44 30 16 10 7 7 5 5 4 4
16 16 18 27 31 36 36 33 30 30 30 35 50 57 75 84 100 80 91 90 82 78 77 76 87 94 79 60 64 47 33 13 8 10 8 7 8 5 5 4 4 5 6
17 21 22 22 34 36 34 35 36 39 38 40 50 66 88 94 90 88 81 75 90 90 100 89 81 91 82 53 24 11 12 10 8 8 8 6 6 5 6 9 11 13 13
24 23 22 26 26 33 36 34 42 47 49 51 56 69 63 68 79 84 63 67 43 58 56 40 30 22 21 18 16 12 11 11 10 9 7 6 7 9 13 16 16 16 16
23 24 25 24 26 26 26 27 31 34 41 34 52 50 56 56 36 17 20 18 17 18 20 22 23 23 24 22 18 15 17 16 13 11 9 9 12 16 19 23 23 22 20
26 25 26 27 26 28 30 28 26 26 26 26 26 25 24 20 17 18 18 19 20 23 23 23 26 25 21 17 15 14 16 18 16 13 12 12 14 15 19 30 31 29 25

GFSMA_500_rhum_042.txt.gz
RH
7 7 5 4 4 4 4 6 8 14 31 34 35 34 29 27 32 35 31 18 12 18 23 16 15 15 17 22 26 26 19 11 12 9 9 9 10 11 13 16 19 25 30
9 8 5 5 5 6 6 6 7 8 12 17 27 31 36 45 48 47 48 52 47 22 22 26 20 19 18 23 26 27 21 13 15 11 11 10 9 9 11 13 16 20 28
7 6 6 10 11 10 11 13 14 12 11 12 12 12 13 21 39 43 47 60 61 61 61 35 30 24 21 22 27 28 24 15 16 14 14 13 14 12 12 12 13 14 16
8 8 12 14 10 14 18 13 10 12 18 21 19 15 13 12 13 16 36 50 50 68 70 69 54 35 27 22 24 30 26 18 17 17 17 18 18 18 18 17 16 16 16
9 20 25 22 23 24 20 21 28 33 30 31 33 32 30 26 24 21 18 17 30 51 76 81 83 68 46 29 26 29 28 23 19 20 21 21 20 21 22 22 23 23 21
37 38 35 34 34 25 24 34 38 42 44 46 41 40 50 43 38 37 28 29 30 32 49 71 80 93 85 52 34 34 34 30 20 19 20 21 23 24 25 26 26 26 27
30 40 32 18 14 21 28 32 52 50 64 68 77 78 68 69 73 66 62 52 43 45 45 54 63 70 89 90 68 42 36 36 28 22 24 23 24 26 30 27 31 34 31
8 8 9 10 8 8 10 15 31 40 44 59 66 81 64 62 76 69 62 61 79 78 79 90 78 72 77 82 94 88 56 45 39 36 28 26 33 30 36 41 40 45 39
9 8 7 6 8 13 14 14 14 27 36 49 46 48 42 46 52 64 69 77 74 79 86 88 94 94 92 95 89 99 98 90 66 47 51 62 75 81 52 58 60 59 55
9 7 7 9 12 15 15 14 12 10 15 23 41 49 53 49 52 57 62 68 67 76 86 96 94 96 100 99 98 98 98 96 99 93 54 88 96 98 97 89 85 80 78
8 10 14 16 17 16 12 9 9 12 14 12 22 28 33 34 36 64 43 47 68 78 78 77 89 100 100 92 100 97 87 94 92 98 98 96 98 97 98 99 93 92 93
12 17 18 15 11 9 10 10 8 9 8 8 10 15 21 27 24 33 41 46 97 98 84 96 81 80 96 99 95 97 98 98 94 96 97 96 98 97 97 98 97 98 100
16 19 12 9 11 13 11 10 10 12 17 18 19 15 14 13 11 11 18 43 83 93 65 98 96 74 67 98 96 100 98 97 98 98 99 97 97 96 97 98 98 98 96
19 13 10 11 8 9 12 10 11 19 19 14 15 14 12 11 11 16 17 19 41 83 98 97 100 92 76 70 67 99 98 98 97 98 98 100 98 99 95 98 99 98 97
10 10 8 7 8 8 9 16 19 18 17 16 15 15 11 11 16 13 18 34 47 47 58 98 100 100 91 75 75 99 96 98 99 96 98 98 98 97 99 98 98 98 98
10 7 8 7 9 12 13 15 17 16 17 17 14 13 11 16 18 20 26 53 72 65 76 89 92 92 95 82 87 100 98 98 97 98 98 98 99 96 98 99 99 98 98
8 9 10 14 14 15 18 19 19 21 21 18 16 11 10 18 26 30 46 59 82 72 82 99 98 100 98 77 88 94 99 99 99 94 96 98 99 99 98 99 98 95 93
10 8 12 15 16 17 20 19 22 24 24 23 15 12 10 13 32 41 53 61 62 67 90 100 100 100 98 95 87 100 95 100 100 96 98 98 91 86 68 89 94 96 90
12 13 15 18 16 19 22 22 27 30 30 23 18 16 11 16 31 48 58 68 60 79 79 86 99 100 100 100 99 100 99 98 99 95 84 97 93 74 54 57 61 62 50
16 19 20 18 17 16 14 18 29 35 33 24 22 19 15 18 35 57 70 61 63 70 69 80 68 97 100 100 100 79 82 83 94 98 92 88 78 48 34 36 24 17 13
22 23 20 16 14 13 15 19 27 35 33 29 28 25 23 24 44 50 62 75 77 89 89 93 58 69 98 97 84 70 80 85 77 75 49 52 58 14 8 9 9 9 9
24 21 18 16 16 19 19 20 29 34 34 33 32 35 33 32 44 59 70 77 73 77 83 68 66 71 75 79 80 90 90 90 64 22 9 10 8 8 10 9 8 8 8
24 23 22 21 21 20 21 24 28 26 24 33 37 38 41 40 45 48 53 60 60 59 71 78 80 80 71 59 52 34 21 17 14 14 15 16 17 16 16 15 15 12 9
29 28 24 23 23 23 24 24 24 23 22 20 19 19 20 25 28 30 26 22 19 20 20 21 22 23 22 23 23 24 23 22 20 18 17 16 15 17 18 18 15 13 12
33 28 27 28 25 24 25 24 23 22 20 20 22 23 24 26 27 29 31 32 32 34 34 34 34 34 33 31 32 36 37 27 19 18 13 12 13 14 15 15 17 17 18
37 31 30 29 26 24 23 23 23 24 25 26 28 30 32 35 38 40 40 41 41 41 41 42 43 43 43 45 46 45 44 42 40 36 32 25 16 13 14 19 22 24 25

GFSMA_500_rhum_045.txt.gz
RH
8 6 5 7 8 5 5 6 8 8 8 7 7 8 10 14 24 30 38 48 47 43 44 50 36 21 24 20 17 21 22 25 28 21 12 12 9 10 10 12 13 14 17
6 6 6 8 7 5 6 8 8 8 10 11 11 10 11 12 13 16 18 28 44 47 46 52 57 62 50 31 24 20 22 28 29 26 16 16 12 11 11 12 12 13 14
7 6 8 9 6 7 10 12 11 16 17 15 16 18 19 21 22 20 17 16 18 20 29 50 54 65 70 61 39 28 24 26 34 33 19 17 16 14 13 13 13 13 14
9 13 11 7 8 19 22 22 25 27 26 29 32 32 33 31 30 32 35 33 33 32 31 23 23 41 72 83 74 46 33 34 37 36 28 20 19 17 17 18 18 17 15
9 8 9 19 32 37 36 36 38 31 24 31 35 41 50 46 46 52 57 69 65 61 58 51 41 30 33 64 90 92 64 38 38 38 36 23 20 20 20 22 24 24 24
12 19 44 55 46 41 37 18 13 18 22 23 41 50 60 74 72 77 83 88 89 88 82 70 66 63 48 38 53 73 83 83 51 35 36 33 22 22 24 25 23 21 24
22 39 40 22 17 11 9 11 8 7 11 22 34 36 31 47 58 70 68 75 82 71 74 91 87 95 94 86 73 61 69 83 90 65 41 38 38 25 24 23 25 26 28
14 10 12 11 11 10 9 8 8 11 14 15 28 27 33 42 44 45 46 47 59 66 66 76 88 94 92 95 97 93 80 77 89 97 86 55 47 43 32 29 31 36 35
12 10 12 15 14 11 8 8 12 15 16 15 12 10 11 15 24 28 33 43 44 42 46 69 76 78 78 84 94 96 99 98 95 90 95 99 94 85 66 45 36 59 88
11 17 17 15 12 9 8 12 17 18 14 10 9 12 13 10 8 15 18 18 22 35 41 96 61 54 62 74 87 89 99 96 92 92 87 91 97 97 99 89 68 94 97
16 15 13 11 9 8 10 14 19 13 10 10 10 11 10 12 15 17 11 10 12 13 14 38 39 58 74 100 96 87 92 94 99 89 98 90 92 94 88 96 97 98 98
17 14 12 9 9 13 16 18 15 12 9 7 9 9 11 16 14 11 12 12 11 11 11 12 16 76 95 100 98 91 96 88 96 99 98 98 98 97 98 94 97 94 95
16 12 9 11 17 19 16 13 10 8 8 9 10 12 11 13 14 15 14 13 10 8 10 16 22 26 67 91 100 93 77 89 98 100 100 98 97 98 98 99 98 98 96
12 9 10 16 18 15 11 10 8 9 8 12 12 14 16 19 18 16 13 10 8 9 13 23 29 23 24 36 91 91 100 97 100 98 97 100 98 98 98 97 97 91 96
9 10 17 18 13 11 9 9 10 13 14 14 15 18 22 21 20 14 10 11 15 12 15 26 35 37 55 53 53 100 100 100 100 99 100 94 97 94 92 95 92 96 97
12 18 18 12 11 8 10 11 14 14 16 18 19 24 25 25 21 15 11 15 17 17 23 42 52 47 62 93 67 99 99 100 98 99 98 96 98 97 94 92 96 96 95
18 15 11 9 9 12 9 13 15 14 15 20 19 23 29 28 21 17 15 14 15 23 36 50 58 69 79 100 98 96 98 88 98 100 98 96 99 99 97 95 95 97 96
14 10 10 12 11 12 13 15 16 17 18 15 15 22 32 29 23 18 19 16 15 25 41 53 63 68 66 77 98 98 100 100 97 100 94 100 92 89 99 99 93 86 92
9 12 15 14 13 16 18 20 17 15 12 14 17 25 32 30 29 24 23 22 22 33 48 56 55 39 33 50 100 100 100 99 100 100 86 88 81 83 93 96 93 86 74
14 15 17 17 19 22 20 18 16 14 16 17 20 28 31 32 29 31 26 30 35 42 44 56 50 42 32 35 66 94 86 71 68 86 84 80 80 77 100 90 77 72 55
12 14 19 23 25 22 20 18 17 18 18 18 24 30 29 34 34 34 33 35 36 40 52 59 70 54 49 37 56 68 65 66 78 82 82 80 74 63 56 41 17 12 9
21 25 26 25 23 22 21 20 19 19 20 22 20 22 26 25 23 21 23 22 23 20 20 22 28 44 45 44 42 42 38 21 17 16 18 17 14 12 14 15 16 16 17
29 31 30 28 25 23 21 22 22 23 23 22 21 19 16 15 15 17 19 21 23 26 27 27 28 29 29 28 28 26 25 25 26 28 32 32 30 28 19 14 14 14 13
27 30 30 31 29 24 22 24 24 25 26 23 22 22 21 20 22 24 27 28 29 31 34 36 37 39 39 39 40 40 41 42 43 44 45 45 44 37 28 25 20 16 14
29 32 37 38 33 25 25 24 25 26 23 23 24 24 25 27 30 31 32 32 31 30 32 33 34 35 38 39 41 39 39 37 35 32 33 36 38 39 38 35 27 20 16
39 45 47 44 39 31 29 26 26 26 27 28 29 30 34 37 39 39 38 36 34 32 30 28 29 30 30 30 29 28 23 17 10 8 8 9 11 9 9 10 13 17 19

GFSMA_500_rhum_048.txt.gz
RH
7 7 6 5 5 6 7 6 5 6 8 9 10 12 14 11 11 14 17 19 19 17 15 16 25 39 45 53 59 55 37 24 20 21 26 30 28 16 15 13 13 13 13
8 7 7 7 6 9 8 6 8 16 18 18 22 23 22 22 26 29 31 30 30 30 30 27 23 20 18 25 46 61 67 45 28 27 28 33 33 20 17 17 15 17 17
9 10 10 8 10 11 7 12 26 31 30 31 33 30 23 23 29 36 42 44 45 47 48 45 51 45 42 40 33 23 36 72 68 35 30 32 34 28 18 18 17 17 19
13 13 10 10 9 8 19 41 42 36 35 30 21 18 20 23 24 40 48 61 74 80 88 85 82 82 81 77 66 54 32 41 84 86 50 31 33 36 27 20 19 19 19
12 10 10 9 10 24 42 48 41 38 34 14 13 12 9 14 24 35 40 42 58 66 76 81 91 91 88 76 75 75 72 65 45 76 96 68 37 41 42 26 22 22 23
11 11 12 12 22 39 41 24 15 12 12 9 8 7 10 13 19 34 41 57 63 64 56 56 51 55 63 68 70 73 80 91 84 64 79 96 82 44 44 46 28 25 25
12 13 14 14 13 13 11 12 10 10 11 10 8 10 13 16 16 14 13 23 36 32 36 35 39 52 42 40 43 68 75 77 85 97 85 84 93 96 58 48 48 31 25
15 15 14 17 16 13 11 12 15 15 11 9 9 12 14 16 12 10 11 14 14 11 16 23 25 22 25 26 38 80 68 70 70 72 92 93 92 97 100 88 65 55 43
15 15 15 14 12 10 20 20 19 15 10 9 15 17 17 14 12 11 10 10 12 16 23 17 15 14 14 16 18 80 78 42 55 74 83 91 80 96 98 98 98 96 92
17 17 15 13 11 20 23 20 15 10 9 13 19 12 10 11 7 5 7 10 12 12 13 15 15 15 14 15 27 89 100 58 48 62 98 85 97 95 97 99 97 97 97
18 17 13 14 21 21 16 13 11 9 12 18 14 12 10 8 9 9 9 10 13 16 16 16 14 12 10 10 18 46 97 98 35 81 100 86 83 94 98 100 98 95 98
18 14 22 23 22 18 16 14 9 10 18 15 12 9 7 8 10 12 12 15 15 16 18 12 10 11 10 10 12 19 27 45 84 98 100 96 76 84 97 98 98 96 98
18 26 32 32 28 21 15 9 11 18 14 12 8 7 8 10 11 14 16 16 13 18 16 12 13 9 9 14 22 28 42 36 61 92 98 100 96 93 100 99 98 98 98
38 39 32 28 23 13 9 14 18 13 11 9 9 11 11 15 16 17 18 18 21 20 15 14 10 10 15 31 46 50 49 27 23 34 62 100 99 95 96 88 98 100 98
36 31 28 23 12 10 16 17 14 10 10 10 13 15 14 16 19 20 22 26 24 20 16 15 12 19 27 30 42 53 72 92 50 35 35 97 100 100 100 100 99 93 95
33 25 17 10 13 17 16 12 10 10 12 12 15 16 17 20 18 20 27 30 26 22 19 16 17 18 22 32 36 42 70 84 79 69 84 98 100 98 99 99 98 80 91
20 11 11 15 17 13 11 11 11 11 12 14 17 18 18 16 17 20 30 30 29 24 22 21 17 19 18 23 24 28 91 100 95 83 88 99 98 78 98 96 97 90 98
11 11 16 16 12 11 15 16 15 15 18 21 20 17 15 15 18 24 29 32 29 27 18 14 15 25 12 17 18 21 68 100 100 100 99 100 90 92 100 100 98 93 99
14 17 14 12 12 14 16 18 18 20 22 21 18 16 18 19 20 27 33 35 33 25 11 13 12 29 24 21 21 24 26 75 67 81 59 59 100 100 100 100 87 86 83
16 14 13 11 13 14 16 19 22 23 21 19 19 19 18 18 22 25 32 32 27 14 13 15 16 18 30 41 41 44 49 57 62 65 68 77 83 93 95 93 84 82 74
16 13 12 13 13 15 21 24 24 22 20 19 19 19 20 21 23 22 18 15 14 16 19 20 22 23 22 23 24 27 28 28 23 23 24 26 26 25 20 16 20 24 22
14 12 12 16 20 25 26 27 26 23 20 19 20 21 22 23 19 16 18 20 21 23 23 22 24 24 23 23 24 28 29 31 34 35 36 34 33 32 31 32 31 30 29
14 14 14 18 23 25 28 28 25 21 20 21 21 23 24 23 22 21 22 26 28 28 27 25 26 25 24 23 23 24 25 27 27 27 37 35 33 38 36 33 36 40 42
15 17 17 18 22 30 32 31 27 23 23 22 22 24 24 25 25 27 30 32 33 34 33 32 30 29 27 25 24 22 22 20 17 17 21 20 15 10 8 8 8 10 17
20 22 17 17 25 35 40 38 33 28 26 25 26 28 28 29 33 37 44 49 48 42 39 37 35 32 30 27 25 21 18 17 16 18 20 20 19 14 11 8 7 6 6
22 21 20 26 31 39 46 44 40 36 35 34 33 32 32 36 45 52 56 57 56 50 44 39 35 33 31 28 26 23 21 19 20 20 21 21 19 14 8 8 7 7 7

GFSMA_500_rhum_051.txt.gz
RH
10 8 7 7 7 7 6 7 10 6 9 21 27 27 27 27 28 25 22 24 25 28 37 38 39 38 40 34 36 34 31 25 24 35 56 48 28 23 24 27 18 15 14
11 9 8 9 10 10 8 10 8 9 28 36 33 30 26 23 16 15 17 20 22 38 43 47 53 58 62 70 72 74 70 63 60 43 29 52 62 38 26 28 29 19 18
12 9 9 11 12 9 8 8 9 26 41 40 33 29 22 13 12 10 8 12 24 36 36 31 33 45 54 63 67 81 84 79 74 68 50 32 56 75 41 33 37 30 22
12 10 12 13 10 9 9 10 19 32 36 31 24 14 13 12 9 7 9 12 17 22 24 25 39 48 48 44 47 47 48 55 59 67 78 76 58 69 87 47 42 45 29
13 11 12 11 10 10 11 12 17 24 29 15 10 12 13 13 9 9 13 16 16 15 13 13 19 21 20 21 22 26 36 33 38 55 75 86 86 59 77 93 65 59 53
15 13 12 12 12 12 13 13 13 13 12 12 13 15 17 14 9 12 16 16 13 10 11 12 11 9 10 18 20 18 16 15 17 30 52 83 90 89 87 87 96 74 74
16 14 13 14 14 13 14 14 18 13 11 14 22 19 16 9 12 15 17 12 11 12 12 9 9 12 14 14 13 12 11 12 12 13 68 81 82 88 90 98 95 97 95
18 16 15 14 14 14 15 16 15 12 14 18 19 18 16 11 15 15 12 12 11 9 9 12 14 13 13 15 15 15 15 14 13 12 13 77 74 60 79 82 98 99 98
18 17 16 16 16 16 16 16 12 14 22 21 16 15 10 11 15 14 12 10 11 10 14 14 14 17 17 17 16 12 10 10 10 13 24 26 94 75 53 64 75 94 99
22 20 18 17 16 17 17 14 18 27 26 20 16 10 11 16 16 14 8 8 9 13 15 17 19 18 19 16 12 11 11 11 11 13 82 99 99 92 70 67 90 97 98
25 23 21 19 21 21 15 21 24 28 22 20 12 10 16 15 12 8 6 8 11 13 16 18 19 21 18 14 14 10 10 16 24 25 24 36 100 100 89 74 63 100 88
27 25 27 27 25 17 23 31 32 29 22 15 9 17 15 13 8 8 8 10 12 17 20 16 19 21 18 16 14 11 12 12 19 31 38 42 55 41 72 100 94 87 98
30 31 28 26 20 26 35 33 29 25 16 10 17 16 13 9 8 10 11 11 11 15 17 22 25 21 19 17 11 8 12 22 32 54 63 42 40 40 60 94 100 98 100
30 26 25 33 37 36 32 29 23 14 12 17 15 11 9 10 10 12 13 13 14 13 17 28 28 23 21 17 9 10 17 23 41 64 57 97 63 38 42 55 99 100 100
27 28 39 39 31 32 30 23 10 15 16 13 11 10 10 11 13 16 16 16 14 14 18 29 28 25 21 10 6 10 15 23 60 74 57 46 100 87 35 57 100 99 98
30 32 29 32 35 35 17 11 15 16 13 12 14 13 14 17 20 21 19 15 14 16 23 29 28 26 11 8 8 11 14 17 27 76 84 92 56 46 57 75 94 99 100
29 29 32 38 40 15 12 16 16 12 12 15 16 15 18 20 22 19 16 16 17 21 29 33 30 20 8 8 10 11 14 14 20 66 71 69 90 99 99 100 90 100 100
41 41 44 40 13 12 16 14 12 14 16 17 19 20 22 23 21 17 17 18 20 27 29 38 28 11 13 12 11 16 18 16 18 25 55 62 62 86 88 78 95 96 100
50 49 22 13 14 16 14 13 13 15 16 18 19 22 21 19 18 17 17 18 20 23 32 29 13 15 18 17 16 16 21 28 33 39 44 43 53 56 82 94 94 100 99
28 18 14 16 17 17 14 13 14 17 20 24 25 24 22 19 18 18 19 18 16 16 14 15 19 21 20 19 19 18 19 20 22 23 25 26 26 32 50 69 77 82 86
17 16 18 18 18 15 14 17 21 23 24 26 25 22 19 19 21 20 20 17 16 17 19 22 23 23 22 23 23 22 21 19 19 21 21 22 23 26 29 31 30 26 24
19 20 21 20 15 17 17 19 19 22 24 26 23 20 20 20 20 20 20 19 20 22 25 27 28 29 28 28 26 26 24 22 21 21 18 15 16 15 18 23 28 31 32
23 21 18 17 21 20 16 16 18 23 29 29 24 22 21 21 20 21 22 24 28 33 36 39 40 36 34 32 30 27 26 24 21 20 18 16 16 16 17 17 16 14 10
19 18 20 21 20 20 18 19 25 29 33 34 29 26 25 24 24 26 26 31 39 47 51 49 48 46 41 36 32 30 28 26 24 23 22 20 18 20 20 21 20 18 16
29 29 24 23 21 20 23 26 26 30 33 42 38 34 32 32 32 30 32 39 45 51 55 52 51 50 45 39 37 35 33 32 31 29 27 23 22 23 21 20 22 22 20
30 28 25 23 22 24 30 28 32 36 41 48 49 44 38 34 34 37 40 45 49 61 62 57 54 50 44 42 42 40 39 37 37 36 34 32 27 27 25 22 24 25 24

GFSMA_500_rhum_054.txt.gz
RH
22 19 16 11 8 8 8 10 9 9 9 8 15 31 36 32 31 20 14 13 10 8 7 9 18 21 25 27 34 46 57 60 62 73 76 75 67 54 32 46 53 34 31
23 20 17 13 9 8 10 11 9 8 8 11 22 31 31 26 15 14 14 13 10 9 9 11 14 17 19 23 40 47 40 38 41 43 43 48 55 63 52 37 51 62 38
24 21 17 13 10 10 11 10 9 9 10 17 23 28 26 13 12 16 17 14 10 10 13 15 16 14 12 13 18 18 17 17 20 27 42 48 50 62 73 73 63 66 68
26 22 19 16 13 11 11 10 10 11 11 12 12 13 12 12 16 20 18 13 10 12 15 16 13 12 12 12 8 7 8 14 20 20 21 21 22 31 53 87 86 77 94
34 26 21 18 16 13 12 12 13 12 12 13 15 14 12 13 20 20 16 12 12 15 16 13 13 12 8 7 8 9 10 11 12 12 12 12 16 24 36 75 99 89 89
47 44 24 18 18 15 13 13 14 12 13 14 14 14 12 17 20 19 14 12 13 15 13 13 11 7 7 8 10 9 10 11 12 14 15 15 14 15 16 67 92 99 100
37 33 24 20 18 16 14 14 15 13 14 15 15 13 15 20 20 17 13 13 14 14 13 10 8 8 10 10 10 12 12 13 15 14 11 12 14 13 14 18 76 89 99
37 31 25 21 19 17 16 18 19 15 15 16 14 15 24 22 18 13 14 14 15 14 11 8 9 10 12 12 14 14 14 18 13 12 12 12 21 26 26 24 36 85 80
36 31 26 21 27 31 19 20 18 16 18 17 15 24 28 24 20 14 15 14 13 10 8 8 10 11 13 16 16 16 20 16 14 15 12 16 26 37 42 50 38 98 96
34 30 25 38 44 30 22 21 20 22 24 17 24 30 28 24 17 13 14 14 11 9 10 13 14 16 19 20 17 22 19 17 16 13 12 9 20 36 39 74 98 100 100
38 34 49 51 29 26 26 25 27 23 18 27 33 29 25 17 12 16 16 13 10 12 11 12 15 18 21 18 19 20 19 17 13 9 10 19 33 49 57 36 67 97 100
44 62 74 38 35 31 29 28 24 26 29 35 31 28 21 12 16 16 13 10 11 15 14 15 17 18 15 15 20 21 20 12 9 11 12 21 32 46 74 72 51 89 74
71 54 39 38 39 36 30 24 30 36 34 32 27 20 10 15 16 13 9 10 13 16 16 17 17 15 14 17 22 22 10 7 7 11 18 32 42 64 72 97 82 68 79
43 42 44 44 38 31 28 36 38 37 30 32 18 10 16 16 12 10 10 10 11 15 20 19 16 14 16 20 23 17 6 7 7 13 17 18 32 54 90 80 96 38 63
47 45 40 36 32 28 37 35 32 28 37 18 12 16 15 12 14 14 13 15 16 18 20 18 17 19 24 27 26 12 7 8 9 10 13 19 44 58 44 80 78 38 32
46 43 40 37 30 29 30 27 30 40 19 12 16 15 11 13 15 16 17 19 21 21 18 18 19 23 30 32 26 10 10 10 11 12 13 19 54 49 62 57 44 96 100
54 47 45 45 40 33 34 41 45 20 12 16 15 11 13 15 17 18 21 21 20 18 18 19 22 27 34 31 13 13 13 10 10 12 18 26 33 41 58 84 98 97 87
54 52 52 45 38 43 45 48 16 13 16 15 12 11 12 14 19 22 23 22 19 17 18 19 21 31 27 14 16 16 15 14 14 14 14 15 18 27 47 55 79 79 82
64 61 56 52 49 52 45 18 14 16 16 14 12 12 15 20 20 22 21 19 18 19 18 17 16 14 16 20 20 18 18 19 19 18 17 15 14 15 21 27 52 87 100
64 64 63 59 58 40 20 15 17 18 15 13 16 16 18 18 21 20 18 18 19 18 16 15 17 20 24 24 24 23 23 24 24 23 21 19 17 14 14 18 25 28 32
60 63 59 52 31 21 17 19 20 17 16 20 18 17 19 23 22 20 18 18 18 18 18 20 23 26 29 31 33 31 29 28 28 25 23 21 18 17 15 14 13 13 15
40 40 35 27 20 20 21 23 19 20 21 20 17 18 24 25 23 20 20 19 19 21 22 25 31 40 45 45 45 42 38 34 30 28 25 23 22 21 19 18 16 16 16
35 28 24 32 24 28 32 25 29 23 22 20 21 25 28 29 27 24 23 23 24 24 26 31 41 46 51 48 45 47 44 38 34 33 32 30 28 27 25 24 21 20 20
63 33 33 31 28 32 44 34 28 22 22 23 26 28 34 35 34 31 29 28 29 29 32 39 43 45 57 58 52 49 46 41 39 39 36 32 31 30 31 30 27 24 24
93 75 59 48 63 45 36 31 27 25 25 27 32 36 37 41 42 43 41 36 35 38 42 46 51 66 72 68 58 50 46 46 47 42 37 35 34 35 37 39 36 31 27
98 97 94 69 47 36 34 29 33 32 29 33 38 38 43 49 48 48 53 56 61 66 67 68 68 69 71 74 73 65 57 58 59 55 50 50 52 52 50 50 50 48 42

GFSMA_500_rhum_057.txt.gz
RH
32 28 24 21 17 12 9 9 9 11 10 8 8 8 14 23 28 24 13 13 21 23 21 18 13 10 13 16 15 14 14 18 19 19 20 24 28 36 42 52 60 57 47
39 32 26 22 19 16 12 10 10 11 10 9 10 10 11 12 13 12 12 16 22 22 20 19 13 11 15 14 13 13 12 10 7 8 10 13 20 28 37 38 48 71 76
44 34 28 24 22 20 16 13 12 11 10 11 12 11 12 15 16 13 11 18 22 21 21 17 11 12 14 14 14 11 7 7 8 8 10 14 15 18 18 23 21 44 62
50 46 41 32 26 23 19 16 14 12 12 13 14 13 15 15 14 13 12 21 22 21 20 14 12 13 14 15 11 7 6 8 10 9 10 10 11 11 12 12 14 19 35
60 55 51 42 35 27 20 18 16 14 13 14 14 15 15 15 15 13 14 22 23 21 19 14 13 14 15 13 8 7 8 8 9 12 14 14 14 15 15 16 15 15 16
60 59 58 50 47 40 23 19 17 16 14 15 17 16 15 16 15 14 24 25 23 22 17 12 13 15 13 8 6 8 10 11 11 10 12 16 16 13 11 11 10 10 12
62 60 52 45 39 32 27 21 19 19 20 19 21 18 17 20 17 20 26 26 25 21 16 13 15 14 9 7 8 10 11 12 14 13 14 16 15 14 14 13 12 17 17
67 62 53 46 41 38 32 33 28 42 30 23 20 20 24 24 20 25 27 26 21 18 14 14 15 11 8 8 10 12 14 16 15 16 18 17 17 16 14 25 21 40 44
69 61 53 46 40 34 28 24 55 52 31 23 23 27 34 23 26 32 28 22 16 14 15 15 12 9 9 10 11 13 17 16 14 19 19 17 12 9 10 10 24 27 32
66 57 50 45 40 38 32 42 55 29 26 28 31 27 25 28 34 31 27 19 14 15 16 13 10 12 13 14 15 20 20 15 17 21 19 8 8 9 17 19 24 22 28
70 61 52 47 44 39 31 43 66 34 33 33 30 27 36 34 32 28 26 13 14 15 13 10 12 14 16 18 20 18 15 16 20 22 7 7 8 16 28 31 49 56 64
86 78 63 54 51 40 50 80 38 38 39 30 26 32 35 30 29 27 12 13 16 13 10 10 12 13 16 18 19 15 14 17 22 12 7 7 10 16 14 20 56 57 100
90 92 99 98 90 74 70 42 42 41 31 30 34 35 29 27 34 17 13 16 13 13 13 13 16 17 19 20 17 15 16 19 21 6 8 7 10 15 16 19 45 97 100
82 74 69 61 53 46 42 44 40 34 30 32 32 29 30 38 17 12 16 13 11 15 16 16 20 20 20 18 16 16 20 22 11 7 9 8 11 14 16 28 48 66 39
78 64 56 52 50 50 46 41 37 34 30 31 27 31 40 24 12 16 13 12 14 13 18 22 19 19 18 17 16 19 21 20 8 10 9 10 12 13 20 24 49 70 43
68 63 60 57 53 49 46 44 42 38 37 35 38 44 27 12 15 14 11 11 13 14 18 20 20 19 16 17 19 20 22 10 11 12 11 12 12 12 12 15 38 62 85
63 62 61 59 59 57 51 46 48 46 39 41 48 31 13 15 15 12 10 11 15 16 17 20 18 16 17 19 24 20 11 14 15 14 15 16 15 15 13 14 16 38 69
66 64 66 65 64 59 53 52 52 46 48 51 36 14 14 16 14 11 10 14 14 17 18 16 16 17 16 18 14 13 17 18 17 18 19 19 19 18 17 15 14 13 27
72 72 71 67 66 68 67 65 60 58 56 44 17 16 18 15 12 12 13 13 18 19 17 17 16 16 14 15 18 20 22 23 25 25 23 22 21 20 18 17 15 14 13
72 71 70 69 64 65 65 66 67 61 32 19 18 19 17 15 14 14 13 18 21 19 18 17 16 17 18 20 24 28 34 36 35 33 30 27 25 23 19 18 18 17 16
66 61 57 57 58 56 57 55 41 26 20 19 22 20 19 20 15 18 23 24 22 20 18 18 18 20 22 28 40 45 44 42 42 41 39 35 31 29 27 27 26 24 22
66 62 52 48 49 40 39 34 27 22 25 26 23 29 23 18 19 23 27 28 26 24 22 22 23 24 28 35 41 40 42 50 50 47 43 41 38 37 36 33 30 27 26
72 63 46 48 44 42 32 26 30 37 31 36 33 29 23 22 23 24 32 33 32 30 27 27 28 28 30 37 41 41 55 63 57 49 46 43 44 44 39 34 31 28 27
85 78 56 63 63 52 38 36 39 42 40 47 36 29 25 24 27 32 39 40 42 41 39 42 44 45 46 50 56 60 62 65 67 65 58 52 55 55 52 46 42 39 38
85 86 85 79 82 77 45 54 48 59 53 36 36 32 29 30 35 42 42 45 52 49 54 56 57 59 60 61 64 67 71 73 74 77 76 73 71 71 69 67 66 63 61
87 91 95 100 100 96 86 94 87 50 42 38 37 36 34 36 39 41 42 44 38 41 44 41 42 43 46 55 63 67 70 74 78 83 82 84 80 83 86 86 84 80 75

GFSMA_500_rhum_060.txt.gz
RH
37 36 34 30 25 22 19 17 14 11 11 11 10 10 10 13 10 13 20 15 13 11 16 23 23 23 21 14 11 14 15 15 13 8 6 6 7 8 10 14 16 24 30
40 41 42 34 27 24 22 21 18 16 14 13 12 11 14 16 12 14 18 14 13 12 16 24 24 25 22 13 12 14 15 13 9 6 7 8 8 8 9 10 10 13 13
43 48 49 39 36 32 29 26 23 20 18 16 14 12 14 17 17 16 16 15 15 13 19 24 25 25 21 12 12 15 14 10 7 7 8 9 10 11 12 12 12 13 14
45 53 56 54 52 48 39 33 27 23 20 18 16 15 15 18 26 18 16 18 22 18 26 26 26 25 22 12 14 15 12 7 7 9 11 12 11 12 12 13 16 16 15
48 53 58 61 56 56 52 48 44 30 22 20 20 17 19 22 26 20 21 29 27 22 26 29 28 24 17 12 15 14 8 7 8 10 12 15 16 13 13 16 16 14 14
50 57 61 63 61 59 50 43 39 35 28 24 21 41 36 36 24 22 30 32 23 26 31 29 26 20 13 15 16 10 7 8 10 12 12 14 12 12 15 16 17 16 11
54 59 66 67 67 64 56 50 45 41 37 36 37 59 56 28 26 31 30 25 29 34 30 28 25 13 14 16 13 8 8 9 11 14 16 18 14 22 18 16 12 10 7
60 63 72 73 72 67 59 51 47 40 32 27 62 80 47 28 32 36 32 31 34 31 28 28 14 12 15 14 10 9 10 11 13 16 18 14 17 21 20 8 8 8 12
73 78 77 73 70 66 58 51 45 40 39 35 74 74 54 39 39 30 35 35 31 28 29 18 13 15 15 10 9 10 13 13 16 17 14 13 17 22 10 7 7 9 19
83 73 78 88 86 74 63 53 47 46 55 40 63 80 36 44 36 29 35 31 27 31 28 13 15 15 11 10 10 12 14 18 20 16 14 15 20 13 7 8 22 10 16
89 88 91 88 78 79 75 65 60 76 62 54 78 49 41 35 32 34 33 28 34 33 14 12 15 13 11 12 13 17 19 20 17 16 16 22 18 7 7 8 12 20 25
86 86 86 86 83 79 79 85 86 90 93 88 72 46 42 32 37 37 30 32 38 17 13 15 13 12 10 15 18 21 20 17 17 18 20 25 7 8 8 8 11 15 34
83 90 97 95 88 85 88 88 83 66 57 61 45 40 35 34 34 31 34 40 28 13 14 14 14 10 10 16 19 19 18 16 17 20 26 15 8 9 9 10 14 15 28
91 92 90 89 87 83 76 67 57 49 56 50 42 38 36 32 35 39 42 42 16 14 14 13 10 10 13 18 18 18 15 15 19 26 17 10 10 10 11 11 11 10 27
90 89 85 86 86 86 75 64 59 52 49 44 42 40 35 37 41 42 47 21 14 14 13 11 10 11 13 17 17 15 15 17 23 20 10 12 12 12 14 14 14 11 11
90 84 80 80 82 75 65 61 58 54 52 51 47 45 43 42 45 50 26 14 16 15 10 11 11 13 16 15 14 14 15 17 16 12 14 13 14 16 17 17 16 14 12
92 93 81 71 65 65 66 65 67 67 64 58 50 52 51 51 54 34 16 17 16 12 12 12 14 16 16 15 14 13 12 12 14 16 17 18 19 20 20 19 18 15 13
98 98 87 80 77 70 68 62 63 64 65 64 64 63 59 58 50 18 18 17 14 14 13 15 16 18 16 15 14 13 14 15 18 21 25 28 28 26 24 23 22 18 16
98 98 98 93 81 76 71 66 63 66 64 62 62 67 66 55 21 18 20 17 19 16 18 18 19 18 16 14 14 15 16 19 26 35 36 36 35 34 33 28 26 24 22
97 96 96 93 82 74 68 62 60 60 59 61 62 61 44 21 20 22 20 22 18 19 22 22 22 20 17 18 18 18 21 32 41 40 40 40 41 40 38 37 34 32 32
86 89 83 75 71 69 64 59 55 52 51 51 46 37 25 24 25 26 27 22 20 23 25 25 25 24 22 22 20 22 28 40 40 36 35 46 49 44 41 39 38 38 36
56 61 64 67 68 67 58 52 46 45 40 35 30 25 36 32 32 34 25 21 28 27 28 29 30 27 26 25 24 26 32 36 40 44 50 58 58 55 51 47 46 47 45
63 62 64 69 71 74 68 52 55 46 35 30 33 36 36 46 39 34 28 31 31 32 35 37 39 38 39 43 43 45 51 55 60 58 62 63 66 70 67 64 62 62 62
70 70 74 81 86 82 78 66 63 68 53 47 57 52 45 47 51 38 34 37 38 35 35 33 39 37 38 46 42 36 45 55 66 68 72 71 75 78 80 82 80 79 75
71 71 76 84 88 90 87 80 74 77 80 55 58 50 86 52 47 40 42 43 41 34 28 25 27 26 30 32 33 32 34 41 53 60 60 64 77 83 88 85 81 78 72
82 79 81 94 95 91 94 95 98 100 94 74 97 94 62 56 51 51 47 42 43 39 35 33 34 36 40 43 44 47 50 50 52 58 62 72 79 88 89 84 65 28 11

GFSMA_500_rhum_063.txt.gz
RH
29 34 36 37 36 33 25 23 22 21 19 16 16 16 14 12 13 18 23 26 22 20 22 26 20 21 25 27 27 22 12 12 14 15 11 7 6 7 8 8 8 9 10
28 35 40 42 44 39 29 26 26 26 24 21 20 18 17 15 14 15 27 34 21 24 29 37 23 24 28 28 25 19 13 14 15 13 8 7 7 9 9 10 11 12 12
25 34 43 47 51 46 44 44 42 37 33 28 25 22 20 20 16 18 26 33 24 27 36 32 24 27 31 28 24 15 12 15 14 9 7 7 8 10 10 12 13 12 14
21 30 41 49 56 58 58 55 52 49 44 42 34 29 26 22 32 39 47 45 33 37 39 24 28 34 30 28 22 13 15 16 14 9 7 9 10 11 13 15 14 14 18
17 27 41 50 58 63 66 60 57 52 48 46 43 35 31 28 47 55 58 40 38 42 40 32 36 31 28 27 13 12 16 14 10 8 8 9 12 14 15 14 16 18 18
16 21 38 48 57 63 65 64 63 60 56 51 46 43 40 36 57 72 47 37 42 43 39 38 31 28 30 17 12 14 14 12 9 10 11 12 13 14 14 12 15 21 17
30 22 25 45 56 61 67 68 68 64 58 52 48 40 34 37 67 70 56 41 43 37 37 33 28 30 30 13 13 15 13 10 8 12 13 14 18 16 13 15 16 21 9
91 72 46 43 53 59 64 70 67 63 62 58 52 47 48 43 60 79 67 46 42 33 35 30 31 34 24 13 14 14 11 9 9 11 14 18 18 14 15 17 17 12 8
90 92 81 59 59 72 73 78 77 70 71 69 60 51 58 58 60 68 45 42 35 35 34 31 36 31 17 13 14 12 10 9 10 15 16 18 16 15 17 21 15 7 20
81 82 79 84 81 73 77 79 81 75 70 73 68 68 76 74 70 66 44 38 35 36 33 35 37 20 13 14 13 10 8 9 12 16 18 16 15 15 21 23 7 8 15
66 57 68 80 84 84 89 86 86 80 82 80 76 80 82 77 74 68 47 35 37 36 36 41 36 19 15 14 12 9 8 13 15 17 17 16 15 20 25 8 8 9 27
83 86 84 87 87 89 93 86 81 87 89 82 80 79 68 71 73 44 41 36 36 39 39 42 26 16 14 13 8 8 12 15 16 16 14 15 18 24 13 9 9 11 11
93 95 95 96 87 90 90 86 90 90 88 82 75 66 58 66 50 41 36 36 36 42 43 38 18 16 14 10 9 10 14 17 16 15 16 18 24 14 10 10 12 13 13
98 97 97 92 92 96 87 80 77 83 85 82 70 63 56 50 44 41 39 37 44 46 48 22 16 15 12 8 9 10 16 15 14 15 16 22 13 12 12 12 15 16 15
90 94 96 93 99 96 87 82 83 85 88 87 73 62 53 50 50 47 46 49 47 51 41 18 16 14 11 9 10 14 15 14 14 14 16 12 12 13 14 16 18 18 18
93 97 96 92 98 97 91 84 78 81 75 64 62 62 63 64 58 50 53 56 53 54 28 19 16 12 10 11 13 16 15 13 12 12 12 13 15 16 19 22 22 21 20
97 97 92 94 97 99 95 85 78 68 68 68 64 59 61 63 62 61 63 62 61 46 20 18 14 13 14 15 16 16 14 12 13 14 15 16 19 24 27 27 27 26 24
80 86 80 89 96 98 94 85 81 80 74 71 67 63 62 63 61 61 63 67 58 22 20 18 16 16 16 17 18 16 14 13 14 15 17 21 30 31 35 36 35 34 30
95 97 96 97 94 98 96 96 91 92 85 79 72 70 65 64 64 61 65 60 32 22 22 22 20 20 20 20 19 17 15 16 17 18 22 34 39 40 39 36 40 39 36
96 90 98 92 93 96 95 91 84 85 75 69 62 57 58 59 62 61 50 31 25 28 27 25 23 25 23 23 23 20 19 20 20 22 27 34 37 37 40 48 49 43 40
22 33 52 64 80 89 95 94 82 76 72 67 60 55 51 46 40 34 27 27 32 32 31 29 29 30 29 28 27 25 24 25 24 25 28 32 35 45 56 57 57 55 51
36 43 40 36 50 59 60 57 57 63 67 64 60 54 49 43 34 30 39 43 37 40 36 37 38 37 37 35 35 34 36 40 43 44 46 47 51 55 60 62 64 66 66
36 39 54 57 53 48 50 57 69 69 70 69 59 59 46 37 39 43 50 43 47 45 43 40 43 46 44 43 45 39 38 36 29 32 30 36 50 62 62 55 56 62 69
59 64 72 70 63 61 65 65 67 81 86 87 76 72 64 57 61 62 48 54 81 58 50 49 53 50 43 39 34 30 32 32 35 37 36 35 42 52 53 54 60 62 64
73 75 77 80 78 72 72 82 84 86 79 90 87 88 79 88 66 57 81 75 62 65 70 60 57 48 42 39 35 36 38 41 45 48 52 56 61 65 68 72 75 75 75
83 83 84 88 88 83 82 96 96 99 97 100 100 100 100 78 66 93 84 76 81 77 67 61 55 51 50 46 43 43 44 49 52 56 63 69 78 83 84 80 81 79 63

GFSMA_500_rhum_066.txt.gz
RH
21 27 32 35 37 37 38 35 27 24 25 26 25 23 23 23 25 22 22 21 23 38 42 37 38 39 25 26 34 30 28 25 17 11 13 14 12 8 6 7 9 10 12
17 22 28 35 39 42 45 43 34 33 35 34 33 29 28 25 26 28 26 31 43 49 48 41 42 38 25 34 34 29 29 21 14 12 14 14 10 7 7 9 11 12 15
14 18 23 30 38 46 51 50 48 52 51 47 46 43 38 31 26 28 29 42 51 57 45 35 42 40 35 36 30 29 27 16 12 14 14 12 9 8 8 10 12 14 16
16 16 20 25 35 47 55 58 60 60 57 54 49 47 46 44 40 37 36 43 67 65 46 40 42 40 39 31 28 30 17 13 14 14 13 10 8 9 10 12 14 15 13
22 15 16 19 24 39 48 54 60 63 62 60 58 57 52 48 46 43 40 46 65 62 51 44 41 38 35 29 30 30 15 13 14 14 11 9 8 10 11 14 15 14 14
40 24 17 16 17 30 42 50 58 60 63 64 66 61 55 52 47 42 41 48 59 71 61 47 40 36 33 30 35 29 16 14 14 13 10 10 13 13 16 18 16 14 20
67 50 32 30 24 23 29 43 48 53 64 65 65 63 65 63 58 49 48 53 57 72 64 46 35 36 33 33 36 24 13 14 14 11 9 11 15 18 19 24 25 20 16
51 74 86 82 87 66 42 43 52 55 65 68 66 70 68 68 66 57 54 60 70 77 68 43 35 36 35 36 36 19 14 14 13 9 8 11 16 19 19 17 19 28 18
35 54 80 90 94 92 88 61 56 63 74 79 69 67 61 61 68 70 73 78 76 71 59 38 37 36 36 37 34 17 14 14 11 7 6 12 17 18 17 16 16 20 20
42 47 62 91 94 84 76 77 79 78 79 76 69 67 67 58 66 77 79 76 72 74 48 34 38 37 40 41 28 17 15 14 8 6 8 10 16 17 15 14 17 23 9
92 95 96 97 90 83 74 71 76 81 81 81 82 84 76 76 72 70 76 66 73 58 41 35 37 41 43 40 18 16 14 10 7 7 9 14 15 14 14 15 20 9 9
96 96 96 94 88 81 78 85 77 86 80 79 85 82 81 81 80 75 69 68 68 63 52 38 40 44 45 35 16 16 14 8 7 8 13 14 14 14 14 17 11 10 11
98 95 85 92 94 91 94 92 96 92 84 84 81 79 76 80 82 71 69 69 66 62 67 45 47 46 45 29 18 16 11 9 8 12 13 14 14 14 14 10 11 11 14
95 89 94 93 89 94 96 97 88 80 83 82 81 77 80 84 84 81 63 56 54 54 51 50 50 49 43 30 20 15 9 10 12 14 14 12 13 12 10 11 12 14 17
91 90 92 96 95 94 96 91 89 82 87 93 84 78 72 73 74 63 60 61 61 59 53 52 56 53 42 25 17 13 11 14 15 15 13 12 11 11 13 15 17 19 22
99 97 98 94 91 96 96 96 97 95 94 95 99 85 76 68 63 63 64 64 67 61 58 57 59 57 34 21 17 13 14 16 15 14 11 11 12 13 16 20 25 27 27
96 92 84 79 71 71 78 82 81 88 93 99 100 86 79 69 68 65 63 63 69 68 64 66 68 56 26 21 18 15 16 17 16 12 12 12 13 15 18 26 30 34 37
91 83 78 84 87 85 82 87 78 79 89 91 100 98 91 81 74 67 69 68 71 68 66 70 70 37 23 23 18 20 18 19 16 14 15 14 15 18 25 30 33 35 33
70 66 68 86 88 85 90 80 80 81 94 94 95 98 98 95 88 89 88 73 69 65 72 61 33 27 28 26 23 24 22 21 19 18 18 18 19 22 29 33 31 32 34
50 42 38 47 52 83 91 84 88 85 93 96 94 95 97 89 87 85 65 59 58 52 51 32 32 33 30 29 29 26 26 25 23 22 22 22 22 24 27 30 32 42 49
18 20 17 15 14 18 14 20 80 74 80 81 91 97 94 86 77 66 61 51 42 37 33 37 44 36 36 34 35 33 31 30 29 28 28 30 32 35 39 42 48 49 54
20 18 18 17 17 18 27 28 27 25 36 44 50 57 56 65 64 62 58 43 38 38 45 54 41 45 56 51 39 40 39 40 41 43 45 39 35 30 28 36 42 47 53
26 26 23 24 22 24 27 27 36 43 40 37 45 55 72 70 69 72 71 54 51 63 63 48 66 68 79 52 53 48 50 45 45 38 28 27 29 31 33 34 37 41 48
56 58 51 48 50 52 56 62 63 64 56 54 59 68 76 80 86 85 86 75 70 69 54 65 95 82 73 80 58 55 49 40 36 33 32 36 39 43 46 50 53 57 62
55 60 62 65 64 65 65 66 69 72 65 63 74 83 92 98 97 100 100 92 73 57 86 96 80 92 90 68 66 60 58 56 49 46 44 44 48 53 58 62 65 66 70
57 70 64 60 61 77 81 81 80 78 78 78 89 93 98 99 100 100 100 100 90 100 98 98 98 94 80 74 70 81 96 97 88 61 54 57 55 57 57 56 55 52 55

GFSMA_500_rhum_069.txt.gz
RH
14 14 20 26 28 31 34 36 38 38 32 27 29 32 32 30 31 34 35 35 36 35 41 52 60 45 41 43 38 37 35 27 28 24 15 13 14 14 13 9 8 8 10
28 17 14 19 25 30 35 39 42 45 39 39 44 45 44 42 41 39 39 41 41 39 42 56 65 49 40 42 40 39 31 27 28 23 16 13 14 14 10 8 9 11 12
31 23 16 15 20 28 35 41 46 49 48 52 54 53 51 46 46 47 47 45 44 42 44 58 64 53 46 43 38 36 31 28 30 22 16 14 14 14 9 9 11 12 14
29 25 22 17 19 23 29 38 48 58 61 63 62 60 57 56 56 54 50 48 46 43 46 51 65 67 52 44 37 36 31 33 31 18 14 14 14 12 8 9 12 14 17
37 30 22 20 17 18 21 28 41 50 60 62 62 62 60 62 62 58 53 55 56 51 49 52 60 70 58 44 35 35 32 35 27 14 14 14 13 10 6 7 13 20 18
54 47 48 38 28 17 17 18 24 39 48 53 56 60 66 66 65 63 65 62 61 62 54 57 66 74 65 45 36 36 35 36 25 15 14 14 12 8 7 8 17 23 26
51 33 32 49 55 39 21 19 21 27 42 44 54 62 72 74 76 80 72 62 62 69 75 78 79 75 62 44 37 36 37 38 25 16 14 14 9 7 11 14 18 18 28
44 29 26 29 58 81 72 68 70 46 43 51 45 56 72 79 79 78 81 69 63 65 71 78 80 68 72 63 38 38 40 37 23 17 14 12 7 8 11 14 17 17 24
43 37 40 57 55 67 82 86 93 88 92 77 67 65 60 64 65 70 75 72 70 71 77 77 72 67 69 55 40 40 40 37 24 18 15 9 7 8 11 14 16 14 16
83 91 94 86 90 91 82 77 78 89 84 85 89 80 68 68 64 62 75 76 78 77 76 69 71 73 72 59 43 41 42 35 24 20 15 8 7 8 12 14 14 14 15
97 96 95 97 96 96 95 97 97 86 80 88 89 80 73 69 65 57 68 81 72 74 71 65 69 70 80 51 55 44 45 34 24 18 13 8 8 11 13 13 13 14 16
97 98 97 95 96 96 97 96 89 88 83 83 89 90 87 87 81 77 72 70 69 73 75 71 69 55 71 70 48 48 46 31 24 18 11 8 10 13 13 11 13 12 8
96 97 97 96 96 97 96 74 82 92 88 86 93 86 95 86 81 82 78 72 68 71 76 68 58 48 48 48 51 50 50 29 24 18 11 10 11 13 12 11 11 8 9
97 96 95 96 96 89 80 88 89 88 77 86 97 94 94 77 77 82 81 76 70 70 66 59 58 60 55 52 56 56 54 31 21 17 11 13 11 13 10 10 9 10 11
98 97 92 93 88 89 89 89 87 83 86 86 87 85 79 84 78 76 80 89 77 67 62 60 59 61 58 57 61 64 60 31 19 15 14 14 13 13 11 11 11 13 15
96 93 98 91 92 88 79 74 72 76 70 64 67 70 81 88 87 85 83 92 86 71 66 64 66 64 62 62 64 69 58 25 21 16 17 15 14 12 12 12 14 17 20
85 86 93 94 99 97 91 88 82 76 67 57 51 60 79 86 86 84 89 96 97 85 78 72 68 72 72 70 71 67 37 26 24 20 18 17 14 12 14 14 17 21 26
87 87 91 94 100 99 87 78 64 55 55 64 54 52 61 78 85 83 97 97 98 97 96 95 91 91 92 88 84 54 31 29 24 23 20 19 16 16 16 16 21 30 34
86 88 99 100 95 85 75 61 54 53 70 64 70 63 71 92 95 99 99 100 98 99 95 97 95 93 86 66 54 35 34 32 27 26 24 22 20 20 19 20 24 30 31
54 65 74 75 62 50 44 38 37 26 21 61 64 47 89 86 97 94 99 100 98 96 86 71 61 47 54 38 36 39 37 33 31 31 28 27 25 24 23 24 27 29 33
28 25 22 20 18 17 16 16 14 14 14 15 13 16 41 62 54 63 82 99 98 93 86 77 67 50 46 49 48 41 39 41 72 37 35 34 32 30 32 34 35 35 31
21 22 24 22 21 20 19 18 19 18 18 16 20 28 36 39 41 50 54 64 69 73 70 69 49 48 53 57 48 54 63 95 48 62 42 44 46 45 45 34 25 27 29
24 24 23 21 22 22 23 25 28 32 32 29 32 36 47 55 49 44 59 71 80 85 85 75 61 75 63 50 55 72 90 62 74 58 56 54 52 45 37 36 36 39 42
35 35 32 29 38 40 46 49 46 48 49 51 53 57 62 66 53 58 74 90 98 96 100 94 93 84 65 62 85 86 74 78 63 58 51 50 52 50 49 49 47 48 51
45 46 56 56 54 52 59 63 61 54 56 66 66 63 65 66 66 74 82 88 98 100 100 100 98 65 85 100 92 97 85 73 69 60 60 62 62 62 54 53 52 51 53
78 75 72 69 59 58 59 51 54 66 71 72 71 71 72 79 87 96 94 95 100 100 100 100 76 96 100 99 100 97 90 80 71 91 98 93 80 70 64 63 57 55 56

GFSMA_500_rhum_072.txt.gz
RH
17 14 13 16 21 24 27 29 31 34 33 34 36 33 34 38 40 40 40 39 42 43 43 42 42 42 46 54 62 54 48 41 36 31 27 27 19 15 14 14 13 9 8
41 34 24 18 15 18 24 29 32 34 37 39 42 40 44 47 46 46 45 46 48 48 46 46 45 47 50 56 66 60 50 42 36 32 29 28 20 16 14 14 11 8 8
42 37 35 29 22 16 18 24 29 35 41 44 46 46 48 50 52 51 50 52 54 51 51 55 57 54 52 57 68 66 52 40 36 34 30 26 20 17 15 14 10 7 10
40 36 32 31 28 22 19 19 23 29 36 40 43 47 51 56 57 55 54 58 59 57 62 60 57 64 61 67 73 74 52 40 36 36 34 27 20 17 16 14 7 6 10
35 33 29 28 24 22 20 18 19 21 24 29 41 50 53 54 54 56 57 59 62 65 64 59 56 56 62 67 69 73 61 43 37 37 34 27 21 18 16 12 8 6 12
32 32 35 37 40 38 27 24 18 17 18 18 27 40 46 51 57 64 62 61 61 66 66 67 62 57 59 65 73 72 63 58 38 38 37 27 22 18 17 12 10 6 11
67 86 74 58 44 43 44 49 40 24 20 18 20 24 41 54 63 69 77 66 61 59 60 65 68 62 67 74 74 68 60 50 40 40 41 29 22 19 14 8 8 8 11
84 80 66 58 43 26 23 26 56 66 61 66 65 63 46 66 77 76 80 73 72 75 73 70 67 72 73 74 71 62 72 59 42 43 38 30 23 20 14 8 9 12 12
63 58 50 80 70 49 41 38 52 82 90 96 84 80 79 84 79 85 91 85 74 70 66 66 74 76 74 66 71 75 73 48 48 42 40 30 25 20 15 9 10 11 13
94 94 89 94 95 96 97 96 96 95 96 97 94 80 79 70 61 69 74 80 74 72 73 74 74 74 71 68 73 72 71 67 60 43 41 31 26 20 13 8 10 11 12
95 94 95 97 98 97 96 96 96 96 97 99 94 86 78 70 64 61 72 78 77 75 73 74 72 80 78 78 73 68 69 59 49 49 45 34 25 18 11 11 10 12 11
97 97 96 96 97 96 98 97 96 98 98 97 88 68 76 80 82 75 65 71 74 71 69 71 72 75 82 76 65 58 56 51 52 52 52 39 23 17 12 12 11 11 10
96 96 97 97 97 97 97 96 96 97 97 97 77 78 78 72 68 70 71 75 72 70 69 68 72 69 73 68 60 60 59 53 54 57 56 43 23 16 13 13 13 10 10
97 98 97 97 97 97 97 95 96 94 86 77 80 76 76 70 70 77 80 84 76 79 76 67 70 76 69 65 64 66 63 57 60 64 65 40 21 15 15 14 13 10 9
98 98 98 97 98 97 96 86 68 59 62 63 80 76 68 61 63 71 71 61 58 72 83 78 73 73 78 73 69 68 72 69 70 72 67 37 22 16 17 15 12 11 11
95 96 93 94 88 93 85 74 77 81 91 81 66 59 54 56 55 63 63 61 64 76 79 77 86 86 91 87 83 89 91 83 82 83 84 35 23 19 18 16 12 12 13
76 69 67 70 83 81 78 74 74 70 80 84 86 74 66 57 49 43 48 46 65 89 94 91 96 100 100 95 97 97 96 97 93 93 53 32 24 21 19 16 14 14 15
85 84 80 73 72 72 79 84 91 99 96 86 77 63 52 44 41 39 53 60 62 72 85 98 100 99 98 98 100 100 100 95 77 90 55 32 26 23 21 19 18 18 18
74 73 70 65 65 64 70 76 83 80 75 52 44 40 38 27 32 67 66 69 99 97 100 96 99 100 99 98 93 72 63 87 58 43 36 32 28 27 25 22 21 21 23
31 30 32 34 40 44 45 55 48 33 21 20 18 17 15 15 16 16 19 26 68 90 94 94 94 92 89 98 98 89 60 53 60 44 49 40 35 40 30 28 26 26 29
25 25 23 22 23 24 24 22 22 22 22 21 19 17 17 17 17 20 26 33 40 47 58 62 65 74 88 92 94 82 73 85 68 68 41 69 81 44 56 34 33 32 34
26 28 28 26 25 25 25 24 24 22 21 22 20 19 20 21 21 23 27 31 40 52 46 54 74 77 78 85 82 76 81 76 61 53 73 94 83 86 48 48 54 56 45
20 20 22 28 30 29 28 27 26 27 24 28 32 33 34 35 36 41 45 49 60 63 60 74 87 93 94 95 85 95 63 54 73 100 100 90 81 68 66 62 56 48 44
21 23 25 26 27 28 31 30 28 40 45 45 46 48 46 41 47 56 54 53 66 68 76 84 84 92 96 100 100 73 76 91 99 100 100 99 80 71 62 60 59 57 55
28 31 30 30 29 35 42 52 59 57 50 45 47 43 43 54 63 68 67 71 75 82 93 95 97 86 100 100 100 100 89 100 100 100 100 99 91 91 78 76 78 80 84
36 37 47 44 59 62 67 72 70 57 55 49 43 50 63 66 68 73 91 100 100 88 84 94 91 94 100 100 97 80 100 100 100 100 100 100 99 100 100 100 94 79 69

GFSMA_500_rhum_075.txt.gz
RH
13 13 12 14 15 18 19 20 22 24 27 30 29 30 32 31 33 37 41 42 42 43 45 43 45 47 47 48 50 53 55 59 64 62 50 37 34 29 23 18 17 15 14
16 14 14 14 14 14 15 17 20 22 24 28 30 32 33 35 36 39 42 41 42 43 42 45 49 50 51 51 50 53 56 57 59 61 56 41 36 30 23 19 19 16 11
45 40 35 35 30 27 23 19 18 19 20 22 27 30 34 35 36 38 36 41 41 41 44 53 56 58 56 54 53 56 59 63 66 65 59 48 36 30 23 21 20 16 9
54 49 46 42 37 36 31 27 22 19 17 18 18 24 24 28 30 35 42 43 41 46 51 58 62 67 65 60 59 59 58 63 71 68 70 52 36 32 34 23 21 16 9
63 56 54 50 48 37 31 28 26 25 22 18 18 18 18 19 24 29 35 37 40 50 56 62 61 60 59 62 64 56 61 71 70 67 70 46 39 46 35 24 23 18 11
95 77 76 58 36 28 24 20 19 18 18 17 16 15 14 13 18 23 33 33 36 40 47 57 59 62 64 57 50 51 64 70 68 64 71 50 45 48 31 25 23 22 12
96 90 60 35 32 30 33 38 36 36 35 36 30 23 18 18 18 23 27 30 35 43 50 58 62 62 59 55 56 62 65 67 67 74 70 46 44 40 32 24 22 20 13
97 95 93 77 76 73 67 57 43 30 27 28 36 50 54 57 60 74 70 67 61 64 66 68 65 65 57 58 60 61 63 66 72 75 70 48 49 43 34 24 20 16 12
96 97 93 89 91 81 59 69 80 74 77 68 37 48 73 89 77 81 85 83 81 73 67 67 69 66 60 61 63 59 64 68 74 73 77 69 50 47 37 26 20 15 13
96 97 98 95 92 95 95 95 97 96 96 95 93 80 79 80 82 88 90 82 75 74 64 63 63 67 66 66 66 61 62 67 69 63 63 55 50 51 41 28 20 15 14
97 97 97 96 97 97 96 97 96 97 97 97 97 95 97 83 81 71 63 65 62 59 64 71 69 71 70 69 68 66 65 64 63 59 56 53 52 54 48 31 20 15 13
96 96 96 97 97 97 97 97 96 94 95 97 96 96 97 100 95 79 65 62 57 57 66 72 77 78 74 73 72 71 70 65 62 60 60 57 53 58 53 30 19 14 13
96 95 96 96 97 97 97 97 96 96 96 96 96 98 98 99 92 82 67 58 53 61 62 70 81 73 72 79 80 73 76 73 65 65 67 63 59 73 58 30 24 15 13
95 96 96 97 98 94 96 97 97 97 96 96 95 95 95 94 95 87 72 62 61 54 50 56 57 56 60 73 91 90 88 84 82 77 75 75 92 80 55 49 19 16 15
91 90 95 95 97 94 97 97 97 96 97 97 95 94 96 91 85 90 83 59 44 40 41 43 50 58 70 90 100 100 99 96 95 87 92 94 94 94 67 33 25 18 16
44 64 82 93 85 94 97 96 96 94 92 94 91 95 95 93 80 68 73 65 52 46 39 39 39 40 49 74 93 99 97 98 98 96 97 97 95 97 64 34 21 18 16
47 57 59 55 52 68 87 95 95 93 93 88 84 88 82 84 85 77 69 56 47 39 35 34 36 40 64 96 100 95 95 94 100 99 98 98 100 85 89 36 23 19 17
56 51 68 76 80 81 84 84 84 84 77 73 76 73 80 69 61 50 42 39 37 27 35 46 38 60 90 96 97 100 99 96 92 95 90 98 97 98 87 27 24 21 19
27 39 46 50 62 71 69 58 51 51 49 62 64 66 56 40 26 23 18 16 16 14 14 16 17 22 44 68 88 95 96 90 91 85 93 83 62 40 33 28 27 30 23
11 11 13 18 22 24 21 23 27 29 33 32 26 22 21 21 20 19 18 17 18 18 18 20 26 34 46 57 64 75 90 94 89 97 95 80 86 43 69 44 39 36 29
18 18 18 19 19 21 22 20 18 17 19 19 20 22 22 20 20 19 18 17 17 21 26 26 27 31 44 46 55 73 78 87 94 97 100 97 68 90 63 73 52 48 40
19 17 19 20 23 25 28 31 29 28 28 27 25 24 23 22 19 21 28 36 42 44 42 42 51 63 64 55 68 85 87 89 90 100 100 100 84 78 100 98 100 83 46
19 20 22 25 26 25 23 22 23 23 24 25 28 29 25 26 31 34 39 42 38 38 50 54 54 68 65 79 96 97 98 100 100 99 61 52 81 100 100 100 92 75 76
31 29 27 26 25 24 23 22 23 23 22 25 33 40 42 46 40 42 39 41 48 56 55 63 68 75 82 91 94 100 84 100 100 77 86 100 100 100 100 100 96 78 70
32 29 27 26 26 24 23 22 24 28 31 40 52 61 55 51 49 44 53 54 53 51 67 85 87 92 95 95 100 100 100 100 56 79 99 100 100 100 100 100 98 92 83
37 33 31 30 29 27 29 28 31 30 47 59 67 64 53 52 45 52 60 60 63 74 87 87 84 87 94 100 100 100 100 100 100 100 100 100 100 100 100 100 100 100 100

GFSMA_500_rhum_081.txt.gz
RH
26 22 20 18 14 13 13 13 13 14 15 16 18 17 20 20 18 19 18 20 21 23 24 25 27 26 23 22 25 33 40 42 45 43 48 43 38 42 49 56 54 36 36
31 26 21 19 16 14 14 22 27 15 15 17 17 18 20 20 20 21 22 26 25 28 30 33 33 28 25 27 25 33 37 42 48 45 46 40 43 50 53 58 58 40 43
32 30 24 19 17 14 28 47 13 14 15 18 17 17 20 20 20 21 23 23 28 30 32 30 31 26 26 25 28 30 35 45 49 44 50 42 46 51 59 63 63 44 45
32 28 24 19 23 23 88 23 14 13 14 15 16 21 24 24 22 21 20 21 23 24 29 26 23 21 23 24 27 33 42 50 49 46 48 45 46 50 55 64 67 54 45
39 29 27 48 20 82 60 15 15 15 17 22 32 42 51 30 26 24 22 21 20 19 15 16 14 17 21 26 32 41 55 53 51 52 51 46 44 55 54 62 66 62 48
50 41 48 56 33 91 28 44 27 35 40 41 45 52 48 30 26 23 20 18 17 16 16 14 17 36 49 61 64 63 57 59 58 55 57 51 55 54 59 65 68 67 61
57 80 91 75 90 93 78 76 84 68 45 75 46 60 36 23 20 19 19 24 29 29 31 36 44 71 69 70 68 70 62 60 55 54 60 54 57 61 63 69 66 66 67
93 94 96 91 91 95 93 88 84 72 87 69 70 49 31 34 35 36 39 38 38 38 42 50 67 67 75 68 58 60 51 47 52 58 58 56 58 61 58 65 66 58 54
92 94 96 95 84 97 96 99 96 96 86 79 87 86 84 74 68 77 77 73 61 61 61 67 77 76 69 59 50 51 48 47 52 56 66 67 63 65 68 65 64 58 54
95 95 96 95 94 96 95 96 96 98 98 98 96 96 92 93 87 88 96 94 87 87 84 85 82 74 68 59 57 59 55 50 50 54 57 73 69 74 78 77 66 60 58
97 96 96 96 94 96 95 96 94 96 96 96 98 96 96 95 98 98 93 95 100 93 86 90 84 83 77 72 73 67 58 51 48 48 55 67 70 69 80 85 79 72 71
96 94 96 97 96 94 96 96 96 95 97 96 97 96 96 97 97 98 96 99 89 97 95 90 87 85 84 81 74 67 59 52 47 44 46 52 56 58 72 94 93 93 94
96 97 97 96 92 96 96 96 96 96 97 97 96 97 96 97 97 97 96 96 96 97 97 100 94 90 82 77 74 68 70 64 58 52 38 41 38 50 72 89 95 97 93
96 95 96 95 96 97 97 97 97 97 96 95 96 96 96 97 96 96 96 100 98 97 95 85 80 86 78 74 63 59 56 57 50 42 39 38 41 50 74 87 95 100 98
73 92 91 91 90 96 92 90 77 91 90 95 96 96 96 96 98 98 96 96 96 96 90 91 86 72 58 45 40 40 38 34 31 32 37 47 53 57 83 88 95 99 95
48 35 45 42 51 72 63 67 68 60 54 50 58 53 77 95 96 95 92 92 91 88 71 68 60 56 50 44 41 35 32 28 20 18 17 18 32 63 82 91 96 100 97
46 48 28 25 26 30 33 31 34 37 34 32 30 30 35 55 73 78 58 39 32 26 24 30 30 30 22 18 18 17 17 17 18 17 17 19 21 39 80 96 99 100 98
34 33 28 25 24 24 27 22 27 26 31 34 43 46 42 43 41 30 19 17 18 18 18 16 17 17 18 18 17 17 17 16 16 16 19 28 48 57 75 100 98 92 98
34 31 26 24 23 23 20 16 13 12 16 19 20 14 12 12 12 12 13 13 12 13 13 15 15 14 15 16 15 13 12 12 16 21 28 36 47 66 79 100 99 100 98
32 30 26 25 21 20 19 19 18 15 13 13 11 10 12 14 14 14 15 16 17 18 17 15 13 14 14 14 15 15 19 28 28 29 32 36 46 60 79 97 99 98 100
38 35 36 33 28 23 20 20 18 14 12 12 12 13 14 16 18 20 19 17 15 13 13 12 11 10 12 16 19 26 30 26 27 37 42 51 58 68 78 83 82 98 91
44 43 43 46 46 43 34 25 19 13 12 15 17 17 18 20 21 19 17 16 14 12 12 11 12 16 28 34 32 29 27 32 47 49 50 62 69 86 91 97 100 100 58
42 42 44 45 47 47 44 25 18 19 20 23 21 23 21 21 22 19 17 16 13 16 15 16 25 32 32 28 32 30 33 33 52 56 66 81 94 98 88 99 100 100 100
63 63 64 69 61 57 51 35 21 17 22 23 21 19 22 25 22 20 21 17 18 19 35 38 36 30 25 42 38 36 47 57 67 73 82 93 96 96 99 97 96 97 100
55 67 77 87 91 70 44 31 24 21 23 24 20 23 29 28 25 24 23 22 22 22 42 45 44 37 26 31 38 46 54 65 70 85 95 99 100 93 100 100 100 99 100
15 26 44 56 71 97 88 74 65 55 49 45 39 39 37 32 29 29 29 26 24 29 46 44 48 46 39 40 47 58 65 66 70 75 80 93 96 99 100 98 100 100 100

GFSMA_500_rhum_084.txt.gz
RH
45 40 29 22 20 18 17 14 14 14 14 12 12 12 16 16 18 21 20 20 22 21 22 21 24 27 26 27 26 24 24 25 30 33 40 44 44 44 42 45 46 47 50
40 32 27 22 23 18 16 16 14 14 14 46 38 13 16 16 17 20 21 21 21 22 24 23 25 28 24 26 24 22 24 27 32 36 48 52 46 46 47 49 49 53 62
50 37 27 22 23 18 16 16 16 15 27 82 30 15 18 18 18 20 23 22 22 22 22 22 22 23 23 20 16 15 20 20 29 40 52 51 45 49 49 49 51 57 60
55 46 33 24 20 20 18 17 17 18 51 84 18 16 16 17 19 24 38 39 25 23 22 22 22 22 19 16 14 15 20 27 38 53 54 49 47 49 47 48 54 55 58
60 47 33 27 22 23 22 19 22 33 88 54 20 16 16 18 24 35 50 42 27 26 25 23 20 17 15 14 16 34 47 50 53 53 49 44 46 46 47 47 51 53 57
76 59 35 32 30 27 28 22 68 71 93 36 19 18 17 27 36 44 57 45 28 22 18 18 18 21 22 30 43 56 55 57 54 53 41 40 42 47 49 49 54 56 56
93 93 86 50 53 74 58 30 80 77 95 31 75 28 60 43 66 69 62 43 23 21 22 30 41 43 39 39 50 63 65 60 48 43 43 44 44 45 48 59 64 64 64
97 97 95 93 93 88 59 71 95 92 95 92 89 91 56 58 78 58 66 33 38 37 41 40 51 43 42 45 46 64 59 59 49 48 48 48 49 47 51 55 74 75 72
95 95 96 92 93 95 97 96 94 95 96 96 93 96 89 90 72 86 67 69 69 75 86 81 82 79 77 74 69 63 58 59 54 55 57 56 47 46 46 52 62 74 79
95 95 94 94 94 94 96 95 94 90 97 96 98 97 97 95 83 82 96 91 93 92 83 90 88 82 74 74 71 68 67 73 69 70 67 56 56 51 48 48 54 69 97
95 94 92 96 96 96 97 96 96 96 96 96 97 97 97 97 94 88 93 96 95 86 81 87 93 87 76 76 86 84 86 89 81 73 64 59 54 50 52 47 43 66 82
96 97 86 95 96 95 94 98 98 97 96 96 96 97 97 97 97 97 97 96 97 98 98 88 87 89 93 94 98 93 89 78 65 62 57 51 50 54 50 45 41 49 64
97 92 99 98 97 79 59 89 81 85 94 96 97 96 97 97 97 97 94 97 96 96 100 100 90 87 87 89 87 80 74 69 61 56 44 39 43 48 38 38 41 43 54
100 99 98 95 98 89 94 92 98 98 97 97 96 97 97 97 97 97 97 97 96 96 94 90 100 96 90 80 73 63 54 47 41 37 33 30 29 26 21 20 19 32 62
96 95 97 96 96 95 97 96 95 96 96 97 96 96 95 96 94 94 87 94 96 97 98 95 83 75 63 60 45 38 36 32 30 25 21 16 15 15 15 16 16 18 46
95 94 96 96 94 88 95 93 90 92 95 95 97 94 89 88 81 66 64 54 58 81 79 71 65 46 25 28 30 22 16 12 12 14 15 16 16 16 16 15 16 17 23
88 88 88 76 85 79 72 59 88 82 90 88 83 56 52 58 55 43 35 29 30 29 26 23 17 14 12 13 12 12 12 11 13 14 14 12 11 11 19 26 25 28 29
64 64 62 72 65 65 59 50 50 55 50 45 40 39 44 36 20 21 22 22 22 18 16 13 13 13 14 13 13 12 11 9 8 10 13 13 16 22 29 30 42 47 61
34 35 34 36 37 40 36 32 29 27 28 29 29 26 18 15 15 14 14 13 12 13 13 12 14 14 12 10 9 8 8 8 10 12 17 20 28 29 33 35 39 60 75
29 32 29 35 35 30 30 26 24 25 21 20 18 17 15 14 13 12 12 12 12 12 14 15 14 11 11 10 9 7 8 12 16 22 22 25 25 31 39 42 52 55 76
30 30 30 32 35 34 34 35 34 34 25 21 20 22 24 17 13 13 13 14 14 14 17 15 12 12 10 10 9 9 17 24 23 24 23 24 31 44 46 55 58 60 77
42 45 47 47 47 42 40 41 42 42 45 46 31 23 19 17 16 15 16 17 18 21 18 14 14 13 10 11 11 16 24 23 22 20 22 30 32 49 56 61 76 83 84
33 34 36 36 36 39 43 44 43 43 42 44 45 34 21 20 21 22 20 19 21 22 21 17 16 14 14 12 14 18 26 23 26 27 39 38 50 56 70 87 88 81 72
16 19 23 30 36 46 57 66 69 66 58 54 50 42 25 21 32 28 25 20 20 22 24 21 18 18 16 16 24 36 30 26 29 35 48 55 59 63 86 96 94 100 100
6 6 6 6 6 9 19 38 52 76 85 61 47 34 23 20 26 29 26 22 20 24 26 24 20 22 30 37 31 48 40 30 23 44 55 58 62 72 81 85 97 96 95
17 14 9 8 7 7 7 10 32 47 58 84 78 53 52 43 41 26 24 21 25 31 29 26 23 25 31 48 41 44 40 33 41 43 59 72 63 79 86 84 94 100 100

GFSMA_500_rhum_090.txt.gz
RH
53 74 59 54 49 45 39 31 24 18 16 16 15 15 15 15 14 14 13 14 16 16 20 21 24 25 25 22 21 20 20 20 20 19 15 8 10 20 26 34 42 32 32
90 80 94 59 51 48 43 36 27 21 17 16 15 15 15 15 15 14 22 21 15 16 17 19 23 30 38 30 24 22 22 21 19 16 12 10 12 23 26 40 38 34 35
92 77 82 72 56 50 46 40 33 24 17 15 15 14 15 17 17 32 59 56 24 17 18 18 22 33 49 45 31 26 24 22 17 14 15 24 27 26 39 44 37 38 40
72 76 89 83 66 56 52 47 40 30 20 14 14 14 15 16 18 55 70 72 38 22 20 19 23 34 50 58 49 29 21 17 16 18 32 37 31 34 48 43 41 43 46
88 75 96 86 74 62 57 52 42 29 18 14 13 14 15 16 18 23 48 84 39 25 24 21 24 35 49 61 60 28 22 20 23 31 38 40 38 51 48 48 48 50 54
94 91 95 97 76 72 66 55 40 27 17 15 14 14 15 17 19 25 43 80 51 26 23 22 38 42 65 70 65 29 34 36 38 55 54 53 51 55 46 58 57 61 59
93 94 86 84 79 77 71 50 38 31 22 17 19 18 17 18 30 67 39 34 94 36 33 33 59 49 63 67 67 43 52 55 69 66 61 60 61 59 54 62 66 64 64
96 95 95 92 95 92 86 75 61 36 27 18 31 19 22 26 76 89 69 58 82 88 56 56 71 49 72 75 62 65 72 76 73 69 67 64 59 60 55 69 64 66 62
95 96 97 96 95 96 95 95 85 75 52 75 75 43 67 85 83 81 92 95 97 86 85 79 79 84 80 85 86 79 80 82 73 68 71 69 62 65 64 67 63 60 54
96 97 95 97 97 98 100 99 96 96 95 97 98 97 93 96 94 96 96 97 95 95 87 83 78 91 93 94 93 87 84 84 82 76 79 76 71 68 69 64 56 50 41
96 97 97 97 97 97 96 95 97 97 97 95 96 94 97 97 94 92 95 99 95 82 93 95 88 89 92 97 91 87 87 82 84 78 73 74 72 70 65 64 56 45 32
97 97 96 97 97 97 97 96 96 97 96 96 96 97 97 97 90 90 89 94 95 97 85 98 98 95 99 94 95 98 92 80 77 76 75 78 79 70 61 52 39 22 14
97 97 96 97 97 97 97 96 97 97 97 98 96 95 94 92 85 83 77 75 77 93 96 92 93 98 93 93 88 99 90 90 86 90 85 67 50 36 28 20 14 12 10
97 96 96 97 96 96 97 96 97 96 95 96 90 95 83 79 86 82 71 93 79 88 91 90 94 97 94 98 96 92 99 95 86 74 57 49 39 29 17 13 11 10 8
94 96 97 97 93 94 96 97 97 97 96 98 95 100 94 83 98 90 96 89 94 97 95 90 97 96 88 83 90 94 89 92 84 73 40 25 20 16 14 11 8 7 7
97 97 98 98 92 97 97 98 97 98 96 98 99 100 100 100 98 98 95 97 96 97 96 96 96 96 94 92 90 74 61 53 44 34 24 18 16 12 8 7 7 5 6
97 98 97 98 95 95 95 96 96 96 95 99 98 100 96 95 95 98 97 97 97 97 95 96 95 94 90 75 56 38 26 19 20 18 15 12 10 7 7 6 5 6 8
90 94 94 95 96 96 88 84 94 91 91 95 97 97 94 92 92 92 98 94 93 90 84 69 66 59 56 40 26 16 14 15 15 13 13 9 9 9 6 6 6 9 16
57 48 46 51 64 72 70 69 72 76 76 79 80 79 83 82 88 93 97 82 71 74 62 59 48 36 26 15 15 15 14 13 14 14 11 11 8 7 7 8 10 12 12
68 88 93 95 80 77 66 67 64 56 55 56 55 65 76 70 67 54 99 52 50 44 44 39 31 26 21 14 13 14 13 13 15 13 12 11 9 9 10 9 11 13 12
26 28 35 41 47 53 57 61 66 65 59 53 51 48 46 45 44 50 90 55 37 36 42 55 48 33 24 15 14 15 16 18 17 14 14 11 10 12 14 16 17 15 14
5 7 10 15 18 21 22 25 34 43 47 49 50 46 41 40 38 41 36 42 41 38 41 30 36 53 35 22 20 18 22 22 19 16 15 14 12 14 19 21 24 17 23
12 10 8 7 6 5 7 11 18 26 29 31 33 42 46 48 49 48 48 94 53 54 64 59 61 50 30 26 24 24 28 26 22 19 18 16 14 14 16 25 25 20 33
22 16 11 10 8 7 6 6 5 5 6 10 16 24 30 40 48 50 49 52 53 55 100 85 57 50 38 30 32 27 28 28 26 24 21 18 15 15 20 27 25 30 39
21 17 14 13 13 12 12 10 9 8 6 6 6 6 8 14 25 36 36 51 59 61 76 65 72 63 46 40 36 38 32 29 29 28 25 21 17 19 22 26 30 38 46
40 35 35 33 31 28 26 22 21 18 14 11 9 7 7 8 13 17 25 28 30 61 73 69 66 50 44 38 40 42 39 32 31 34 28 24 20 21 28 34 34 45 48

GFSMA_500_rhum_093.txt.gz
RH
57 63 65 70 60 38 40 42 43 45 39 23 18 16 16 16 15 15 16 15 15 13 16 18 19 20 22 27 30 42 42 29 24 23 22 19 14 14 24 30 27 39 36
61 82 64 79 93 95 68 53 43 37 34 28 19 18 16 15 16 16 17 17 17 20 20 18 17 19 20 22 28 47 53 52 36 28 23 16 15 21 33 38 32 42 36
64 77 86 94 68 97 98 54 45 44 38 31 21 19 18 16 15 16 17 18 19 29 48 41 21 20 22 20 23 41 53 61 58 32 21 22 19 27 36 40 42 44 36
93 60 84 78 81 78 96 86 51 48 46 37 30 23 20 17 14 15 17 19 20 46 73 70 52 22 22 20 23 36 46 58 68 38 33 27 29 35 47 47 47 44 44
79 66 77 98 96 96 96 84 69 54 50 42 37 32 27 19 15 14 15 18 20 31 68 66 85 35 22 21 25 39 52 65 70 46 39 45 45 56 56 50 49 51 51
94 92 90 93 82 75 96 85 89 67 57 51 48 40 28 20 14 14 14 16 18 21 28 48 81 59 22 20 34 53 52 60 70 60 48 55 62 57 56 58 52 56 55
88 97 94 94 97 86 97 99 94 91 65 60 51 38 27 21 16 15 14 16 29 49 26 45 89 72 80 26 31 59 65 64 73 64 63 68 64 66 61 60 57 60 57
98 97 95 96 83 95 94 96 98 96 77 69 51 41 38 30 21 16 19 37 29 21 38 75 76 44 76 86 48 67 63 71 72 79 80 75 68 63 65 62 59 59 60
91 96 96 96 94 89 91 97 96 96 86 64 78 85 60 41 34 33 44 73 26 60 80 91 97 95 92 83 80 82 77 77 85 82 81 82 75 68 64 63 61 66 62
97 96 96 97 97 95 95 95 95 94 87 93 93 88 67 86 92 63 85 94 95 98 99 96 98 96 93 96 90 85 84 89 83 85 82 82 81 70 63 67 66 66 65
96 97 95 96 97 97 97 96 96 98 96 96 96 95 95 96 96 93 90 97 92 98 97 99 94 97 97 95 90 76 80 85 88 83 81 80 74 73 72 69 74 72 66
96 97 97 96 95 95 97 96 97 96 98 98 96 96 96 96 94 95 97 95 97 88 90 90 86 90 86 78 97 90 84 88 93 87 80 85 84 76 73 78 55 32 23
96 96 96 97 97 96 97 100 96 95 96 96 97 97 97 97 96 98 95 94 92 94 90 73 69 77 93 85 80 78 76 80 88 91 88 91 87 75 74 58 43 32 27
97 97 97 96 96 97 97 98 97 96 97 97 95 97 99 97 97 94 97 96 94 93 82 73 77 82 81 88 83 77 89 86 90 97 91 95 87 66 51 29 24 19 16
97 96 97 97 97 97 97 96 97 96 97 97 97 97 97 97 98 95 89 92 96 79 87 73 78 92 97 94 97 100 94 83 91 84 70 71 64 54 40 26 32 36 14
97 96 95 97 95 96 97 96 96 96 97 97 96 97 97 97 97 95 94 98 97 98 95 94 99 98 97 98 96 95 91 85 82 75 59 42 36 38 34 26 21 12 8
96 94 95 96 96 96 97 98 98 97 97 96 95 96 98 98 98 97 97 94 98 94 97 84 96 99 98 96 98 97 96 94 88 70 53 42 22 18 16 13 11 8 8
97 99 97 96 97 96 96 96 96 97 97 98 97 98 98 96 97 100 95 98 98 97 98 98 96 97 96 95 92 94 89 76 54 43 26 16 16 14 13 11 9 8 7
74 65 74 75 87 87 92 93 94 96 97 97 94 95 95 94 96 98 99 99 100 95 99 97 96 80 78 72 70 62 50 39 25 15 14 15 13 13 13 10 10 8 8
26 28 31 37 55 68 79 85 84 88 88 90 94 95 87 77 84 94 96 96 96 98 98 97 90 83 77 60 57 47 34 26 18 14 15 14 15 16 12 12 11 9 9
6 6 6 7 10 16 21 30 43 56 65 73 82 92 87 84 75 71 80 85 94 96 99 97 98 75 94 95 71 57 45 33 22 18 17 16 17 16 14 14 13 10 10
15 13 16 16 15 13 10 8 14 16 19 25 33 42 55 69 70 58 56 54 66 76 83 100 100 98 71 87 100 71 55 48 31 24 19 19 21 20 17 16 15 12 12
8 10 15 20 22 21 14 12 11 7 10 19 26 30 31 36 48 54 52 45 38 41 39 53 66 48 58 55 46 51 54 51 39 36 26 25 28 24 21 19 17 15 14
10 10 11 10 15 30 29 18 10 7 6 8 10 18 27 35 43 48 50 50 50 50 48 80 61 89 96 74 50 67 86 59 37 33 34 28 29 28 25 22 20 19 18
8 8 14 39 43 44 40 33 23 16 11 9 8 9 12 19 28 33 37 48 52 55 60 61 58 60 99 100 100 99 86 66 55 45 40 37 33 29 28 26 24 25 25
8 10 17 19 25 33 44 58 46 24 20 15 13 13 12 10 11 15 25 37 44 54 58 66 69 66 60 55 83 100 99 82 73 50 44 46 41 34 32 30 28 31 30

GFSMA_500_rhum_096.txt.gz
RH
12 14 52 71 66 57 44 46 48 40 34 37 39 26 17 17 16 16 15 15 14 14 14 14 15 15 17 18 18 20 23 26 42 51 58 58 38 24 21 20 24 32 39
9 18 42 81 90 73 62 54 45 44 36 35 43 48 29 18 17 16 16 16 16 17 16 17 16 19 20 18 16 20 20 22 31 44 50 59 59 32 37 27 29 40 43
10 18 14 46 96 84 72 69 58 65 53 46 43 42 38 24 18 16 15 15 16 17 18 18 19 26 44 45 30 18 19 19 24 35 46 56 63 50 41 38 46 51 44
11 17 20 37 57 89 95 75 79 97 93 91 48 41 37 29 21 17 16 15 14 16 17 18 20 26 57 71 72 64 33 21 23 33 49 57 62 60 47 51 57 54 48
8 7 15 40 36 93 97 97 89 74 96 79 78 62 44 41 31 25 18 16 13 14 15 17 20 21 53 68 61 63 60 25 22 36 52 56 61 67 54 58 57 53 54
10 8 8 12 44 68 75 78 92 98 95 96 93 85 48 48 44 34 22 17 13 13 14 15 16 18 20 30 42 55 84 70 33 29 48 66 66 67 61 63 60 62 62
11 8 8 10 19 59 77 98 95 73 94 98 96 84 72 54 52 46 31 24 16 14 13 14 17 17 40 83 56 42 76 70 79 47 50 65 70 70 69 69 65 63 61
11 9 10 9 22 75 80 97 77 89 96 94 96 84 82 66 56 54 36 22 16 19 19 16 19 32 83 79 49 46 75 91 67 85 70 74 73 72 74 68 71 69 66
10 58 93 48 62 97 96 94 96 86 92 96 91 95 84 75 69 76 80 58 86 53 42 77 35 71 46 74 73 87 90 83 94 92 93 80 81 78 77 73 73 67 66
25 28 95 98 100 99 92 98 98 96 97 96 96 96 98 96 95 92 86 90 95 79 61 94 76 88 97 95 95 89 96 100 96 93 90 89 80 73 73 74 72 69 69
70 92 98 100 97 96 95 98 96 96 97 97 94 96 94 92 95 98 96 96 95 96 97 98 97 98 97 99 94 94 96 97 94 96 91 89 78 82 73 73 75 76 72
98 97 96 97 98 96 97 97 96 96 97 96 96 97 95 96 94 94 94 87 90 95 97 96 96 96 96 94 94 87 88 96 87 86 90 85 79 80 76 79 84 80 75
96 97 95 98 91 96 97 97 96 96 96 96 96 94 95 96 96 97 94 100 96 98 97 96 98 92 90 84 82 78 74 81 86 86 84 83 75 74 79 84 80 73 45
95 96 96 97 97 97 97 97 97 97 96 97 97 97 97 96 97 97 98 100 95 100 97 94 99 96 93 95 87 85 79 78 80 82 95 95 81 87 90 91 85 86 78
97 97 97 97 97 97 96 96 96 96 97 96 97 97 97 96 96 98 98 98 98 86 86 97 96 87 85 91 89 94 98 97 98 98 99 100 93 90 96 76 56 44 37
97 97 97 97 97 96 96 97 97 97 97 97 98 96 97 97 97 98 98 97 95 92 88 87 96 88 96 92 98 95 97 97 96 98 98 99 94 85 61 52 49 32 27
96 96 96 95 96 97 96 95 96 96 96 96 94 96 96 97 98 98 97 96 98 97 91 88 96 97 96 93 85 97 99 97 95 94 94 94 91 87 73 52 34 24 18
99 98 96 94 95 96 97 97 97 97 97 98 97 96 96 97 96 96 96 97 98 98 97 96 97 97 96 96 96 100 99 97 99 99 98 94 77 56 38 27 14 14 12
27 30 52 72 84 92 92 91 95 95 96 97 96 97 97 97 96 96 97 94 97 98 98 95 98 97 98 98 100 100 98 98 96 91 75 61 51 40 24 13 13 12 12
6 6 6 6 6 5 7 10 16 25 34 50 79 81 79 93 96 97 96 98 96 96 98 96 96 98 97 98 98 96 97 97 89 84 70 49 31 20 14 14 13 13 13
8 8 8 9 9 9 9 8 6 6 9 15 27 38 64 61 60 89 89 97 95 94 97 98 98 98 98 99 96 98 97 92 71 62 57 54 40 31 19 14 14 15 15
6 7 7 8 9 9 9 9 10 13 14 12 9 8 10 23 41 45 60 90 96 94 93 96 96 100 98 98 99 99 98 100 90 93 100 95 64 44 29 18 16 19 19
8 8 8 8 9 9 8 8 8 9 11 14 18 15 12 12 14 21 36 44 47 65 86 94 88 90 98 99 100 96 99 97 94 58 52 47 48 42 34 24 20 21 23
8 8 8 8 8 7 7 8 9 9 9 12 21 27 15 10 18 25 38 41 47 56 53 55 76 86 89 59 92 88 90 94 95 96 66 65 69 50 34 30 28 25 26
10 9 9 8 8 8 8 8 8 8 7 7 6 8 19 29 20 10 16 30 45 54 64 63 65 55 47 52 72 82 98 80 100 100 99 95 93 68 51 41 37 33 28
12 11 10 10 10 7 6 5 4 3 3 3 5 12 10 13 38 23 14 11 21 40 56 68 75 70 100 79 100 100 100 96 100 98 100 99 99 87 82 56 44 41 37

GFSMA_500_rhum_099.txt.gz
RH
48 52 50 42 40 42 57 60 58 43 38 40 46 42 38 35 28 18 17 16 16 16 16 14 14 14 15 15 17 17 17 16 16 18 20 24 34 42 48 55 53 44 37
29 23 24 43 30 22 43 55 72 74 54 39 38 48 47 41 34 23 18 16 16 16 17 17 17 16 17 17 18 22 25 24 25 24 19 19 22 33 48 54 56 52 48
21 11 13 13 11 17 33 54 88 85 73 61 46 50 48 48 37 34 22 16 16 16 16 17 18 18 18 19 19 25 46 63 67 66 58 37 21 27 46 57 59 60 52
12 12 13 11 10 9 13 34 72 89 97 89 96 79 66 52 49 55 46 23 16 15 15 15 16 18 19 19 20 22 41 76 70 56 57 68 31 24 34 54 64 61 57
17 11 10 12 9 9 9 11 26 43 86 95 96 88 92 97 64 48 44 32 22 18 15 14 14 15 16 18 19 20 24 44 37 39 50 67 76 75 57 42 63 61 58
19 18 13 9 9 8 8 8 10 31 49 88 95 96 89 96 96 64 56 39 32 25 21 18 14 13 14 15 16 18 39 34 44 77 62 61 86 76 72 57 66 62 60
27 24 14 9 8 10 11 9 8 9 17 82 96 96 97 97 94 86 97 90 46 37 28 22 19 14 13 14 14 15 47 56 41 87 51 48 56 86 78 74 73 68 65
24 22 13 9 8 10 12 10 8 8 12 52 90 89 94 95 89 99 96 87 64 45 52 28 23 24 19 23 41 25 38 38 44 64 76 75 79 84 80 79 80 79 65
21 13 10 9 10 12 13 12 12 14 31 54 55 65 71 78 97 96 96 95 95 88 48 60 76 69 70 74 45 38 55 66 70 95 85 82 89 88 90 86 87 77 67
30 19 13 13 13 13 10 24 85 90 51 66 79 90 98 98 90 92 95 94 99 89 92 92 93 94 95 93 72 79 96 91 89 91 88 89 97 97 96 94 88 74 69
26 18 16 16 17 33 34 46 96 100 86 99 96 96 97 97 96 96 98 96 94 96 96 96 97 95 96 96 97 95 96 97 88 84 83 90 92 96 95 91 79 80 75
27 32 40 34 54 49 89 94 99 97 98 94 91 96 96 96 97 96 96 96 97 96 96 94 96 96 98 96 97 96 95 90 93 92 84 80 81 85 88 84 77 75 66
73 74 78 83 97 97 98 97 96 96 96 97 97 96 97 97 96 97 95 96 96 97 97 96 97 96 96 97 97 97 92 88 86 84 80 77 72 76 81 83 89 91 74
83 81 78 92 98 96 97 92 97 98 97 98 96 96 96 96 96 96 95 97 97 98 96 96 98 97 97 98 96 93 87 84 77 78 91 91 93 90 91 92 96 99 85
87 92 90 96 96 98 97 96 97 97 97 97 97 97 97 96 97 97 97 97 97 97 93 96 97 97 97 94 86 88 89 83 84 83 96 94 94 98 86 95 98 98 88
91 98 97 98 97 96 97 96 97 96 96 96 97 97 97 97 96 96 96 96 96 97 93 98 100 97 97 95 85 85 92 86 88 82 87 95 96 94 99 94 98 94 77
96 98 98 97 96 96 96 96 96 96 96 96 96 96 96 98 96 97 97 97 98 98 97 93 89 90 97 95 89 80 77 97 98 92 90 99 96 98 95 93 95 87 84
96 97 96 94 99 97 100 97 97 97 98 97 97 96 97 97 97 96 97 96 96 96 97 94 97 99 98 98 100 95 96 98 99 93 94 96 93 89 98 98 98 88 61
26 25 27 22 21 24 46 33 32 51 72 62 70 78 90 89 95 95 89 97 97 97 97 96 97 97 96 97 98 97 96 93 93 96 100 100 99 96 94 89 66 51 39
7 6 6 7 6 6 6 5 5 6 7 8 9 14 16 18 31 40 67 96 98 87 82 95 97 96 97 97 96 96 98 98 93 96 98 98 97 96 75 67 56 35 17
12 11 10 9 8 8 7 7 7 7 7 7 7 7 7 7 7 8 11 18 24 51 84 83 90 96 96 98 99 97 98 98 99 97 99 99 94 88 90 78 55 41 27
13 12 11 11 10 9 9 8 9 9 9 10 10 10 9 10 10 9 8 8 8 15 27 57 56 62 84 96 95 98 98 97 97 100 98 96 98 97 99 85 78 59 43
16 15 13 12 12 11 10 11 11 11 10 10 11 11 10 10 10 10 11 10 10 11 12 30 44 56 69 84 96 95 98 98 98 99 99 98 100 98 90 85 56 41 36
18 17 17 16 16 15 13 12 11 10 10 10 9 9 9 9 8 8 7 6 7 10 15 13 14 32 50 60 78 95 98 97 95 97 100 97 99 90 92 60 59 60 49
26 26 21 20 20 19 15 15 14 12 11 11 11 10 8 7 6 5 5 4 4 4 11 17 15 16 30 46 53 58 93 98 98 97 98 90 95 96 95 98 99 94 55
48 42 38 33 32 26 25 24 23 21 16 12 9 7 5 4 2 2 3 3 3 4 12 18 18 14 24 39 56 52 54 84 100 97 100 97 100 95 95 100 100 98 68

GFSMA_500_rhum_102.txt.gz
RH
58 49 30 35 44 57 59 38 37 41 46 46 38 34 38 38 39 37 34 30 21 17 16 16 16 16 15 15 15 16 17 18 19 21 20 24 47 54 41 27 22 34 50
64 38 37 28 35 57 68 60 54 45 47 48 52 44 38 43 43 45 44 36 28 18 17 17 17 17 17 18 18 18 18 19 19 26 39 57 66 52 56 66 38 25 33
48 30 29 48 23 26 32 59 64 44 22 27 57 67 69 45 42 49 49 44 35 21 16 16 16 17 18 18 19 19 20 19 20 22 36 65 58 60 42 58 64 63 56
47 33 27 29 22 19 26 34 42 24 19 17 37 75 94 78 65 45 51 51 46 26 17 15 16 16 16 17 18 19 19 20 20 22 28 38 46 28 46 72 64 72 69
75 43 39 29 24 13 10 17 26 20 15 18 29 64 93 96 96 90 72 61 59 56 44 29 16 16 16 15 15 16 17 17 19 20 21 32 43 41 52 73 61 60 72
53 46 41 33 28 22 19 11 9 11 11 11 14 42 72 82 94 91 96 96 81 85 90 51 23 14 14 16 14 15 28 24 18 17 17 21 38 61 47 53 78 72 77
36 38 34 32 30 27 24 20 13 9 9 11 10 9 9 10 29 75 98 97 91 97 95 70 79 37 18 15 15 14 14 16 19 15 16 19 32 42 43 56 66 66 85
44 37 35 32 30 30 30 28 20 10 9 9 11 12 9 9 9 29 80 94 94 96 96 91 93 91 44 30 29 29 26 25 23 19 36 27 32 64 81 68 77 88 92
57 46 38 36 36 37 36 30 19 9 8 9 11 18 17 14 11 20 68 93 97 96 96 95 96 94 86 84 78 56 44 75 58 65 90 81 91 87 85 81 92 95 93
57 54 49 46 43 38 32 20 13 9 10 12 20 46 43 32 19 24 44 89 92 94 96 96 96 94 96 96 80 70 92 96 96 96 93 94 93 75 80 84 96 95 86
56 53 50 48 44 39 30 24 17 15 17 15 22 61 72 67 57 61 72 75 93 96 98 95 94 96 96 97 98 96 96 99 98 93 88 95 95 83 87 83 86 88 80
48 47 45 42 40 39 34 22 17 16 19 23 46 96 95 98 91 89 98 97 96 96 96 96 96 97 95 96 96 97 95 97 98 93 88 92 96 85 80 74 80 72 72
34 35 31 27 25 25 33 38 31 36 42 61 96 97 94 98 98 96 94 98 96 97 95 96 97 97 96 96 96 97 97 97 100 95 95 95 95 82 84 81 84 89 83
61 88 88 87 97 53 74 88 99 86 79 98 100 96 97 97 98 100 96 97 97 96 96 97 97 96 97 97 96 97 97 97 97 99 97 94 97 90 83 91 87 83 77
88 96 98 99 99 98 94 92 96 98 98 98 100 94 93 96 96 96 97 96 96 95 96 97 96 97 95 97 95 96 97 100 96 97 93 93 90 85 87 95 98 95 88
100 100 98 98 97 98 97 97 97 96 96 97 95 96 95 97 97 96 96 96 96 97 93 96 96 96 96 96 96 97 97 97 94 95 89 86 84 86 83 93 100 98 95
100 100 97 97 98 98 97 97 98 97 98 96 97 96 97 97 96 98 98 98 98 97 94 98 97 97 96 97 96 91 87 89 93 95 83 79 73 74 97 100 99 93 86
97 96 97 99 98 97 97 97 97 97 95 99 96 97 97 97 97 97 97 97 97 96 97 96 98 98 97 94 96 94 88 91 86 91 82 79 88 97 98 96 92 93 93
9 9 13 15 27 22 16 13 12 39 26 20 28 55 78 94 94 99 98 96 98 98 94 53 34 67 94 98 98 97 96 92 97 96 92 97 97 100 100 96 94 98 99
10 9 8 8 8 7 7 6 6 7 7 7 8 8 8 8 10 11 10 14 21 26 82 63 61 88 98 97 86 77 84 96 98 94 89 93 77 82 74 85 99 100 98
12 12 12 11 11 10 10 9 9 9 9 8 9 9 9 9 9 9 10 10 9 9 8 8 8 10 20 41 75 91 86 100 97 96 97 98 97 94 90 91 98 99 97
19 18 18 18 18 17 17 16 16 15 14 12 12 10 10 11 10 10 10 11 11 10 10 10 9 9 9 8 10 11 32 57 93 98 100 98 93 97 97 100 100 96 84
24 27 29 30 30 28 28 25 22 20 21 21 20 19 18 16 15 14 14 13 12 12 11 10 9 8 8 8 9 8 9 14 34 57 100 98 96 94 99 98 98 97 96
34 34 35 36 40 42 41 42 40 39 35 34 33 34 32 33 31 27 22 19 16 14 12 11 9 7 6 6 6 6 9 10 9 18 24 89 96 96 96 98 98 98 97
32 32 34 38 46 56 65 63 60 58 55 51 50 47 41 38 35 35 31 30 30 26 20 14 10 8 7 5 4 3 5 8 9 12 20 24 77 96 98 95 99 97 99
75 75 78 80 77 72 75 69 62 54 55 52 55 53 47 43 40 38 36 34 30 31 27 20 14 9 6 4 2 2 6 8 16 16 16 41 66 100 95 100 96 97 98

GFSMA_500_rhum_105.txt.gz
RH
90 49 74 58 57 54 49 54 68 69 67 50 42 41 38 35 30 29 32 33 31 27 25 22 16 16 16 15 15 14 14 15 15 17 19 19 22 24 37 59 61 52 45
74 97 71 84 70 60 64 53 52 64 64 72 71 60 53 48 47 38 33 37 40 38 38 33 25 17 17 16 16 16 16 17 17 18 19 20 21 25 38 62 63 36 33
31 36 95 79 89 92 62 39 53 58 66 74 74 71 60 26 26 41 41 41 44 46 46 45 36 21 16 17 17 17 18 18 19 19 19 20 20 22 37 59 51 43 46
47 39 32 45 55 96 59 31 39 40 50 70 63 75 69 48 21 31 40 94 92 47 49 53 51 45 22 16 16 17 18 18 19 19 19 19 20 20 31 35 28 41 60
51 53 43 42 38 89 64 42 30 40 46 46 49 61 57 25 16 35 81 70 89 71 86 73 61 62 58 26 15 16 16 17 19 20 18 18 18 18 22 24 25 28 54
7 36 56 49 42 44 78 53 36 29 29 23 16 20 46 26 14 22 31 74 99 98 95 92 88 84 92 82 43 18 14 16 21 37 49 34 22 20 19 18 18 20 47
9 7 12 52 53 42 43 87 58 36 32 27 20 14 13 21 13 14 11 40 51 97 93 96 95 96 97 98 84 50 23 18 18 32 57 47 42 36 18 20 31 56 76
14 11 8 7 42 55 42 44 37 35 33 31 30 26 20 13 10 9 10 11 12 13 11 39 64 94 96 95 97 94 80 57 17 26 28 72 85 49 40 54 89 87 76
19 16 11 7 6 31 55 46 38 35 33 32 31 32 32 29 11 10 9 11 13 19 19 14 39 83 96 96 96 96 89 94 73 74 93 93 89 92 86 95 90 78 84
20 17 10 7 6 13 49 54 42 42 44 38 40 37 26 17 10 9 11 20 26 25 28 24 23 76 97 94 97 97 97 96 94 95 96 95 90 96 98 99 79 73 86
18 12 10 8 8 26 52 59 52 59 66 59 41 34 26 15 11 13 16 18 67 49 47 53 39 60 95 90 92 95 97 97 93 94 95 96 96 95 98 98 77 77 78
12 10 12 16 31 49 59 64 74 76 66 43 38 32 26 23 27 23 24 58 76 85 95 98 91 96 89 94 96 95 95 98 96 96 95 95 96 89 97 97 86 78 76
24 30 34 37 44 48 50 52 53 52 40 38 35 32 28 28 39 55 64 84 81 95 97 98 100 97 94 94 94 95 97 96 97 97 98 97 96 93 96 98 96 85 83
49 60 50 65 54 47 40 37 38 57 34 64 85 92 90 98 99 80 94 100 96 95 96 94 96 91 95 98 96 94 96 97 97 97 99 97 94 96 97 97 97 90 92
99 98 90 67 65 62 99 97 96 98 86 81 95 95 100 93 99 98 97 97 94 96 95 95 98 97 98 96 97 96 97 98 98 97 96 97 96 96 96 98 98 96 89
98 97 99 96 100 100 99 97 99 97 98 98 98 97 97 97 98 100 97 97 98 96 93 97 98 96 96 96 97 96 96 96 96 97 96 96 96 97 96 96 96 95 92
97 97 94 97 98 99 97 98 97 97 97 98 97 97 98 96 97 97 97 97 98 97 92 100 96 97 97 96 97 96 96 96 95 97 96 97 96 95 96 97 95 98 96
94 91 90 97 98 97 97 97 97 97 97 97 98 97 97 96 97 96 97 97 97 97 96 96 95 94 96 98 95 95 96 96 97 97 97 97 96 96 90 94 94 94 100
12 11 12 15 19 56 15 61 69 71 22 23 34 58 57 44 85 77 86 97 98 97 90 97 97 97 97 78 64 83 86 72 97 96 92 94 94 100 100 92 88 95 98
15 16 16 16 17 16 14 12 9 9 10 10 9 8 8 9 8 10 17 54 40 36 96 90 80 44 50 59 87 27 48 88 98 95 68 39 61 90 93 89 99 99 99
18 18 18 18 18 19 19 20 20 19 18 17 16 15 13 12 11 10 10 10 10 10 11 12 12 10 9 10 10 15 8 13 17 25 29 72 57 62 96 75 65 73 74
27 27 27 27 26 26 26 26 28 30 31 31 29 26 24 22 20 17 14 14 13 12 12 11 11 11 11 11 11 10 9 8 8 8 9 14 40 56 65 73 100 91 80
27 28 28 28 29 29 29 31 32 34 37 40 43 46 48 46 39 30 24 22 21 19 17 16 15 14 13 12 12 12 11 10 9 9 9 8 8 9 10 26 75 67 93
60 61 61 60 60 64 62 59 55 48 42 42 46 56 67 71 69 63 58 48 39 35 32 27 23 21 17 16 15 15 14 12 10 9 8 7 6 6 8 10 26 56 91
62 60 63 64 61 63 62 63 62 62 66 71 74 76 74 75 78 74 69 66 64 60 55 49 45 43 42 42 39 36 31 26 20 15 9 7 6 6 6 9 18 26 40
30 33 35 35 36 36 38 40 38 37 51 65 74 75 78 82 83 79 74 71 66 66 65 63 59 54 48 44 43 40 36 33 29 26 21 11 8 6 7 5 19 53 86

GFSMA_500_rhum_108.txt.gz
RH
27 21 21 20 35 61 50 76 60 60 65 66 67 67 67 56 47 42 40 36 35 34 33 35 30 24 21 20 17 16 16 15 14 14 14 15 16 17 18 20 24 32 43
8 24 30 28 21 80 71 61 72 71 78 78 56 74 76 63 69 68 53 51 47 42 39 39 44 41 35 30 23 18 17 17 17 17 17 17 17 18 19 20 23 32 34
5 9 18 41 32 30 86 96 62 69 83 90 76 54 65 68 70 67 63 52 30 48 46 45 44 47 49 46 39 23 17 17 17 18 18 18 19 19 19 20 21 26 36
10 10 8 8 34 39 31 39 91 92 72 96 78 69 67 72 83 83 74 66 41 26 31 47 79 76 50 50 52 48 32 19 16 18 21 20 19 19 20 19 19 20 19
14 12 9 6 4 13 38 44 36 53 66 66 95 43 62 78 80 83 78 72 55 20 22 57 88 95 82 62 71 68 69 67 38 17 19 22 28 29 22 19 20 22 22
35 20 14 7 5 5 5 11 45 51 41 39 68 82 40 52 58 48 46 50 52 25 14 36 70 97 98 92 91 82 95 91 90 58 39 23 22 23 35 37 34 41 38
69 60 11 7 6 6 5 6 6 17 54 49 42 68 60 35 32 31 22 15 13 14 14 14 14 79 96 97 91 89 98 95 91 97 65 56 34 57 54 50 55 80 88
56 58 39 12 8 8 9 9 8 7 6 44 52 43 43 60 38 34 30 25 22 16 12 11 10 11 14 29 25 15 75 96 97 96 97 89 61 64 58 47 49 76 84
56 60 41 30 12 10 7 8 11 9 7 8 38 52 44 40 35 34 32 31 31 28 23 13 9 10 20 21 22 16 18 56 92 96 96 96 93 88 62 87 75 96 94
67 62 45 24 15 10 8 11 14 11 7 6 22 55 51 43 41 38 36 36 31 29 21 13 11 12 16 28 30 34 22 27 91 92 99 97 94 95 96 96 96 97 95
92 66 44 21 12 8 10 16 13 9 8 8 26 56 58 64 56 49 44 43 36 18 12 12 12 16 19 34 34 40 32 28 84 91 99 96 97 96 96 96 98 98 89
59 51 24 16 11 14 15 14 11 8 10 18 45 65 75 84 87 66 46 41 34 30 38 58 28 29 59 63 62 72 64 71 85 91 94 96 97 96 96 97 97 97 95
70 61 28 14 12 13 14 11 17 19 38 48 62 75 81 82 73 61 44 49 94 40 32 28 32 74 91 89 99 99 99 96 95 97 98 96 98 96 96 96 96 97 97
52 33 29 33 35 52 54 82 96 44 43 52 55 62 49 42 42 87 86 92 85 88 71 44 63 95 100 100 98 98 97 93 94 94 96 100 98 96 96 97 96 97 96
94 93 96 99 98 92 89 96 96 64 93 88 60 79 69 60 68 92 96 96 100 96 91 91 95 100 97 94 96 96 96 97 97 94 91 99 97 98 96 96 97 98 97
98 96 96 98 98 99 99 96 92 98 99 98 97 100 97 97 85 90 99 99 98 98 89 89 97 98 96 93 97 96 98 96 96 91 96 96 96 97 96 95 95 96 97
97 98 98 98 98 98 97 98 94 99 98 98 97 97 97 98 97 98 98 98 98 97 91 92 97 98 99 98 97 97 98 97 100 98 97 96 96 96 97 96 96 95 97
17 18 17 16 12 12 70 96 97 100 99 99 98 98 98 98 98 97 98 97 97 97 96 94 100 98 98 98 98 97 98 98 98 97 97 96 96 97 96 97 96 96 96
20 20 19 18 18 17 17 15 15 31 54 58 92 85 84 56 88 95 95 88 95 98 97 98 99 97 97 97 97 96 98 97 95 94 95 94 95 96 92 87 91 96 96
18 18 18 19 20 20 21 19 19 19 19 18 16 26 16 17 13 10 14 20 18 52 42 83 97 98 99 99 98 98 98 95 96 86 80 88 95 85 47 51 76 88 87
26 27 28 28 29 30 30 32 32 32 31 29 27 23 22 20 19 18 16 13 12 12 11 13 78 74 50 79 100 95 58 27 22 39 18 32 63 65 70 31 41 60 66
67 64 62 58 56 49 44 38 32 29 30 30 33 36 38 38 38 38 33 28 24 23 21 15 12 17 36 32 23 27 11 11 10 13 9 9 7 7 7 9 27 33 40
56 54 57 58 61 63 63 64 65 65 68 67 61 53 41 35 34 34 36 40 44 48 48 42 27 19 15 12 11 11 11 11 10 11 10 9 9 8 8 8 8 8 9
34 32 29 21 14 13 18 24 30 39 53 63 66 67 70 76 77 74 68 55 47 46 52 61 61 55 44 30 22 19 17 15 14 14 13 10 10 10 9 9 8 8 7
27 26 27 32 32 15 14 16 18 17 17 20 21 25 25 27 33 40 44 58 68 76 79 78 76 75 71 65 56 43 36 31 25 24 21 17 14 12 11 10 9 8 8
21 18 19 21 22 21 24 28 37 34 43 42 46 48 47 41 38 38 39 38 34 52 68 73 75 81 78 78 74 70 62 51 41 37 35 29 25 25 19 14 11 8 7

GFSMA_500_rhum_111.txt.gz
RH
4 4 7 14 24 23 20 18 22 44 40 55 65 70 66 61 64 60 54 49 44 39 39 38 34 32 34 35 33 25 20 19 17 16 16 16 15 15 15 16 17 19 21
7 6 4 4 5 11 34 38 33 29 50 67 72 65 80 90 73 70 69 68 68 64 56 48 45 46 41 40 41 41 36 28 23 18 17 17 17 17 18 18 19 20 20
8 8 8 6 5 5 6 20 57 57 60 89 90 78 88 96 96 77 68 64 62 73 69 58 54 42 55 48 42 44 50 48 41 32 21 18 17 18 18 18 19 19 20
9 9 10 11 10 7 10 11 12 27 45 43 72 86 77 83 96 88 90 86 88 93 87 76 61 30 16 28 56 97 83 59 56 52 52 44 28 21 20 25 25 25 22
15 27 26 52 40 18 15 10 8 6 7 22 36 44 64 80 69 83 83 61 82 91 90 93 77 56 22 22 49 89 98 86 61 64 62 64 68 53 33 30 20 22 23
45 45 49 64 73 66 36 16 12 8 4 4 5 10 29 39 46 53 55 65 59 77 68 72 60 52 37 17 33 50 81 97 93 91 85 85 78 73 68 74 61 44 36
44 61 59 65 87 73 65 53 27 9 7 6 5 5 5 6 22 42 40 47 72 50 39 45 38 21 16 21 16 15 63 82 88 92 88 87 93 85 83 95 84 56 64
62 72 83 86 94 93 90 73 41 15 10 10 8 7 6 6 6 10 35 46 47 68 54 46 34 28 20 20 26 12 12 43 43 84 65 34 71 92 97 94 98 86 74
58 97 100 95 100 98 94 78 62 25 14 10 9 10 7 6 7 7 12 32 46 46 49 48 34 32 28 25 19 14 11 10 13 18 22 37 51 75 88 92 97 98 89
62 61 99 99 98 97 85 71 62 42 24 12 9 9 11 8 8 7 7 16 37 47 43 36 34 34 32 27 24 16 11 23 29 25 31 62 40 48 86 97 93 97 97
98 97 90 79 82 64 70 74 60 48 29 14 7 8 13 14 11 9 8 10 39 49 43 39 39 39 36 29 22 29 40 46 40 27 28 61 61 56 93 91 92 96 99
99 99 99 99 90 98 82 67 54 45 25 11 10 14 16 14 11 9 8 17 49 59 67 78 86 72 52 32 24 18 20 29 28 50 46 69 53 66 97 90 94 97 96
76 77 78 76 73 64 52 43 40 36 20 15 13 12 11 10 15 43 37 41 65 73 78 86 70 58 79 81 89 76 53 47 65 63 86 71 57 72 98 97 90 97 97
62 50 46 47 52 62 51 38 32 32 30 32 32 46 62 44 55 59 79 57 95 70 62 53 72 68 80 92 92 51 44 80 94 89 99 98 96 97 93 93 84 96 98
88 98 96 64 93 98 99 99 96 88 92 85 94 100 60 97 95 81 78 88 93 62 61 90 69 85 88 99 95 78 99 99 100 95 100 92 98 98 91 94 100 97 96
95 96 99 99 99 99 99 98 98 98 98 98 92 90 66 97 97 90 81 86 87 57 88 84 96 100 98 95 97 98 95 100 97 96 98 96 98 96 93 89 92 99 96
47 53 43 68 64 45 41 38 28 76 98 96 94 88 90 98 98 98 98 98 98 98 98 88 100 98 97 99 100 97 98 97 96 97 97 97 97 96 89 86 87 94 96
20 20 20 19 20 20 20 18 18 17 16 17 70 96 95 98 98 98 98 98 98 98 98 99 98 98 97 97 96 97 97 98 97 99 100 98 98 95 94 100 95 94 95
24 24 24 23 23 22 21 21 21 22 22 22 21 18 20 62 53 85 96 97 96 98 96 98 96 97 99 97 98 98 97 96 98 98 98 97 97 96 99 96 98 99 98
65 63 60 59 58 59 53 42 33 30 29 26 23 23 24 24 22 20 35 42 29 46 40 66 80 91 92 97 99 98 98 98 97 96 97 98 98 97 97 96 96 96 97
32 31 31 30 29 30 32 37 49 62 67 64 48 32 30 32 32 28 25 24 22 17 15 13 20 28 33 66 66 87 98 98 98 98 98 97 98 96 98 97 98 94 95
30 30 26 24 25 27 31 35 34 28 24 35 57 62 68 66 49 35 32 35 36 29 25 22 20 14 18 22 14 56 81 83 98 98 98 94 84 84 71 96 95 91 78
25 23 21 21 22 22 23 22 22 25 32 32 25 18 40 52 58 64 70 71 51 37 38 41 39 32 24 21 16 13 50 52 59 80 97 81 46 26 41 60 85 65 47
23 23 23 23 24 23 20 17 16 16 18 22 28 25 26 35 39 38 45 63 82 84 74 58 42 46 46 47 41 28 18 20 58 77 77 80 58 15 11 15 20 27 16
22 26 26 23 20 16 15 16 19 22 32 44 49 55 51 57 66 68 58 46 55 56 58 66 77 74 66 47 47 46 50 44 22 14 17 16 24 17 10 11 11 12 11
23 24 22 18 15 20 38 56 64 65 68 69 69 67 68 74 73 75 70 56 49 70 63 45 43 44 50 66 74 68 53 53 58 54 28 16 13 13 12 12 12 12 11

GFSMA_500_rhum_114.txt.gz
RH
6 6 7 6 4 6 11 18 24 46 53 25 18 21 47 55 63 58 51 47 48 49 42 43 39 38 36 35 32 31 34 36 33 29 23 21 20 17 17 16 16 16 17
7 7 8 7 7 6 6 6 28 12 56 70 87 58 36 44 59 72 77 82 70 67 66 66 56 60 50 47 43 43 41 41 41 39 38 33 28 25 20 19 18 18 18
6 7 7 7 8 8 8 8 8 5 8 51 86 93 94 94 83 86 85 94 92 77 70 78 74 77 73 64 57 56 49 48 45 43 45 50 46 40 32 26 23 17 18
7 7 7 7 8 8 9 10 9 9 6 6 14 59 81 82 97 92 91 97 99 95 91 87 88 88 85 80 69 43 24 28 38 48 74 55 55 53 53 46 44 33 27
15 15 12 17 19 48 40 18 18 19 13 10 10 11 20 41 60 56 53 80 83 90 84 91 86 81 86 92 89 61 39 22 43 62 74 75 68 57 66 70 62 60 59
18 18 27 48 61 61 72 74 68 58 53 36 18 15 8 7 12 30 42 50 54 47 62 66 71 75 69 81 82 81 66 35 28 59 62 58 71 75 89 81 84 84 76
16 20 23 52 74 72 89 100 92 86 76 75 58 34 16 11 6 6 6 8 9 25 39 42 46 44 61 64 59 59 48 32 27 24 24 45 63 67 87 83 81 61 82
13 14 14 24 58 94 87 92 98 97 90 84 77 70 57 33 9 8 7 6 5 5 5 10 37 45 44 56 71 55 39 34 23 19 17 22 35 48 73 83 55 64 86
20 24 38 48 28 39 96 100 96 96 95 95 100 91 67 47 25 13 10 8 7 6 5 5 5 13 42 48 55 68 52 33 27 23 36 30 16 21 36 42 47 49 83
35 62 44 82 86 93 96 98 97 98 97 98 99 96 85 61 43 34 16 11 9 8 6 6 6 6 17 40 47 49 45 34 31 29 40 29 22 12 24 37 47 54 56
90 79 57 63 97 100 97 98 98 98 98 97 93 86 79 67 53 43 32 16 10 9 9 9 8 7 11 39 47 42 36 34 32 31 28 44 39 28 48 43 53 74 49
95 100 88 76 90 88 89 95 94 81 84 75 76 72 67 60 57 50 29 17 12 10 9 10 10 9 13 41 58 48 49 48 43 33 26 28 59 67 63 45 54 69 69
68 66 66 90 85 84 92 90 68 63 73 69 74 65 54 48 44 31 17 12 11 8 9 10 16 20 53 79 82 99 89 81 62 53 37 41 54 46 70 76 69 67 69
45 39 42 35 24 34 40 40 43 44 46 41 33 28 30 38 31 22 17 17 13 19 10 40 47 68 84 89 84 98 86 71 71 98 74 93 65 72 96 95 98 75 83
73 78 81 86 88 85 73 81 87 98 98 98 96 99 93 77 85 77 88 88 56 51 59 85 89 98 96 94 98 79 93 86 83 80 90 99 53 98 96 98 91 93 98
43 57 70 60 66 85 80 88 88 86 91 96 82 94 98 99 99 93 98 94 71 91 93 99 81 86 98 99 84 90 98 93 88 98 96 61 87 97 98 89 98 98 92
19 19 20 20 20 21 20 20 21 21 21 19 18 18 21 29 94 99 99 87 91 95 96 100 96 97 95 80 79 97 96 98 97 94 96 88 88 97 98 96 93 96 98
66 64 61 58 53 50 45 42 37 32 27 23 22 23 24 25 23 35 87 90 99 98 98 98 97 99 97 94 96 97 79 89 97 98 91 93 97 83 97 97 99 97 100
33 28 26 26 27 27 29 34 36 44 52 54 54 49 34 28 24 24 24 23 52 96 97 99 98 97 98 97 99 96 98 98 97 98 97 98 98 98 97 98 96 97 97
24 27 29 28 28 27 24 25 26 27 24 25 29 30 36 50 56 43 31 28 24 24 33 46 92 99 99 98 100 97 100 100 100 100 100 96 97 97 96 96 95 98 96
32 31 28 26 26 26 24 24 23 24 24 23 21 20 25 33 33 31 50 59 48 32 29 27 26 32 91 96 98 98 100 100 99 97 98 93 98 98 99 100 97 98 99
31 26 20 16 11 10 10 9 10 12 14 18 18 20 21 20 19 27 33 29 36 63 66 35 34 32 31 28 27 45 87 95 99 86 96 100 98 98 98 97 99 100 94
27 19 12 14 13 12 11 11 14 16 16 15 15 15 17 17 17 20 24 26 29 26 32 68 71 48 35 34 30 21 16 43 37 89 56 90 97 99 98 98 98 100 98
21 17 21 20 16 14 14 16 16 15 19 36 52 59 62 67 65 57 39 40 46 45 36 24 26 64 76 58 39 35 31 22 16 18 32 45 87 96 98 98 98 99 97
28 40 39 23 17 18 18 17 18 33 53 50 31 19 16 14 14 16 24 38 52 66 64 52 42 37 34 59 83 57 41 39 31 26 22 17 64 74 95 98 90 98 93
38 57 33 19 19 21 19 24 39 51 23 11 9 11 13 13 15 15 14 11 9 10 15 37 62 48 38 54 48 60 80 61 41 46 40 26 21 57 85 95 96 100 100

GFSMA_500_rhum_117.txt.gz
RH
7 7 7 7 7 8 12 27 6 11 23 50 29 29 37 32 22 20 24 40 48 46 44 39 38 50 56 42 37 37 38 35 33 33 32 33 30 28 26 23 24 19 18
6 6 6 6 6 7 7 14 17 8 20 16 42 41 33 76 76 87 56 51 62 71 63 59 56 64 80 78 65 57 52 48 48 41 41 40 41 36 34 33 29 29 22
6 6 6 6 6 6 6 6 14 17 16 23 10 25 18 39 86 95 98 95 92 93 91 85 82 77 83 85 84 80 77 73 65 57 52 49 46 42 37 40 42 40 36
8 9 8 8 8 8 7 7 7 8 9 44 24 21 8 9 57 86 96 97 97 95 98 94 98 97 91 88 83 86 93 91 80 65 42 29 35 30 43 55 47 46 47
17 17 20 21 19 18 16 14 18 38 30 24 14 8 8 11 9 9 42 76 93 95 98 98 97 97 96 95 95 98 91 92 97 87 52 30 43 57 57 71 72 56 57
8 10 10 13 19 25 34 51 61 62 76 96 64 44 29 12 14 12 11 14 32 42 66 66 77 99 96 71 56 69 79 76 82 92 89 72 40 36 63 63 69 70 70
8 6 7 9 13 25 51 50 62 81 86 88 94 96 86 69 54 48 20 18 12 10 11 13 24 45 55 50 38 42 49 59 59 66 74 92 61 43 46 44 51 71 80
13 14 13 10 17 31 29 43 60 62 97 87 89 87 91 76 70 73 76 60 29 14 10 8 6 6 6 6 8 17 39 48 52 51 66 64 59 48 39 27 23 50 63
17 15 13 16 17 29 39 42 49 98 68 98 97 92 81 75 89 83 83 80 76 59 34 9 8 7 6 6 6 6 6 13 41 57 55 70 73 53 40 38 25 31 42
73 70 41 16 24 38 42 77 46 56 50 99 97 98 95 85 74 64 81 94 89 64 43 31 17 16 12 10 8 7 6 6 7 27 51 60 73 63 45 53 42 45 25
47 52 62 76 67 58 57 99 100 75 100 100 100 98 99 98 88 65 59 74 83 81 66 41 37 25 13 11 10 8 7 7 7 10 34 50 57 60 58 52 67 59 51
46 46 61 56 53 45 41 74 75 94 94 92 96 96 91 92 72 60 77 57 50 52 59 53 47 36 20 12 10 10 9 8 8 8 19 48 51 50 54 55 64 70 75
46 57 51 45 51 64 84 69 59 58 66 66 70 70 64 45 43 38 46 45 43 45 42 43 44 48 31 13 10 11 10 8 9 9 19 48 49 46 51 66 67 73 95
68 62 61 62 63 70 61 51 37 31 31 33 39 46 40 33 27 27 26 23 22 24 29 30 31 29 19 14 12 12 13 10 12 13 66 80 90 83 66 59 36 99 98
15 18 34 53 64 73 79 89 89 86 85 76 73 74 72 75 77 86 77 77 74 66 64 87 31 32 37 29 33 22 14 51 43 67 81 90 98 81 75 95 69 66 68
50 42 34 29 24 23 21 20 20 19 18 17 18 18 18 25 46 22 14 17 38 60 63 95 96 96 74 91 95 74 94 98 94 94 98 97 96 88 81 96 94 97 77
47 47 45 47 49 49 46 47 48 49 52 51 49 47 41 34 28 25 24 23 22 21 42 99 96 92 100 96 95 80 96 99 96 98 91 74 77 97 78 92 90 99 74
24 22 20 21 22 23 24 26 27 27 25 24 25 26 26 28 27 29 42 56 55 36 24 26 46 97 96 98 99 98 92 95 96 96 90 98 87 88 98 97 96 92 82
21 24 26 27 26 22 21 21 19 19 17 14 14 16 18 20 21 21 20 22 27 33 52 48 28 26 44 97 100 99 97 97 99 100 93 96 94 98 97 97 100 93 92
30 28 26 26 23 20 15 14 15 13 13 13 11 10 12 14 14 16 18 19 22 23 28 32 53 50 30 32 92 98 99 98 99 98 96 89 100 97 98 98 100 98 96
34 30 29 25 22 19 19 23 34 34 23 15 14 14 16 15 14 14 14 15 15 18 23 24 32 39 64 40 30 45 94 99 98 98 100 100 99 99 98 98 98 98 98
42 37 28 25 23 34 46 48 49 36 21 18 17 16 15 15 16 17 21 29 35 28 21 19 22 28 35 54 62 34 29 84 100 98 99 100 98 99 99 99 97 96 96
46 42 38 33 26 33 48 52 44 34 22 17 17 17 22 34 44 48 45 43 43 48 53 48 34 26 23 34 37 69 52 32 57 100 97 100 97 100 98 98 97 98 100
68 62 47 40 35 53 56 49 39 26 20 19 26 38 38 18 12 9 8 10 10 11 10 13 26 42 43 36 31 31 50 65 38 37 89 95 97 96 97 100 100 99 100
82 61 48 44 54 63 57 36 27 20 25 41 28 12 12 18 21 19 16 18 19 21 18 16 12 10 10 24 38 30 33 29 66 58 35 67 68 97 99 99 96 98 99
77 49 47 57 66 69 46 30 22 29 40 18 12 22 24 21 20 17 14 16 16 19 22 28 26 18 12 9 8 21 30 30 25 42 85 39 32 38 39 81 98 95 100

GFSMA_500_rhum_120.txt.gz
RH
6 6 6 6 6 6 7 7 7 7 15 34 38 46 35 51 62 44 29 27 25 26 28 43 47 51 50 44 45 42 42 41 39 39 42 39 33 30 30 32 32 27 26
7 7 6 5 6 6 6 6 7 7 14 19 32 38 37 32 31 42 50 44 68 73 67 37 49 63 70 72 73 75 73 76 63 50 44 52 50 39 36 38 38 39 35
20 18 16 15 12 10 8 7 7 8 8 13 25 41 32 49 49 48 38 66 60 86 98 97 85 78 80 76 81 85 88 89 85 82 81 70 65 65 56 50 46 45 42
11 11 12 13 17 20 19 16 15 14 13 10 10 24 56 54 61 82 33 14 28 98 93 97 90 92 92 92 96 98 91 91 94 90 89 88 85 73 59 43 41 44 38
10 11 8 8 7 7 10 16 22 24 27 38 28 21 18 37 35 37 38 28 11 17 31 87 94 84 90 97 95 95 97 95 97 95 98 91 86 91 79 45 32 48 63
12 12 12 11 10 9 8 8 9 12 46 64 64 74 78 51 59 43 30 30 16 12 13 10 36 91 97 98 98 94 90 88 96 93 88 90 82 76 86 86 59 34 48
10 8 9 14 19 20 15 12 14 25 42 60 84 89 91 88 90 93 86 74 62 56 30 21 14 14 41 48 50 63 61 77 85 85 79 70 64 73 63 66 82 80 52
15 16 35 27 12 11 13 16 14 18 47 59 94 85 88 89 95 89 94 88 96 89 77 68 54 32 20 14 10 10 9 16 28 29 32 36 37 52 62 61 67 74 74
16 22 45 51 50 22 16 13 15 19 35 44 80 95 82 78 71 97 86 73 89 100 98 95 94 83 70 55 33 11 8 8 8 8 14 19 21 25 37 52 60 67 71
22 24 38 43 49 48 40 40 29 31 42 43 54 99 100 99 99 97 98 98 93 91 91 96 95 92 85 78 74 61 27 10 9 8 8 10 13 16 20 23 36 63 78
33 29 27 33 35 36 49 52 58 74 52 48 41 68 68 88 97 100 98 100 94 100 98 95 80 81 94 94 78 57 42 28 15 13 11 9 9 13 15 18 22 32 64
16 32 45 46 49 52 51 46 66 48 96 99 98 97 74 60 74 65 57 70 90 99 95 67 57 77 94 96 84 81 70 57 40 33 15 11 9 13 18 21 23 24 36
28 16 15 20 29 38 48 62 54 47 52 56 56 36 31 55 55 53 48 50 41 47 42 46 39 34 42 43 41 42 54 67 62 46 29 19 10 10 9 15 25 23 30
55 52 48 40 34 28 23 20 22 44 48 40 50 66 68 64 65 67 68 67 68 50 41 56 81 69 60 54 38 32 44 51 52 53 46 30 13 11 10 8 14 20 30
31 27 36 40 38 42 47 50 47 40 34 32 30 27 26 21 20 21 21 18 30 40 67 48 18 19 33 51 71 76 71 44 33 33 31 21 13 12 10 11 12 14 35
28 25 24 21 20 20 19 19 19 20 19 21 26 28 28 27 24 19 22 24 26 30 30 32 31 27 25 24 59 82 85 82 65 64 30 20 18 13 16 21 24 52 80
25 23 23 23 24 24 26 27 25 24 22 21 19 17 17 17 16 16 16 17 17 14 10 12 15 28 42 49 33 63 93 89 99 96 97 90 94 88 71 51 59 94 99
21 20 20 23 25 24 24 24 23 20 15 16 26 28 30 28 24 15 12 12 12 12 11 11 16 18 20 21 33 44 36 93 100 97 99 92 87 79 98 79 75 93 94
22 25 29 33 36 36 30 26 24 21 28 36 46 46 44 43 34 26 20 17 17 16 16 15 14 15 17 20 20 20 43 33 72 99 99 100 95 94 94 99 92 89 98
28 35 40 45 48 51 42 35 28 25 29 42 48 50 48 46 36 25 20 18 16 16 15 15 14 14 14 14 15 19 26 34 39 45 98 95 100 98 87 98 97 99 97
36 42 48 56 68 70 63 44 40 33 38 53 55 50 43 33 25 20 15 16 18 23 28 31 30 30 28 21 16 16 18 30 51 43 55 98 97 98 96 98 99 99 98
40 44 59 75 69 68 53 43 42 48 59 59 56 47 33 22 15 15 22 34 38 32 22 21 20 22 28 41 45 30 19 22 31 60 44 42 96 99 97 100 99 94 98
43 53 81 78 72 70 55 52 61 64 58 56 48 28 16 16 31 34 20 13 10 10 9 8 8 10 10 10 15 30 43 29 25 40 50 52 49 100 99 99 98 99 100
75 86 88 80 80 78 71 74 68 63 58 44 23 15 24 36 24 14 11 12 12 11 10 10 9 8 8 9 10 8 11 26 39 37 33 51 62 63 100 98 99 99 100
97 94 91 86 87 83 81 73 68 66 48 21 19 31 33 15 14 14 15 14 15 17 18 20 18 14 12 12 12 11 10 7 11 23 44 25 60 51 80 99 100 100 100
99 97 93 92 91 89 80 74 70 49 24 20 36 28 14 16 18 21 19 19 22 28 37 41 33 26 20 21 22 16 10 9 7 7 9 27 26 56 57 80 97 100 99

GFSMA_500_rhum_123.txt.gz
RH
7 7 7 7 7 6 5 5 6 6 7 7 7 7 15 36 58 68 69 59 64 60 41 34 37 29 33 40 56 58 62 57 48 42 41 42 40 38 38 38 37 34 31
18 18 18 18 19 20 20 17 12 8 6 6 7 8 10 14 27 45 61 56 71 60 54 43 47 52 53 43 39 63 65 73 74 68 65 64 55 49 47 49 46 41 39
15 13 12 11 10 10 10 11 15 19 20 15 8 8 11 11 15 26 40 48 59 63 60 68 82 84 96 89 79 60 60 67 73 78 84 82 81 81 78 69 63 58 57
11 9 9 9 9 10 10 10 9 8 9 17 23 30 22 28 22 20 39 55 58 63 78 66 34 59 96 92 89 94 89 90 91 96 94 90 89 87 86 86 80 73 63
10 10 9 10 10 10 11 11 17 14 10 8 9 17 37 46 56 34 30 31 43 69 60 49 25 15 82 93 97 98 96 96 100 99 97 98 92 90 92 91 91 92 81
14 13 14 13 12 10 12 10 9 19 23 14 13 32 61 70 78 89 74 67 69 52 66 69 37 28 14 22 26 46 90 99 99 97 98 99 98 97 97 95 90 86 88
18 19 14 16 12 15 26 25 14 9 14 24 18 19 57 68 79 83 90 94 97 95 72 65 72 50 40 25 14 13 16 30 96 92 90 92 93 94 96 96 97 88 78
14 8 14 18 16 18 23 26 31 29 19 17 18 21 25 46 97 97 99 97 98 98 99 96 92 91 87 77 52 25 19 14 14 56 75 71 55 64 73 77 83 83 67
17 18 16 17 22 26 32 34 27 27 41 41 22 26 31 48 73 86 97 99 98 99 95 90 84 88 86 89 88 73 56 42 26 19 16 11 12 17 22 37 44 47 46
24 26 26 20 17 18 21 28 43 42 42 43 54 36 30 44 92 70 96 98 100 96 100 99 98 98 92 95 95 92 86 84 78 76 62 49 22 10 14 20 26 33 37
33 31 26 29 32 30 27 25 22 37 43 37 38 30 32 26 37 39 57 100 95 97 98 94 92 98 98 91 94 83 77 75 81 78 76 76 68 42 16 10 21 26 31
35 38 29 20 13 21 26 30 34 28 35 56 51 58 66 60 54 49 68 63 58 66 73 82 72 72 84 84 92 87 75 81 83 89 80 80 72 42 19 13 12 19 27
33 31 14 14 14 22 25 21 22 33 38 30 30 42 54 64 64 53 42 36 41 49 63 70 61 55 52 52 55 55 62 63 52 56 60 55 53 61 73 47 40 32 29
23 23 16 14 16 17 17 16 16 16 15 17 31 38 37 36 31 30 29 27 27 27 21 23 26 42 68 66 62 76 74 54 54 58 48 32 30 42 41 50 66 57 27
18 21 17 14 15 14 16 17 18 17 18 19 18 17 17 16 16 16 15 15 19 25 31 40 43 43 35 30 38 33 21 19 22 27 46 56 48 30 28 41 53 61 57
16 14 15 13 15 19 23 26 28 26 22 21 21 20 20 19 28 35 40 38 32 24 18 15 14 14 20 27 36 40 41 40 41 39 27 50 71 70 55 35 41 48 52
12 13 13 17 21 28 35 37 42 49 38 26 23 22 19 32 41 47 47 45 43 40 36 29 24 21 16 13 15 18 19 20 25 33 45 40 60 67 70 59 42 36 29
14 16 19 26 34 42 49 58 63 61 58 50 32 26 26 29 31 39 48 47 43 39 36 37 33 28 25 26 22 17 16 15 16 19 25 44 48 82 92 87 78 54 37
20 24 29 35 40 43 57 74 71 63 60 51 44 39 38 39 45 47 43 40 38 38 34 31 28 23 17 16 14 15 15 15 15 16 17 26 42 39 86 93 100 100 66
26 30 34 38 46 56 70 74 71 65 63 56 46 50 55 58 55 47 39 33 26 20 16 15 16 18 26 27 23 19 19 16 16 14 13 14 24 41 76 86 95 98 97
28 31 36 60 90 84 84 83 75 70 67 67 68 65 60 56 48 38 26 16 15 24 33 32 25 19 16 13 14 17 25 32 35 27 14 13 12 20 39 74 98 99 92
33 35 54 78 91 90 87 88 82 78 78 77 71 63 58 49 31 18 12 20 34 23 14 10 10 10 10 9 9 8 7 6 12 20 36 28 14 14 17 43 48 99 100
30 40 65 67 84 87 94 96 89 86 84 77 72 65 48 28 15 15 28 27 14 11 9 12 15 16 14 14 15 14 14 9 6 6 10 30 32 22 18 19 44 67 96
30 54 83 84 97 93 95 95 92 89 88 79 76 42 23 15 18 32 22 11 13 16 18 20 20 20 22 26 30 33 28 18 14 9 6 8 19 32 36 24 21 49 58
32 65 89 91 98 97 94 94 90 90 86 80 50 24 16 22 33 20 10 11 16 23 27 27 28 31 34 37 42 50 49 40 28 17 14 5 6 19 30 41 25 40 50
38 70 85 95 96 98 95 92 91 96 91 59 23 18 22 32 19 10 12 15 20 24 30 37 42 39 38 44 63 67 66 52 39 20 21 13 8 7 18 28 41 33 61

GFSMA_500_rhum_126.txt.gz
RH
18 20 20 19 18 18 18 17 17 17 17 17 13 8 15 26 29 36 39 45 62 77 73 61 40 32 32 32 39 48 48 57 64 57 54 47 44 43 39 39 43 41 38
21 20 18 17 16 14 12 11 11 10 10 11 13 18 18 11 10 25 37 33 40 61 72 79 84 80 70 60 38 36 37 38 53 66 73 75 70 66 59 47 42 41 39
18 14 11 9 9 9 10 10 10 10 9 9 8 8 12 20 21 12 22 27 39 27 29 38 73 84 80 82 87 74 73 81 79 69 73 75 86 86 84 79 70 67 65
10 9 11 12 13 16 15 12 9 9 7 6 10 11 10 12 20 41 25 33 38 28 30 35 49 73 94 95 94 95 98 92 93 98 90 86 87 90 94 96 94 87 81
12 14 15 16 14 13 12 12 11 8 8 10 8 9 15 18 14 20 54 56 50 52 55 47 53 61 65 76 90 72 70 97 97 87 95 100 98 99 94 94 95 92 91
17 14 14 15 8 10 13 15 16 15 16 19 22 14 23 23 30 29 31 53 67 76 76 61 40 31 42 86 97 27 19 79 89 98 98 99 97 99 97 97 96 94 96
16 13 12 14 15 14 14 14 16 17 18 22 23 24 29 20 30 35 37 48 75 92 97 99 98 94 61 40 77 53 37 22 20 22 44 31 78 95 97 93 97 96 98
13 18 17 15 16 17 18 17 17 18 19 20 21 23 34 48 54 54 53 61 83 88 98 92 90 90 93 92 79 61 46 40 33 24 14 10 9 28 61 95 96 94 96
17 16 22 24 22 18 14 9 10 11 17 18 22 30 27 40 33 30 48 51 70 86 74 94 98 95 97 96 96 89 89 85 78 70 52 30 15 10 12 50 84 84 83
19 21 23 23 15 11 7 7 11 12 12 15 17 24 39 50 24 20 26 32 42 86 99 98 97 96 97 98 97 84 81 77 82 85 76 82 67 30 18 14 16 19 25
20 20 22 18 7 6 7 10 12 12 12 16 24 22 26 39 52 52 24 18 27 41 50 70 81 82 86 92 84 84 87 92 99 99 91 76 78 73 74 70 54 41 25
18 21 19 10 7 7 7 8 9 10 11 11 12 19 28 27 30 46 58 50 47 44 32 50 64 62 48 50 74 88 91 81 76 60 80 90 86 84 84 82 79 76 74
21 16 14 11 8 8 9 9 10 12 15 16 16 14 15 18 26 28 28 30 46 59 58 49 40 36 33 32 38 44 53 61 63 53 52 56 68 71 63 65 71 73 75
22 15 12 11 11 11 10 12 15 18 23 25 26 23 18 17 19 18 17 19 20 20 23 21 20 21 26 30 35 35 29 27 49 65 47 38 44 59 57 60 58 74 83
22 16 8 9 10 11 15 20 28 36 45 49 53 54 38 24 21 21 22 21 35 39 43 45 42 38 28 20 17 15 15 20 34 36 49 77 67 49 44 46 51 54 54
13 11 10 11 13 17 23 31 38 43 55 65 64 57 52 49 32 24 22 21 34 38 34 39 44 45 43 41 38 32 25 18 15 16 25 35 32 26 21 21 23 30 49
10 11 13 17 22 26 30 36 45 59 65 67 64 60 57 54 47 38 30 28 28 30 33 49 45 41 38 35 35 35 35 34 32 25 18 15 19 26 34 38 36 34 34
14 17 20 23 28 31 35 61 77 74 69 72 68 62 57 57 52 44 42 46 49 50 47 41 36 31 26 24 21 19 17 18 19 23 26 25 22 16 15 16 20 32 39
19 20 21 23 30 36 38 56 75 77 73 70 70 68 63 60 59 60 62 58 53 46 36 27 19 15 12 12 12 14 18 20 20 20 19 16 16 18 18 16 15 17 24
19 20 22 24 27 34 43 64 68 72 78 79 83 76 70 67 66 61 58 52 44 33 24 16 11 10 16 26 26 24 23 22 18 20 24 27 23 18 16 16 15 16 16
18 18 21 25 28 30 37 62 76 81 81 84 86 82 74 72 72 68 61 48 29 19 12 11 18 26 21 11 7 7 7 7 8 8 8 8 11 20 25 17 15 14 14
18 20 24 26 29 31 35 79 76 91 90 93 89 82 75 72 71 63 43 26 14 14 19 27 18 9 8 8 10 10 10 9 10 13 11 11 12 10 8 18 23 14 14
21 20 21 25 29 32 34 76 85 96 94 95 95 85 83 78 73 42 23 15 17 24 25 14 8 10 11 13 12 12 13 13 10 10 11 12 13 8 9 9 11 23 14
20 22 23 30 36 35 38 60 82 97 99 96 95 88 85 83 47 21 15 18 27 22 10 8 8 10 13 15 14 11 12 15 16 17 16 21 29 23 17 10 6 9 21
20 20 25 34 40 40 44 72 86 94 100 100 99 94 84 66 24 17 18 26 19 10 14 15 15 16 16 14 13 17 21 25 27 33 40 39 40 36 32 22 12 6 8
26 21 28 34 38 46 83 93 88 98 100 100 96 95 88 40 19 23 28 20 9 13 15 16 20 20 16 17 19 17 18 24 31 42 57 54 62 52 34 30 18 11 5

GFSMA_500_rhum_129.txt.gz
RH
17 20 21 21 20 19 18 17 16 15 14 13 12 12 12 16 17 24 24 33 40 46 48 49 46 60 72 66 41 26 31 42 53 59 65 61 52 52 51 45 42 43 40
19 20 19 18 15 12 10 9 9 9 9 9 9 9 8 8 8 10 14 21 33 45 45 58 66 67 74 83 81 75 57 42 39 47 60 64 59 61 64 65 60 55 50
17 15 11 9 10 11 12 13 15 17 13 12 12 8 8 7 5 5 6 7 12 28 37 50 52 62 68 74 86 89 88 83 72 66 65 65 66 69 79 76 78 77 71
9 8 10 13 14 14 16 15 11 12 11 11 12 12 12 11 10 8 10 13 12 21 31 61 42 45 56 56 51 54 89 98 95 96 84 82 98 95 87 87 87 86 84
11 13 13 13 15 14 10 11 12 11 10 10 9 11 12 12 11 12 11 24 24 26 95 84 92 96 89 85 55 90 69 95 95 96 98 96 88 95 96 95 93 90 89
14 13 13 14 13 14 14 13 13 12 10 8 10 10 8 8 12 12 33 38 66 54 42 85 80 92 95 91 86 61 63 87 88 70 90 90 97 97 88 97 94 93 97
13 10 13 14 15 17 16 14 13 10 5 6 8 11 12 12 13 17 16 53 38 75 69 51 94 98 99 97 98 77 59 54 45 61 86 66 56 94 98 97 99 97 99
8 17 15 15 18 20 20 12 9 6 9 12 12 11 12 15 15 22 19 27 48 40 50 89 67 61 78 99 97 96 86 84 70 33 73 58 27 28 64 91 92 51 75
6 14 16 18 19 20 16 7 6 6 10 12 11 11 12 15 17 17 28 22 18 27 37 36 65 90 69 99 98 93 98 91 93 83 64 60 64 56 38 27 33 18 16
6 9 17 18 19 18 8 5 6 9 10 11 12 10 11 12 16 20 24 32 38 18 18 21 28 37 82 88 89 99 94 91 96 95 97 85 71 52 41 41 42 37 25
6 13 17 18 16 9 9 9 9 9 7 8 9 11 14 16 15 14 18 28 36 43 38 18 17 22 33 33 74 82 90 93 93 89 96 93 82 73 72 64 69 70 59
8 15 16 16 12 8 9 9 9 9 9 11 13 19 31 34 38 24 16 16 23 28 27 28 39 39 37 35 38 41 56 54 66 45 59 56 64 70 67 69 72 74 73
9 14 15 15 14 11 8 9 8 9 12 16 28 36 43 49 51 49 34 19 19 19 19 23 22 22 23 24 26 33 35 37 31 29 36 49 61 70 73 75 60 56 73
13 14 16 17 14 10 9 8 10 13 18 29 36 43 48 52 52 50 46 44 26 22 22 24 31 34 36 36 35 35 32 24 17 15 17 21 28 31 43 58 72 60 54
17 17 13 9 7 8 9 12 21 28 32 40 61 65 63 63 58 54 51 48 47 32 23 19 20 27 40 41 35 35 39 40 38 35 33 30 24 17 17 27 53 54 41
7 7 8 9 10 12 16 22 28 36 37 44 64 66 67 61 60 58 56 53 50 46 39 30 28 29 30 32 38 42 41 37 35 34 32 31 31 31 31 21 17 29 56
9 11 14 17 19 20 20 22 24 32 36 42 63 58 62 64 62 64 62 57 54 52 48 45 45 48 50 48 42 35 26 22 19 19 18 16 16 16 19 26 30 21 16
16 16 16 17 18 18 18 20 22 24 33 41 59 67 64 68 64 65 69 66 58 53 54 58 56 49 43 35 28 23 17 12 10 9 9 9 10 13 15 17 26 31 31
12 13 14 14 15 17 18 19 20 24 27 30 43 74 63 75 76 72 77 74 67 61 57 54 54 46 36 27 18 13 9 8 9 12 16 19 21 22 21 20 17 17 25
12 12 13 14 15 18 19 19 20 24 27 30 38 77 72 74 78 77 78 79 69 63 60 54 46 31 18 13 10 9 13 20 22 17 12 9 8 8 9 12 18 22 19
23 21 20 20 19 20 21 20 22 27 31 34 37 72 70 79 81 82 86 80 76 68 62 46 23 14 11 10 13 20 22 14 8 8 8 8 7 7 7 7 6 5 12
27 28 30 30 26 24 22 23 24 28 38 41 40 49 63 87 86 89 91 88 79 69 48 22 14 12 14 18 20 15 9 6 8 11 9 10 11 8 7 7 8 8 6
34 36 36 34 34 33 28 25 27 36 42 45 48 56 85 85 88 93 96 95 83 55 24 14 14 19 21 15 13 8 6 7 8 10 10 8 12 14 14 14 13 12 11
19 28 33 38 40 38 34 32 33 42 47 53 64 95 87 92 91 98 98 96 74 25 15 15 21 20 12 8 9 9 10 10 10 9 9 10 13 13 14 16 21 22 21
18 19 26 37 40 41 38 36 37 45 58 57 100 93 90 96 99 100 99 94 44 18 20 27 21 11 11 14 15 16 15 13 13 11 12 12 13 20 23 24 29 32 33
16 18 30 40 42 44 42 45 52 62 58 82 100 97 98 97 100 99 99 72 25 23 28 20 11 15 15 21 31 30 28 24 24 26 37 36 31 36 32 37 41 43 45